<?xml version="1.0" encoding="UTF-8" standalone="no" ?>
<gpx xmlns="http://www.topografix.com/GPX/1/1" xmlns:xsi="http://www.w3.org/2001/XMLSchema-instance" xsi:schemaLocation="http://www.topografix.com/GPX/1/1 http://www.topografix.com/GPX/1/1/gpx.xsd" version="1.1" creator="VisuGPX - https://www.visugpx.com">
  <metadata>
    <name>VTT Bucquoy</name>
    <desc><![CDATA[51 kms de Bucquoy]]></desc>
  </metadata>
  <trk>
    <name><![CDATA[2010-09-19T06:43:32Z]]></name>
    <trkseg>
      <trkpt lat="50.14002" lon="2.70836">
        <ele>143.3736572</ele>
        <time>2010-09-19T06:43:32Z</time>
      </trkpt>
      <trkpt lat="50.13995" lon="2.70849">
        <ele>141.4510498</ele>
        <time>2010-09-19T06:43:37Z</time>
      </trkpt>
      <trkpt lat="50.13986" lon="2.70891">
        <ele>140.970459</ele>
        <time>2010-09-19T06:43:44Z</time>
      </trkpt>
      <trkpt lat="50.1398" lon="2.70933">
        <ele>140.4898682</ele>
        <time>2010-09-19T06:43:51Z</time>
      </trkpt>
      <trkpt lat="50.13978" lon="2.70945">
        <ele>140.4898682</ele>
        <time>2010-09-19T06:43:54Z</time>
      </trkpt>
      <trkpt lat="50.13969" lon="2.70949">
        <ele>141.9317627</ele>
        <time>2010-09-19T06:43:58Z</time>
      </trkpt>
      <trkpt lat="50.13954" lon="2.70946">
        <ele>146.2578125</ele>
        <time>2010-09-19T06:44:03Z</time>
      </trkpt>
      <trkpt lat="50.13947" lon="2.70946">
        <ele>148.6610107</ele>
        <time>2010-09-19T06:44:05Z</time>
      </trkpt>
      <trkpt lat="50.13931" lon="2.70944">
        <ele>152.0257568</ele>
        <time>2010-09-19T06:44:10Z</time>
      </trkpt>
      <trkpt lat="50.13896" lon="2.70935">
        <ele>153.9483643</ele>
        <time>2010-09-19T06:44:19Z</time>
      </trkpt>
      <trkpt lat="50.1387" lon="2.70928">
        <ele>150.5836182</ele>
        <time>2010-09-19T06:44:26Z</time>
      </trkpt>
      <trkpt lat="50.13853" lon="2.70922">
        <ele>146.7384033</ele>
        <time>2010-09-19T06:44:33Z</time>
      </trkpt>
      <trkpt lat="50.13833" lon="2.70914">
        <ele>147.2189941</ele>
        <time>2010-09-19T06:44:41Z</time>
      </trkpt>
      <trkpt lat="50.1381" lon="2.70905">
        <ele>147.699707</ele>
        <time>2010-09-19T06:44:48Z</time>
      </trkpt>
      <trkpt lat="50.13784" lon="2.7089">
        <ele>147.699707</ele>
        <time>2010-09-19T06:44:55Z</time>
      </trkpt>
      <trkpt lat="50.13764" lon="2.70867">
        <ele>146.2578125</ele>
        <time>2010-09-19T06:45:01Z</time>
      </trkpt>
      <trkpt lat="50.13742" lon="2.7084">
        <ele>144.3352051</ele>
        <time>2010-09-19T06:45:08Z</time>
      </trkpt>
      <trkpt lat="50.13709" lon="2.70802">
        <ele>142.4124756</ele>
        <time>2010-09-19T06:45:17Z</time>
      </trkpt>
      <trkpt lat="50.1367" lon="2.70768">
        <ele>142.4124756</ele>
        <time>2010-09-19T06:45:26Z</time>
      </trkpt>
      <trkpt lat="50.13634" lon="2.70738">
        <ele>142.4124756</ele>
        <time>2010-09-19T06:45:34Z</time>
      </trkpt>
      <trkpt lat="50.13609" lon="2.70732">
        <ele>143.3736572</ele>
        <time>2010-09-19T06:45:39Z</time>
      </trkpt>
      <trkpt lat="50.13596" lon="2.70734">
        <ele>143.8543701</ele>
        <time>2010-09-19T06:45:42Z</time>
      </trkpt>
      <trkpt lat="50.13576" lon="2.70749">
        <ele>142.4124756</ele>
        <time>2010-09-19T06:45:47Z</time>
      </trkpt>
      <trkpt lat="50.13573" lon="2.70755">
        <ele>141.9317627</ele>
        <time>2010-09-19T06:45:48Z</time>
      </trkpt>
      <trkpt lat="50.13549" lon="2.7081">
        <ele>140.0091553</ele>
        <time>2010-09-19T06:45:56Z</time>
      </trkpt>
      <trkpt lat="50.13536" lon="2.70838">
        <ele>139.0478516</ele>
        <time>2010-09-19T06:46:01Z</time>
      </trkpt>
      <trkpt lat="50.13533" lon="2.70845">
        <ele>139.0478516</ele>
        <time>2010-09-19T06:46:03Z</time>
      </trkpt>
      <trkpt lat="50.13527" lon="2.70848">
        <ele>138.0865479</ele>
        <time>2010-09-19T06:46:08Z</time>
      </trkpt>
      <trkpt lat="50.13511" lon="2.70831">
        <ele>138.5672607</ele>
        <time>2010-09-19T06:46:14Z</time>
      </trkpt>
      <trkpt lat="50.13497" lon="2.70817">
        <ele>139.0478516</ele>
        <time>2010-09-19T06:46:18Z</time>
      </trkpt>
      <trkpt lat="50.13475" lon="2.70796">
        <ele>140.0091553</ele>
        <time>2010-09-19T06:46:24Z</time>
      </trkpt>
      <trkpt lat="50.13466" lon="2.70788">
        <ele>140.4898682</ele>
        <time>2010-09-19T06:46:27Z</time>
      </trkpt>
      <trkpt lat="50.13443" lon="2.70773">
        <ele>140.0091553</ele>
        <time>2010-09-19T06:46:33Z</time>
      </trkpt>
      <trkpt lat="50.13409" lon="2.70753">
        <ele>138.0865479</ele>
        <time>2010-09-19T06:46:41Z</time>
      </trkpt>
      <trkpt lat="50.13387" lon="2.70739">
        <ele>137.605835</ele>
        <time>2010-09-19T06:46:46Z</time>
      </trkpt>
      <trkpt lat="50.1337" lon="2.70721">
        <ele>136.6446533</ele>
        <time>2010-09-19T06:46:50Z</time>
      </trkpt>
      <trkpt lat="50.13362" lon="2.70709">
        <ele>136.6446533</ele>
        <time>2010-09-19T06:46:52Z</time>
      </trkpt>
      <trkpt lat="50.13335" lon="2.70682">
        <ele>135.6831055</ele>
        <time>2010-09-19T06:46:58Z</time>
      </trkpt>
      <trkpt lat="50.13324" lon="2.70676">
        <ele>136.1639404</ele>
        <time>2010-09-19T06:47:00Z</time>
      </trkpt>
      <trkpt lat="50.13299" lon="2.70657">
        <ele>135.2025146</ele>
        <time>2010-09-19T06:47:05Z</time>
      </trkpt>
      <trkpt lat="50.13257" lon="2.70638">
        <ele>135.6831055</ele>
        <time>2010-09-19T06:47:13Z</time>
      </trkpt>
      <trkpt lat="50.13217" lon="2.70625">
        <ele>135.2025146</ele>
        <time>2010-09-19T06:47:20Z</time>
      </trkpt>
      <trkpt lat="50.13168" lon="2.70611">
        <ele>133.760498</ele>
        <time>2010-09-19T06:47:28Z</time>
      </trkpt>
      <trkpt lat="50.13123" lon="2.70587">
        <ele>132.7993164</ele>
        <time>2010-09-19T06:47:35Z</time>
      </trkpt>
      <trkpt lat="50.13066" lon="2.70555">
        <ele>131.8378906</ele>
        <time>2010-09-19T06:47:44Z</time>
      </trkpt>
      <trkpt lat="50.13008" lon="2.70524">
        <ele>131.3572998</ele>
        <time>2010-09-19T06:47:53Z</time>
      </trkpt>
      <trkpt lat="50.1296" lon="2.70495">
        <ele>130.3959961</ele>
        <time>2010-09-19T06:48:01Z</time>
      </trkpt>
      <trkpt lat="50.12914" lon="2.70462">
        <ele>129.4346924</ele>
        <time>2010-09-19T06:48:09Z</time>
      </trkpt>
      <trkpt lat="50.12892" lon="2.70447">
        <ele>129.4346924</ele>
        <time>2010-09-19T06:48:13Z</time>
      </trkpt>
      <trkpt lat="50.12879" lon="2.70446">
        <ele>129.4346924</ele>
        <time>2010-09-19T06:48:17Z</time>
      </trkpt>
      <trkpt lat="50.12876" lon="2.7045">
        <ele>129.4346924</ele>
        <time>2010-09-19T06:48:18Z</time>
      </trkpt>
      <trkpt lat="50.12854" lon="2.70496">
        <ele>128.9541016</ele>
        <time>2010-09-19T06:48:25Z</time>
      </trkpt>
      <trkpt lat="50.12841" lon="2.70522">
        <ele>130.3959961</ele>
        <time>2010-09-19T06:48:29Z</time>
      </trkpt>
      <trkpt lat="50.12832" lon="2.7054">
        <ele>130.3959961</ele>
        <time>2010-09-19T06:48:32Z</time>
      </trkpt>
      <trkpt lat="50.1282" lon="2.70565">
        <ele>131.3572998</ele>
        <time>2010-09-19T06:48:36Z</time>
      </trkpt>
      <trkpt lat="50.12803" lon="2.70601">
        <ele>131.8378906</ele>
        <time>2010-09-19T06:48:41Z</time>
      </trkpt>
      <trkpt lat="50.12768" lon="2.70675">
        <ele>132.3186035</ele>
        <time>2010-09-19T06:48:51Z</time>
      </trkpt>
      <trkpt lat="50.1275" lon="2.70712">
        <ele>132.3186035</ele>
        <time>2010-09-19T06:48:57Z</time>
      </trkpt>
      <trkpt lat="50.1274" lon="2.70734">
        <ele>131.8378906</ele>
        <time>2010-09-19T06:49:01Z</time>
      </trkpt>
      <trkpt lat="50.12726" lon="2.70766">
        <ele>132.3186035</ele>
        <time>2010-09-19T06:49:07Z</time>
      </trkpt>
      <trkpt lat="50.12714" lon="2.7076">
        <ele>131.8378906</ele>
        <time>2010-09-19T06:49:12Z</time>
      </trkpt>
      <trkpt lat="50.12695" lon="2.70742">
        <ele>128.9541016</ele>
        <time>2010-09-19T06:49:17Z</time>
      </trkpt>
      <trkpt lat="50.12669" lon="2.7072">
        <ele>127.5119629</ele>
        <time>2010-09-19T06:49:22Z</time>
      </trkpt>
      <trkpt lat="50.12653" lon="2.70708">
        <ele>126.0699463</ele>
        <time>2010-09-19T06:49:25Z</time>
      </trkpt>
      <trkpt lat="50.12639" lon="2.70698">
        <ele>125.5893555</ele>
        <time>2010-09-19T06:49:28Z</time>
      </trkpt>
      <trkpt lat="50.12633" lon="2.7069">
        <ele>125.5893555</ele>
        <time>2010-09-19T06:49:31Z</time>
      </trkpt>
      <trkpt lat="50.12619" lon="2.70672">
        <ele>124.6280518</ele>
        <time>2010-09-19T06:49:37Z</time>
      </trkpt>
      <trkpt lat="50.12598" lon="2.70647">
        <ele>126.0699463</ele>
        <time>2010-09-19T06:49:44Z</time>
      </trkpt>
      <trkpt lat="50.12583" lon="2.7063">
        <ele>127.5119629</ele>
        <time>2010-09-19T06:49:49Z</time>
      </trkpt>
      <trkpt lat="50.12576" lon="2.70622">
        <ele>128.4733887</ele>
        <time>2010-09-19T06:49:52Z</time>
      </trkpt>
      <trkpt lat="50.1257" lon="2.70615">
        <ele>128.9541016</ele>
        <time>2010-09-19T06:49:55Z</time>
      </trkpt>
      <trkpt lat="50.12558" lon="2.70602">
        <ele>130.3959961</ele>
        <time>2010-09-19T06:50:01Z</time>
      </trkpt>
      <trkpt lat="50.12539" lon="2.70579">
        <ele>131.3572998</ele>
        <time>2010-09-19T06:50:10Z</time>
      </trkpt>
      <trkpt lat="50.12518" lon="2.70557">
        <ele>131.8378906</ele>
        <time>2010-09-19T06:50:19Z</time>
      </trkpt>
      <trkpt lat="50.12499" lon="2.70539">
        <ele>131.8378906</ele>
        <time>2010-09-19T06:50:26Z</time>
      </trkpt>
      <trkpt lat="50.12462" lon="2.70516">
        <ele>131.3572998</ele>
        <time>2010-09-19T06:50:36Z</time>
      </trkpt>
      <trkpt lat="50.12437" lon="2.70503">
        <ele>130.3959961</ele>
        <time>2010-09-19T06:50:41Z</time>
      </trkpt>
      <trkpt lat="50.12417" lon="2.70491">
        <ele>130.876709</ele>
        <time>2010-09-19T06:50:45Z</time>
      </trkpt>
      <trkpt lat="50.124" lon="2.70482">
        <ele>130.876709</ele>
        <time>2010-09-19T06:50:49Z</time>
      </trkpt>
      <trkpt lat="50.12386" lon="2.70478">
        <ele>130.876709</ele>
        <time>2010-09-19T06:50:53Z</time>
      </trkpt>
      <trkpt lat="50.12356" lon="2.70462">
        <ele>131.8378906</ele>
        <time>2010-09-19T06:51:02Z</time>
      </trkpt>
      <trkpt lat="50.12312" lon="2.70439">
        <ele>133.2799072</ele>
        <time>2010-09-19T06:51:14Z</time>
      </trkpt>
      <trkpt lat="50.12294" lon="2.70429">
        <ele>133.760498</ele>
        <time>2010-09-19T06:51:19Z</time>
      </trkpt>
      <trkpt lat="50.12268" lon="2.70417">
        <ele>135.2025146</ele>
        <time>2010-09-19T06:51:27Z</time>
      </trkpt>
      <trkpt lat="50.12233" lon="2.70404">
        <ele>137.1252441</ele>
        <time>2010-09-19T06:51:38Z</time>
      </trkpt>
      <trkpt lat="50.122" lon="2.70395">
        <ele>139.0478516</ele>
        <time>2010-09-19T06:51:47Z</time>
      </trkpt>
      <trkpt lat="50.12166" lon="2.70386">
        <ele>140.4898682</ele>
        <time>2010-09-19T06:51:56Z</time>
      </trkpt>
      <trkpt lat="50.1214" lon="2.70379">
        <ele>140.4898682</ele>
        <time>2010-09-19T06:52:03Z</time>
      </trkpt>
      <trkpt lat="50.12116" lon="2.7038">
        <ele>140.4898682</ele>
        <time>2010-09-19T06:52:09Z</time>
      </trkpt>
      <trkpt lat="50.1207" lon="2.7039">
        <ele>140.0091553</ele>
        <time>2010-09-19T06:52:18Z</time>
      </trkpt>
      <trkpt lat="50.12029" lon="2.70403">
        <ele>138.0865479</ele>
        <time>2010-09-19T06:52:25Z</time>
      </trkpt>
      <trkpt lat="50.11993" lon="2.70414">
        <ele>135.2025146</ele>
        <time>2010-09-19T06:52:30Z</time>
      </trkpt>
      <trkpt lat="50.11978" lon="2.70417">
        <ele>134.2412109</ele>
        <time>2010-09-19T06:52:32Z</time>
      </trkpt>
      <trkpt lat="50.11965" lon="2.70415">
        <ele>132.7993164</ele>
        <time>2010-09-19T06:52:34Z</time>
      </trkpt>
      <trkpt lat="50.11924" lon="2.70401">
        <ele>128.4733887</ele>
        <time>2010-09-19T06:52:41Z</time>
      </trkpt>
      <trkpt lat="50.11914" lon="2.70411">
        <ele>127.9925537</ele>
        <time>2010-09-19T06:52:45Z</time>
      </trkpt>
      <trkpt lat="50.11914" lon="2.70417">
        <ele>127.5119629</ele>
        <time>2010-09-19T06:52:46Z</time>
      </trkpt>
      <trkpt lat="50.11916" lon="2.70476">
        <ele>125.1087646</ele>
        <time>2010-09-19T06:52:53Z</time>
      </trkpt>
      <trkpt lat="50.11921" lon="2.70554">
        <ele>123.666748</ele>
        <time>2010-09-19T06:53:02Z</time>
      </trkpt>
      <trkpt lat="50.11924" lon="2.7061">
        <ele>122.2247314</ele>
        <time>2010-09-19T06:53:08Z</time>
      </trkpt>
      <trkpt lat="50.11928" lon="2.70658">
        <ele>121.7441406</ele>
        <time>2010-09-19T06:53:13Z</time>
      </trkpt>
      <trkpt lat="50.11936" lon="2.70698">
        <ele>120.7828369</ele>
        <time>2010-09-19T06:53:18Z</time>
      </trkpt>
      <trkpt lat="50.1193" lon="2.70713">
        <ele>120.7828369</ele>
        <time>2010-09-19T06:53:22Z</time>
      </trkpt>
      <trkpt lat="50.11927" lon="2.70714">
        <ele>121.2635498</ele>
        <time>2010-09-19T06:53:23Z</time>
      </trkpt>
      <trkpt lat="50.11897" lon="2.70717">
        <ele>121.7441406</ele>
        <time>2010-09-19T06:53:31Z</time>
      </trkpt>
      <trkpt lat="50.11893" lon="2.70718">
        <ele>121.7441406</ele>
        <time>2010-09-19T06:53:32Z</time>
      </trkpt>
      <trkpt lat="50.11857" lon="2.70725">
        <ele>122.7054443</ele>
        <time>2010-09-19T06:53:41Z</time>
      </trkpt>
      <trkpt lat="50.11821" lon="2.70731">
        <ele>124.6280518</ele>
        <time>2010-09-19T06:53:51Z</time>
      </trkpt>
      <trkpt lat="50.1181" lon="2.70733">
        <ele>125.5893555</ele>
        <time>2010-09-19T06:53:54Z</time>
      </trkpt>
      <trkpt lat="50.11792" lon="2.7073">
        <ele>126.0699463</ele>
        <time>2010-09-19T06:54:00Z</time>
      </trkpt>
      <trkpt lat="50.11778" lon="2.70724">
        <ele>126.5506592</ele>
        <time>2010-09-19T06:54:05Z</time>
      </trkpt>
      <trkpt lat="50.11752" lon="2.70714">
        <ele>127.9925537</ele>
        <time>2010-09-19T06:54:14Z</time>
      </trkpt>
      <trkpt lat="50.11722" lon="2.70702">
        <ele>129.4346924</ele>
        <time>2010-09-19T06:54:25Z</time>
      </trkpt>
      <trkpt lat="50.11686" lon="2.70689">
        <ele>131.8378906</ele>
        <time>2010-09-19T06:54:38Z</time>
      </trkpt>
      <trkpt lat="50.11658" lon="2.7068">
        <ele>133.760498</ele>
        <time>2010-09-19T06:54:49Z</time>
      </trkpt>
      <trkpt lat="50.11641" lon="2.7068">
        <ele>136.1639404</ele>
        <time>2010-09-19T06:54:56Z</time>
      </trkpt>
      <trkpt lat="50.11617" lon="2.70688">
        <ele>140.0091553</ele>
        <time>2010-09-19T06:55:05Z</time>
      </trkpt>
      <trkpt lat="50.11584" lon="2.70696">
        <ele>140.970459</ele>
        <time>2010-09-19T06:55:16Z</time>
      </trkpt>
      <trkpt lat="50.11575" lon="2.7068">
        <ele>140.4898682</ele>
        <time>2010-09-19T06:55:20Z</time>
      </trkpt>
      <trkpt lat="50.11567" lon="2.70645">
        <ele>140.0091553</ele>
        <time>2010-09-19T06:55:27Z</time>
      </trkpt>
      <trkpt lat="50.11555" lon="2.70593">
        <ele>141.4510498</ele>
        <time>2010-09-19T06:55:36Z</time>
      </trkpt>
      <trkpt lat="50.11543" lon="2.70547">
        <ele>140.4898682</ele>
        <time>2010-09-19T06:55:45Z</time>
      </trkpt>
      <trkpt lat="50.11535" lon="2.70513">
        <ele>143.3736572</ele>
        <time>2010-09-19T06:55:52Z</time>
      </trkpt>
      <trkpt lat="50.11524" lon="2.7047">
        <ele>145.7770996</ele>
        <time>2010-09-19T06:56:00Z</time>
      </trkpt>
      <trkpt lat="50.1151" lon="2.70424">
        <ele>144.3352051</ele>
        <time>2010-09-19T06:56:08Z</time>
      </trkpt>
      <trkpt lat="50.115" lon="2.70381">
        <ele>143.8543701</ele>
        <time>2010-09-19T06:56:16Z</time>
      </trkpt>
      <trkpt lat="50.1149" lon="2.70329">
        <ele>142.8930664</ele>
        <time>2010-09-19T06:56:25Z</time>
      </trkpt>
      <trkpt lat="50.11477" lon="2.70267">
        <ele>143.8543701</ele>
        <time>2010-09-19T06:56:36Z</time>
      </trkpt>
      <trkpt lat="50.11472" lon="2.70236">
        <ele>146.2578125</ele>
        <time>2010-09-19T06:56:43Z</time>
      </trkpt>
      <trkpt lat="50.11467" lon="2.7021">
        <ele>150.5836182</ele>
        <time>2010-09-19T06:56:48Z</time>
      </trkpt>
      <trkpt lat="50.1146" lon="2.70181">
        <ele>156.3515625</ele>
        <time>2010-09-19T06:56:53Z</time>
      </trkpt>
      <trkpt lat="50.1145" lon="2.70151">
        <ele>152.5063477</ele>
        <time>2010-09-19T06:56:58Z</time>
      </trkpt>
      <trkpt lat="50.11447" lon="2.70126">
        <ele>149.1416016</ele>
        <time>2010-09-19T06:57:02Z</time>
      </trkpt>
      <trkpt lat="50.11446" lon="2.70104">
        <ele>149.6223145</ele>
        <time>2010-09-19T06:57:06Z</time>
      </trkpt>
      <trkpt lat="50.11431" lon="2.70079">
        <ele>151.064209</ele>
        <time>2010-09-19T06:57:11Z</time>
      </trkpt>
      <trkpt lat="50.1142" lon="2.70084">
        <ele>152.0257568</ele>
        <time>2010-09-19T06:57:14Z</time>
      </trkpt>
      <trkpt lat="50.11413" lon="2.70091">
        <ele>151.5449219</ele>
        <time>2010-09-19T06:57:16Z</time>
      </trkpt>
      <trkpt lat="50.11391" lon="2.70101">
        <ele>152.0257568</ele>
        <time>2010-09-19T06:57:21Z</time>
      </trkpt>
      <trkpt lat="50.11345" lon="2.70099">
        <ele>149.6223145</ele>
        <time>2010-09-19T06:57:30Z</time>
      </trkpt>
      <trkpt lat="50.11309" lon="2.70104">
        <ele>149.1416016</ele>
        <time>2010-09-19T06:57:36Z</time>
      </trkpt>
      <trkpt lat="50.11278" lon="2.70121">
        <ele>148.1804199</ele>
        <time>2010-09-19T06:57:41Z</time>
      </trkpt>
      <trkpt lat="50.11194" lon="2.70179">
        <ele>144.8157959</ele>
        <time>2010-09-19T06:57:55Z</time>
      </trkpt>
      <trkpt lat="50.11154" lon="2.70207">
        <ele>143.8543701</ele>
        <time>2010-09-19T06:58:02Z</time>
      </trkpt>
      <trkpt lat="50.11143" lon="2.70213">
        <ele>143.8543701</ele>
        <time>2010-09-19T06:58:04Z</time>
      </trkpt>
      <trkpt lat="50.11121" lon="2.70218">
        <ele>144.3352051</ele>
        <time>2010-09-19T06:58:08Z</time>
      </trkpt>
      <trkpt lat="50.11079" lon="2.70208">
        <ele>147.2189941</ele>
        <time>2010-09-19T06:58:16Z</time>
      </trkpt>
      <trkpt lat="50.11025" lon="2.70196">
        <ele>147.699707</ele>
        <time>2010-09-19T06:58:27Z</time>
      </trkpt>
      <trkpt lat="50.11006" lon="2.70191">
        <ele>147.699707</ele>
        <time>2010-09-19T06:58:31Z</time>
      </trkpt>
      <trkpt lat="50.10969" lon="2.70192">
        <ele>151.064209</ele>
        <time>2010-09-19T06:58:39Z</time>
      </trkpt>
      <trkpt lat="50.109" lon="2.70203">
        <ele>152.9869385</ele>
        <time>2010-09-19T06:58:53Z</time>
      </trkpt>
      <trkpt lat="50.10847" lon="2.70209">
        <ele>152.9869385</ele>
        <time>2010-09-19T06:59:03Z</time>
      </trkpt>
      <trkpt lat="50.10808" lon="2.70203">
        <ele>152.5063477</ele>
        <time>2010-09-19T06:59:10Z</time>
      </trkpt>
      <trkpt lat="50.1078" lon="2.70194">
        <ele>152.0257568</ele>
        <time>2010-09-19T06:59:15Z</time>
      </trkpt>
      <trkpt lat="50.10752" lon="2.70184">
        <ele>150.1030273</ele>
        <time>2010-09-19T06:59:20Z</time>
      </trkpt>
      <trkpt lat="50.10738" lon="2.70161">
        <ele>149.1416016</ele>
        <time>2010-09-19T06:59:24Z</time>
      </trkpt>
      <trkpt lat="50.10716" lon="2.70084">
        <ele>148.6610107</ele>
        <time>2010-09-19T06:59:34Z</time>
      </trkpt>
      <trkpt lat="50.10702" lon="2.70033">
        <ele>148.6610107</ele>
        <time>2010-09-19T06:59:41Z</time>
      </trkpt>
      <trkpt lat="50.1069" lon="2.69992">
        <ele>149.1416016</ele>
        <time>2010-09-19T06:59:47Z</time>
      </trkpt>
      <trkpt lat="50.10678" lon="2.6995">
        <ele>149.6223145</ele>
        <time>2010-09-19T06:59:53Z</time>
      </trkpt>
      <trkpt lat="50.10655" lon="2.6987">
        <ele>149.1416016</ele>
        <time>2010-09-19T07:00:04Z</time>
      </trkpt>
      <trkpt lat="50.10634" lon="2.698">
        <ele>148.6610107</ele>
        <time>2010-09-19T07:00:14Z</time>
      </trkpt>
      <trkpt lat="50.10614" lon="2.69736">
        <ele>148.1804199</ele>
        <time>2010-09-19T07:00:24Z</time>
      </trkpt>
      <trkpt lat="50.10601" lon="2.69696">
        <ele>147.699707</ele>
        <time>2010-09-19T07:00:30Z</time>
      </trkpt>
      <trkpt lat="50.10587" lon="2.69646">
        <ele>148.1804199</ele>
        <time>2010-09-19T07:00:38Z</time>
      </trkpt>
      <trkpt lat="50.10574" lon="2.69602">
        <ele>148.1804199</ele>
        <time>2010-09-19T07:00:45Z</time>
      </trkpt>
      <trkpt lat="50.10567" lon="2.69577">
        <ele>148.1804199</ele>
        <time>2010-09-19T07:00:49Z</time>
      </trkpt>
      <trkpt lat="50.10546" lon="2.69506">
        <ele>147.2189941</ele>
        <time>2010-09-19T07:01:00Z</time>
      </trkpt>
      <trkpt lat="50.10542" lon="2.69486">
        <ele>147.699707</ele>
        <time>2010-09-19T07:01:03Z</time>
      </trkpt>
      <trkpt lat="50.10528" lon="2.69437">
        <ele>149.6223145</ele>
        <time>2010-09-19T07:01:12Z</time>
      </trkpt>
      <trkpt lat="50.10511" lon="2.69381">
        <ele>151.064209</ele>
        <time>2010-09-19T07:01:24Z</time>
      </trkpt>
      <trkpt lat="50.10503" lon="2.69351">
        <ele>150.5836182</ele>
        <time>2010-09-19T07:01:30Z</time>
      </trkpt>
      <trkpt lat="50.10492" lon="2.69329">
        <ele>150.1030273</ele>
        <time>2010-09-19T07:01:34Z</time>
      </trkpt>
      <trkpt lat="50.10474" lon="2.69323">
        <ele>150.5836182</ele>
        <time>2010-09-19T07:01:38Z</time>
      </trkpt>
      <trkpt lat="50.10443" lon="2.69313">
        <ele>151.064209</ele>
        <time>2010-09-19T07:01:45Z</time>
      </trkpt>
      <trkpt lat="50.1041" lon="2.693">
        <ele>151.064209</ele>
        <time>2010-09-19T07:01:53Z</time>
      </trkpt>
      <trkpt lat="50.104" lon="2.69283">
        <ele>150.5836182</ele>
        <time>2010-09-19T07:01:57Z</time>
      </trkpt>
      <trkpt lat="50.10403" lon="2.69272">
        <ele>149.6223145</ele>
        <time>2010-09-19T07:01:59Z</time>
      </trkpt>
      <trkpt lat="50.1041" lon="2.69255">
        <ele>149.6223145</ele>
        <time>2010-09-19T07:02:02Z</time>
      </trkpt>
      <trkpt lat="50.10429" lon="2.6918">
        <ele>152.5063477</ele>
        <time>2010-09-19T07:02:14Z</time>
      </trkpt>
      <trkpt lat="50.1044" lon="2.6913">
        <ele>153.9483643</ele>
        <time>2010-09-19T07:02:22Z</time>
      </trkpt>
      <trkpt lat="50.10455" lon="2.69059">
        <ele>156.3515625</ele>
        <time>2010-09-19T07:02:33Z</time>
      </trkpt>
      <trkpt lat="50.10465" lon="2.69">
        <ele>158.7547607</ele>
        <time>2010-09-19T07:02:43Z</time>
      </trkpt>
      <trkpt lat="50.10477" lon="2.68952">
        <ele>160.1968994</ele>
        <time>2010-09-19T07:02:52Z</time>
      </trkpt>
      <trkpt lat="50.10495" lon="2.68894">
        <ele>160.6774902</ele>
        <time>2010-09-19T07:03:02Z</time>
      </trkpt>
      <trkpt lat="50.10515" lon="2.68831">
        <ele>161.1582031</ele>
        <time>2010-09-19T07:03:11Z</time>
      </trkpt>
      <trkpt lat="50.10533" lon="2.68773">
        <ele>161.1582031</ele>
        <time>2010-09-19T07:03:19Z</time>
      </trkpt>
      <trkpt lat="50.10555" lon="2.68702">
        <ele>160.6774902</ele>
        <time>2010-09-19T07:03:29Z</time>
      </trkpt>
      <trkpt lat="50.10572" lon="2.68654">
        <ele>159.7161865</ele>
        <time>2010-09-19T07:03:36Z</time>
      </trkpt>
      <trkpt lat="50.10582" lon="2.68628">
        <ele>158.7547607</ele>
        <time>2010-09-19T07:03:40Z</time>
      </trkpt>
      <trkpt lat="50.1058" lon="2.68609">
        <ele>158.2741699</ele>
        <time>2010-09-19T07:03:44Z</time>
      </trkpt>
      <trkpt lat="50.10573" lon="2.68603">
        <ele>158.7547607</ele>
        <time>2010-09-19T07:03:46Z</time>
      </trkpt>
      <trkpt lat="50.10544" lon="2.68575">
        <ele>159.2354736</ele>
        <time>2010-09-19T07:03:53Z</time>
      </trkpt>
      <trkpt lat="50.10514" lon="2.68546">
        <ele>159.7161865</ele>
        <time>2010-09-19T07:04:00Z</time>
      </trkpt>
      <trkpt lat="50.1049" lon="2.68522">
        <ele>159.7161865</ele>
        <time>2010-09-19T07:04:06Z</time>
      </trkpt>
      <trkpt lat="50.10453" lon="2.68485">
        <ele>158.7547607</ele>
        <time>2010-09-19T07:04:15Z</time>
      </trkpt>
      <trkpt lat="50.1042" lon="2.68452">
        <ele>157.7935791</ele>
        <time>2010-09-19T07:04:23Z</time>
      </trkpt>
      <trkpt lat="50.10374" lon="2.68408">
        <ele>156.3515625</ele>
        <time>2010-09-19T07:04:34Z</time>
      </trkpt>
      <trkpt lat="50.10334" lon="2.68372">
        <ele>154.9095459</ele>
        <time>2010-09-19T07:04:43Z</time>
      </trkpt>
      <trkpt lat="50.10289" lon="2.6833">
        <ele>153.4676514</ele>
        <time>2010-09-19T07:04:53Z</time>
      </trkpt>
      <trkpt lat="50.10251" lon="2.68295">
        <ele>152.0257568</ele>
        <time>2010-09-19T07:05:01Z</time>
      </trkpt>
      <trkpt lat="50.10197" lon="2.68245">
        <ele>149.6223145</ele>
        <time>2010-09-19T07:05:12Z</time>
      </trkpt>
      <trkpt lat="50.10155" lon="2.68206">
        <ele>148.6610107</ele>
        <time>2010-09-19T07:05:21Z</time>
      </trkpt>
      <trkpt lat="50.1012" lon="2.68176">
        <ele>148.1804199</ele>
        <time>2010-09-19T07:05:29Z</time>
      </trkpt>
      <trkpt lat="50.10079" lon="2.68148">
        <ele>147.699707</ele>
        <time>2010-09-19T07:05:37Z</time>
      </trkpt>
      <trkpt lat="50.10034" lon="2.68113">
        <ele>146.7384033</ele>
        <time>2010-09-19T07:05:47Z</time>
      </trkpt>
      <trkpt lat="50.10006" lon="2.6809">
        <ele>144.8157959</ele>
        <time>2010-09-19T07:05:53Z</time>
      </trkpt>
      <trkpt lat="50.09966" lon="2.68065">
        <ele>142.8930664</ele>
        <time>2010-09-19T07:06:00Z</time>
      </trkpt>
      <trkpt lat="50.09932" lon="2.68047">
        <ele>142.4124756</ele>
        <time>2010-09-19T07:06:06Z</time>
      </trkpt>
      <trkpt lat="50.0991" lon="2.68034">
        <ele>141.9317627</ele>
        <time>2010-09-19T07:06:11Z</time>
      </trkpt>
      <trkpt lat="50.09881" lon="2.68016">
        <ele>140.970459</ele>
        <time>2010-09-19T07:06:17Z</time>
      </trkpt>
      <trkpt lat="50.09827" lon="2.6798">
        <ele>138.0865479</ele>
        <time>2010-09-19T07:06:27Z</time>
      </trkpt>
      <trkpt lat="50.0979" lon="2.67958">
        <ele>135.6831055</ele>
        <time>2010-09-19T07:06:33Z</time>
      </trkpt>
      <trkpt lat="50.09758" lon="2.67946">
        <ele>133.2799072</ele>
        <time>2010-09-19T07:06:38Z</time>
      </trkpt>
      <trkpt lat="50.09721" lon="2.67936">
        <ele>132.3186035</ele>
        <time>2010-09-19T07:06:44Z</time>
      </trkpt>
      <trkpt lat="50.09666" lon="2.67917">
        <ele>128.4733887</ele>
        <time>2010-09-19T07:06:53Z</time>
      </trkpt>
      <trkpt lat="50.09656" lon="2.67915">
        <ele>128.4733887</ele>
        <time>2010-09-19T07:06:55Z</time>
      </trkpt>
      <trkpt lat="50.09647" lon="2.67897">
        <ele>126.5506592</ele>
        <time>2010-09-19T07:06:59Z</time>
      </trkpt>
      <trkpt lat="50.09648" lon="2.67892">
        <ele>126.5506592</ele>
        <time>2010-09-19T07:07:00Z</time>
      </trkpt>
      <trkpt lat="50.09658" lon="2.67848">
        <ele>126.0699463</ele>
        <time>2010-09-19T07:07:07Z</time>
      </trkpt>
      <trkpt lat="50.09668" lon="2.67815">
        <ele>127.5119629</ele>
        <time>2010-09-19T07:07:12Z</time>
      </trkpt>
      <trkpt lat="50.09668" lon="2.6778">
        <ele>127.9925537</ele>
        <time>2010-09-19T07:07:17Z</time>
      </trkpt>
      <trkpt lat="50.09669" lon="2.67758">
        <ele>127.9925537</ele>
        <time>2010-09-19T07:07:20Z</time>
      </trkpt>
      <trkpt lat="50.09674" lon="2.67739">
        <ele>128.4733887</ele>
        <time>2010-09-19T07:07:23Z</time>
      </trkpt>
      <trkpt lat="50.0969" lon="2.67669">
        <ele>129.9152832</ele>
        <time>2010-09-19T07:07:33Z</time>
      </trkpt>
      <trkpt lat="50.09701" lon="2.67623">
        <ele>130.3959961</ele>
        <time>2010-09-19T07:07:40Z</time>
      </trkpt>
      <trkpt lat="50.09711" lon="2.67578">
        <ele>130.876709</ele>
        <time>2010-09-19T07:07:47Z</time>
      </trkpt>
      <trkpt lat="50.09724" lon="2.67518">
        <ele>132.7993164</ele>
        <time>2010-09-19T07:07:56Z</time>
      </trkpt>
      <trkpt lat="50.09734" lon="2.67473">
        <ele>133.2799072</ele>
        <time>2010-09-19T07:08:03Z</time>
      </trkpt>
      <trkpt lat="50.09744" lon="2.67419">
        <ele>134.2412109</ele>
        <time>2010-09-19T07:08:11Z</time>
      </trkpt>
      <trkpt lat="50.09753" lon="2.67359">
        <ele>134.7219238</ele>
        <time>2010-09-19T07:08:19Z</time>
      </trkpt>
      <trkpt lat="50.09762" lon="2.6729">
        <ele>135.2025146</ele>
        <time>2010-09-19T07:08:28Z</time>
      </trkpt>
      <trkpt lat="50.0977" lon="2.67236">
        <ele>135.2025146</ele>
        <time>2010-09-19T07:08:36Z</time>
      </trkpt>
      <trkpt lat="50.09772" lon="2.67218">
        <ele>135.6831055</ele>
        <time>2010-09-19T07:08:39Z</time>
      </trkpt>
      <trkpt lat="50.09787" lon="2.67158">
        <ele>137.1252441</ele>
        <time>2010-09-19T07:08:49Z</time>
      </trkpt>
      <trkpt lat="50.09803" lon="2.67093">
        <ele>139.5284424</ele>
        <time>2010-09-19T07:09:00Z</time>
      </trkpt>
      <trkpt lat="50.0982" lon="2.67023">
        <ele>142.4124756</ele>
        <time>2010-09-19T07:09:12Z</time>
      </trkpt>
      <trkpt lat="50.09831" lon="2.66992">
        <ele>141.4510498</ele>
        <time>2010-09-19T07:09:19Z</time>
      </trkpt>
      <trkpt lat="50.09848" lon="2.66987">
        <ele>139.5284424</ele>
        <time>2010-09-19T07:09:24Z</time>
      </trkpt>
      <trkpt lat="50.09878" lon="2.6698">
        <ele>137.605835</ele>
        <time>2010-09-19T07:09:32Z</time>
      </trkpt>
      <trkpt lat="50.09927" lon="2.66969">
        <ele>137.1252441</ele>
        <time>2010-09-19T07:09:45Z</time>
      </trkpt>
      <trkpt lat="50.09933" lon="2.66968">
        <ele>137.1252441</ele>
        <time>2010-09-19T07:09:47Z</time>
      </trkpt>
      <trkpt lat="50.09936" lon="2.66959">
        <ele>138.5672607</ele>
        <time>2010-09-19T07:09:51Z</time>
      </trkpt>
      <trkpt lat="50.09917" lon="2.66943">
        <ele>140.0091553</ele>
        <time>2010-09-19T07:09:57Z</time>
      </trkpt>
      <trkpt lat="50.09894" lon="2.66919">
        <ele>140.970459</ele>
        <time>2010-09-19T07:10:03Z</time>
      </trkpt>
      <trkpt lat="50.09881" lon="2.66906">
        <ele>140.970459</ele>
        <time>2010-09-19T07:10:06Z</time>
      </trkpt>
      <trkpt lat="50.09852" lon="2.66856">
        <ele>139.0478516</ele>
        <time>2010-09-19T07:10:14Z</time>
      </trkpt>
      <trkpt lat="50.09849" lon="2.6685">
        <ele>138.5672607</ele>
        <time>2010-09-19T07:10:15Z</time>
      </trkpt>
      <trkpt lat="50.09841" lon="2.66838">
        <ele>137.605835</ele>
        <time>2010-09-19T07:10:17Z</time>
      </trkpt>
      <trkpt lat="50.09813" lon="2.66809">
        <ele>137.605835</ele>
        <time>2010-09-19T07:10:24Z</time>
      </trkpt>
      <trkpt lat="50.09797" lon="2.66796">
        <ele>137.605835</ele>
        <time>2010-09-19T07:10:28Z</time>
      </trkpt>
      <trkpt lat="50.09785" lon="2.66789">
        <ele>137.1252441</ele>
        <time>2010-09-19T07:10:31Z</time>
      </trkpt>
      <trkpt lat="50.09755" lon="2.6676">
        <ele>138.5672607</ele>
        <time>2010-09-19T07:10:40Z</time>
      </trkpt>
      <trkpt lat="50.0974" lon="2.66743">
        <ele>139.0478516</ele>
        <time>2010-09-19T07:10:46Z</time>
      </trkpt>
      <trkpt lat="50.09718" lon="2.6672">
        <ele>140.0091553</ele>
        <time>2010-09-19T07:10:55Z</time>
      </trkpt>
      <trkpt lat="50.09697" lon="2.66697">
        <ele>141.4510498</ele>
        <time>2010-09-19T07:11:04Z</time>
      </trkpt>
      <trkpt lat="50.09679" lon="2.66678">
        <ele>142.4124756</ele>
        <time>2010-09-19T07:11:12Z</time>
      </trkpt>
      <trkpt lat="50.09658" lon="2.66656">
        <ele>144.3352051</ele>
        <time>2010-09-19T07:11:22Z</time>
      </trkpt>
      <trkpt lat="50.09639" lon="2.6664">
        <ele>145.2963867</ele>
        <time>2010-09-19T07:11:31Z</time>
      </trkpt>
      <trkpt lat="50.09616" lon="2.66623">
        <ele>145.7770996</ele>
        <time>2010-09-19T07:11:42Z</time>
      </trkpt>
      <trkpt lat="50.09594" lon="2.66607">
        <ele>145.2963867</ele>
        <time>2010-09-19T07:11:53Z</time>
      </trkpt>
      <trkpt lat="50.09575" lon="2.66595">
        <ele>145.7770996</ele>
        <time>2010-09-19T07:12:02Z</time>
      </trkpt>
      <trkpt lat="50.09552" lon="2.66581">
        <ele>146.7384033</ele>
        <time>2010-09-19T07:12:11Z</time>
      </trkpt>
      <trkpt lat="50.09519" lon="2.66561">
        <ele>147.699707</ele>
        <time>2010-09-19T07:12:22Z</time>
      </trkpt>
      <trkpt lat="50.09493" lon="2.66546">
        <ele>148.6610107</ele>
        <time>2010-09-19T07:12:30Z</time>
      </trkpt>
      <trkpt lat="50.09453" lon="2.66525">
        <ele>149.6223145</ele>
        <time>2010-09-19T07:12:41Z</time>
      </trkpt>
      <trkpt lat="50.09418" lon="2.66508">
        <ele>149.1416016</ele>
        <time>2010-09-19T07:12:50Z</time>
      </trkpt>
      <trkpt lat="50.09383" lon="2.66491">
        <ele>149.6223145</ele>
        <time>2010-09-19T07:12:59Z</time>
      </trkpt>
      <trkpt lat="50.09355" lon="2.66475">
        <ele>149.6223145</ele>
        <time>2010-09-19T07:13:08Z</time>
      </trkpt>
      <trkpt lat="50.09336" lon="2.66461">
        <ele>149.1416016</ele>
        <time>2010-09-19T07:13:13Z</time>
      </trkpt>
      <trkpt lat="50.09303" lon="2.66427">
        <ele>148.1804199</ele>
        <time>2010-09-19T07:13:21Z</time>
      </trkpt>
      <trkpt lat="50.09264" lon="2.66387">
        <ele>147.2189941</ele>
        <time>2010-09-19T07:13:29Z</time>
      </trkpt>
      <trkpt lat="50.09228" lon="2.66354">
        <ele>147.699707</ele>
        <time>2010-09-19T07:13:36Z</time>
      </trkpt>
      <trkpt lat="50.09175" lon="2.6631">
        <ele>147.699707</ele>
        <time>2010-09-19T07:13:46Z</time>
      </trkpt>
      <trkpt lat="50.09126" lon="2.66278">
        <ele>145.7770996</ele>
        <time>2010-09-19T07:13:54Z</time>
      </trkpt>
      <trkpt lat="50.09064" lon="2.66252">
        <ele>142.8930664</ele>
        <time>2010-09-19T07:14:03Z</time>
      </trkpt>
      <trkpt lat="50.09036" lon="2.66241">
        <ele>141.4510498</ele>
        <time>2010-09-19T07:14:07Z</time>
      </trkpt>
      <trkpt lat="50.08984" lon="2.6622">
        <ele>140.0091553</ele>
        <time>2010-09-19T07:14:14Z</time>
      </trkpt>
      <trkpt lat="50.08924" lon="2.66196">
        <ele>138.0865479</ele>
        <time>2010-09-19T07:14:22Z</time>
      </trkpt>
      <trkpt lat="50.08833" lon="2.66155">
        <ele>136.1639404</ele>
        <time>2010-09-19T07:14:34Z</time>
      </trkpt>
      <trkpt lat="50.08773" lon="2.66122">
        <ele>134.2412109</ele>
        <time>2010-09-19T07:14:42Z</time>
      </trkpt>
      <trkpt lat="50.08738" lon="2.661">
        <ele>133.760498</ele>
        <time>2010-09-19T07:14:47Z</time>
      </trkpt>
      <trkpt lat="50.08703" lon="2.66055">
        <ele>132.3186035</ele>
        <time>2010-09-19T07:14:53Z</time>
      </trkpt>
      <trkpt lat="50.08683" lon="2.66025">
        <ele>130.3959961</ele>
        <time>2010-09-19T07:14:58Z</time>
      </trkpt>
      <trkpt lat="50.0866" lon="2.65996">
        <ele>128.9541016</ele>
        <time>2010-09-19T07:15:03Z</time>
      </trkpt>
      <trkpt lat="50.08623" lon="2.65952">
        <ele>127.5119629</ele>
        <time>2010-09-19T07:15:10Z</time>
      </trkpt>
      <trkpt lat="50.08588" lon="2.65908">
        <ele>127.5119629</ele>
        <time>2010-09-19T07:15:16Z</time>
      </trkpt>
      <trkpt lat="50.08559" lon="2.65875">
        <ele>127.0313721</ele>
        <time>2010-09-19T07:15:21Z</time>
      </trkpt>
      <trkpt lat="50.08534" lon="2.65848">
        <ele>127.0313721</ele>
        <time>2010-09-19T07:15:25Z</time>
      </trkpt>
      <trkpt lat="50.08497" lon="2.65808">
        <ele>124.6280518</ele>
        <time>2010-09-19T07:15:31Z</time>
      </trkpt>
      <trkpt lat="50.08467" lon="2.65767">
        <ele>120.302124</ele>
        <time>2010-09-19T07:15:36Z</time>
      </trkpt>
      <trkpt lat="50.08427" lon="2.65698">
        <ele>111.6502686</ele>
        <time>2010-09-19T07:15:44Z</time>
      </trkpt>
      <trkpt lat="50.08403" lon="2.65658">
        <ele>107.8050537</ele>
        <time>2010-09-19T07:15:50Z</time>
      </trkpt>
      <trkpt lat="50.08395" lon="2.65645">
        <ele>107.3243408</ele>
        <time>2010-09-19T07:15:52Z</time>
      </trkpt>
      <trkpt lat="50.08373" lon="2.65634">
        <ele>108.2856445</ele>
        <time>2010-09-19T07:15:56Z</time>
      </trkpt>
      <trkpt lat="50.08362" lon="2.65637">
        <ele>109.7276611</ele>
        <time>2010-09-19T07:15:58Z</time>
      </trkpt>
      <trkpt lat="50.08322" lon="2.65662">
        <ele>110.6888428</ele>
        <time>2010-09-19T07:16:05Z</time>
      </trkpt>
      <trkpt lat="50.08299" lon="2.6569">
        <ele>110.6888428</ele>
        <time>2010-09-19T07:16:10Z</time>
      </trkpt>
      <trkpt lat="50.08275" lon="2.65751">
        <ele>110.208252</ele>
        <time>2010-09-19T07:16:18Z</time>
      </trkpt>
      <trkpt lat="50.08263" lon="2.65764">
        <ele>110.6888428</ele>
        <time>2010-09-19T07:16:22Z</time>
      </trkpt>
      <trkpt lat="50.08252" lon="2.65757">
        <ele>112.1309814</ele>
        <time>2010-09-19T07:16:26Z</time>
      </trkpt>
      <trkpt lat="50.08249" lon="2.65752">
        <ele>113.572998</ele>
        <time>2010-09-19T07:16:29Z</time>
      </trkpt>
      <trkpt lat="50.08249" lon="2.65752">
        <ele>114.0535889</ele>
        <time>2010-09-19T07:16:30Z</time>
      </trkpt>
    </trkseg>
    </trkseg>
      <trkpt lat="50.08153" lon="2.65722">
        <ele>126.5506592</ele>
        <time>2010-09-19T07:39:27Z</time>
      </trkpt>
      <trkpt lat="50.08142" lon="2.65719">
        <ele>122.7054443</ele>
        <time>2010-09-19T07:39:30Z</time>
      </trkpt>
      <trkpt lat="50.08136" lon="2.65714">
        <ele>121.2635498</ele>
        <time>2010-09-19T07:39:32Z</time>
      </trkpt>
      <trkpt lat="50.08106" lon="2.65679">
        <ele>117.8988037</ele>
        <time>2010-09-19T07:39:43Z</time>
      </trkpt>
      <trkpt lat="50.0809" lon="2.65661">
        <ele>119.8214111</ele>
        <time>2010-09-19T07:39:49Z</time>
      </trkpt>
      <trkpt lat="50.08074" lon="2.65651">
        <ele>122.7054443</ele>
        <time>2010-09-19T07:39:55Z</time>
      </trkpt>
      <trkpt lat="50.08053" lon="2.65646">
        <ele>124.6280518</ele>
        <time>2010-09-19T07:40:02Z</time>
      </trkpt>
      <trkpt lat="50.08032" lon="2.65645">
        <ele>126.0699463</ele>
        <time>2010-09-19T07:40:09Z</time>
      </trkpt>
      <trkpt lat="50.08004" lon="2.65644">
        <ele>126.5506592</ele>
        <time>2010-09-19T07:40:17Z</time>
      </trkpt>
      <trkpt lat="50.07969" lon="2.65645">
        <ele>127.0313721</ele>
        <time>2010-09-19T07:40:26Z</time>
      </trkpt>
      <trkpt lat="50.07946" lon="2.65634">
        <ele>128.9541016</ele>
        <time>2010-09-19T07:40:32Z</time>
      </trkpt>
      <trkpt lat="50.07924" lon="2.6563">
        <ele>128.4733887</ele>
        <time>2010-09-19T07:40:38Z</time>
      </trkpt>
      <trkpt lat="50.07897" lon="2.65628">
        <ele>125.1087646</ele>
        <time>2010-09-19T07:40:45Z</time>
      </trkpt>
      <trkpt lat="50.07866" lon="2.65634">
        <ele>122.7054443</ele>
        <time>2010-09-19T07:40:52Z</time>
      </trkpt>
      <trkpt lat="50.07846" lon="2.65633">
        <ele>120.302124</ele>
        <time>2010-09-19T07:40:56Z</time>
      </trkpt>
      <trkpt lat="50.07819" lon="2.65623">
        <ele>117.8988037</ele>
        <time>2010-09-19T07:41:02Z</time>
      </trkpt>
      <trkpt lat="50.07792" lon="2.65603">
        <ele>112.6115723</ele>
        <time>2010-09-19T07:41:08Z</time>
      </trkpt>
      <trkpt lat="50.07788" lon="2.65599">
        <ele>112.1309814</ele>
        <time>2010-09-19T07:41:09Z</time>
      </trkpt>
      <trkpt lat="50.07777" lon="2.65573">
        <ele>112.1309814</ele>
        <time>2010-09-19T07:41:13Z</time>
      </trkpt>
      <trkpt lat="50.07773" lon="2.65563">
        <ele>112.1309814</ele>
        <time>2010-09-19T07:41:15Z</time>
      </trkpt>
      <trkpt lat="50.07764" lon="2.65548">
        <ele>113.572998</ele>
        <time>2010-09-19T07:41:21Z</time>
      </trkpt>
      <trkpt lat="50.07757" lon="2.65553">
        <ele>115.9761963</ele>
        <time>2010-09-19T07:41:25Z</time>
      </trkpt>
      <trkpt lat="50.07744" lon="2.65559">
        <ele>117.4182129</ele>
        <time>2010-09-19T07:41:31Z</time>
      </trkpt>
      <trkpt lat="50.07725" lon="2.65572">
        <ele>121.7441406</ele>
        <time>2010-09-19T07:41:40Z</time>
      </trkpt>
      <trkpt lat="50.0771" lon="2.65581">
        <ele>123.666748</ele>
        <time>2010-09-19T07:41:48Z</time>
      </trkpt>
      <trkpt lat="50.07699" lon="2.65589">
        <ele>124.1473389</ele>
        <time>2010-09-19T07:41:58Z</time>
      </trkpt>
      <trkpt lat="50.07692" lon="2.65594">
        <ele>125.5893555</ele>
        <time>2010-09-19T07:42:04Z</time>
      </trkpt>
      <trkpt lat="50.07687" lon="2.65597">
        <ele>126.5506592</ele>
        <time>2010-09-19T07:42:09Z</time>
      </trkpt>
      <trkpt lat="50.07684" lon="2.65598">
        <ele>127.5119629</ele>
        <time>2010-09-19T07:42:14Z</time>
      </trkpt>
      <trkpt lat="50.07666" lon="2.65608">
        <ele>129.4346924</ele>
        <time>2010-09-19T07:42:42Z</time>
      </trkpt>
      <trkpt lat="50.07664" lon="2.65609">
        <ele>129.9152832</ele>
        <time>2010-09-19T07:42:43Z</time>
      </trkpt>
      <trkpt lat="50.07646" lon="2.65618">
        <ele>131.8378906</ele>
        <time>2010-09-19T07:42:54Z</time>
      </trkpt>
      <trkpt lat="50.07628" lon="2.65625">
        <ele>133.760498</ele>
        <time>2010-09-19T07:43:05Z</time>
      </trkpt>
      <trkpt lat="50.07616" lon="2.6563">
        <ele>134.2412109</ele>
        <time>2010-09-19T07:43:12Z</time>
      </trkpt>
      <trkpt lat="50.07602" lon="2.65635">
        <ele>135.2025146</ele>
        <time>2010-09-19T07:43:18Z</time>
      </trkpt>
      <trkpt lat="50.0758" lon="2.65641">
        <ele>136.6446533</ele>
        <time>2010-09-19T07:43:27Z</time>
      </trkpt>
      <trkpt lat="50.07563" lon="2.65648">
        <ele>137.605835</ele>
        <time>2010-09-19T07:43:33Z</time>
      </trkpt>
      <trkpt lat="50.07543" lon="2.65655">
        <ele>139.0478516</ele>
        <time>2010-09-19T07:43:39Z</time>
      </trkpt>
      <trkpt lat="50.07498" lon="2.65669">
        <ele>141.9317627</ele>
        <time>2010-09-19T07:43:51Z</time>
      </trkpt>
      <trkpt lat="50.07458" lon="2.65677">
        <ele>144.3352051</ele>
        <time>2010-09-19T07:44:02Z</time>
      </trkpt>
      <trkpt lat="50.07426" lon="2.65675">
        <ele>146.2578125</ele>
        <time>2010-09-19T07:44:11Z</time>
      </trkpt>
      <trkpt lat="50.07384" lon="2.6567">
        <ele>147.699707</ele>
        <time>2010-09-19T07:44:22Z</time>
      </trkpt>
      <trkpt lat="50.07347" lon="2.65662">
        <ele>147.699707</ele>
        <time>2010-09-19T07:44:31Z</time>
      </trkpt>
      <trkpt lat="50.07299" lon="2.65656">
        <ele>147.2189941</ele>
        <time>2010-09-19T07:44:41Z</time>
      </trkpt>
      <trkpt lat="50.07289" lon="2.65655">
        <ele>146.7384033</ele>
        <time>2010-09-19T07:44:43Z</time>
      </trkpt>
      <trkpt lat="50.07281" lon="2.65671">
        <ele>146.2578125</ele>
        <time>2010-09-19T07:44:47Z</time>
      </trkpt>
      <trkpt lat="50.07282" lon="2.65679">
        <ele>146.2578125</ele>
        <time>2010-09-19T07:44:48Z</time>
      </trkpt>
      <trkpt lat="50.07294" lon="2.65761">
        <ele>145.2963867</ele>
        <time>2010-09-19T07:44:59Z</time>
      </trkpt>
      <trkpt lat="50.07303" lon="2.65825">
        <ele>144.8157959</ele>
        <time>2010-09-19T07:45:08Z</time>
      </trkpt>
      <trkpt lat="50.07313" lon="2.65896">
        <ele>144.3352051</ele>
        <time>2010-09-19T07:45:18Z</time>
      </trkpt>
      <trkpt lat="50.07321" lon="2.65956">
        <ele>142.8930664</ele>
        <time>2010-09-19T07:45:26Z</time>
      </trkpt>
      <trkpt lat="50.07331" lon="2.66032">
        <ele>141.9317627</ele>
        <time>2010-09-19T07:45:35Z</time>
      </trkpt>
      <trkpt lat="50.0734" lon="2.66102">
        <ele>140.4898682</ele>
        <time>2010-09-19T07:45:43Z</time>
      </trkpt>
      <trkpt lat="50.07347" lon="2.66155">
        <ele>139.5284424</ele>
        <time>2010-09-19T07:45:49Z</time>
      </trkpt>
      <trkpt lat="50.07357" lon="2.66231">
        <ele>137.605835</ele>
        <time>2010-09-19T07:45:58Z</time>
      </trkpt>
      <trkpt lat="50.07369" lon="2.66317">
        <ele>135.6831055</ele>
        <time>2010-09-19T07:46:08Z</time>
      </trkpt>
      <trkpt lat="50.07376" lon="2.66368">
        <ele>135.2025146</ele>
        <time>2010-09-19T07:46:15Z</time>
      </trkpt>
      <trkpt lat="50.07374" lon="2.66385">
        <ele>135.2025146</ele>
        <time>2010-09-19T07:46:19Z</time>
      </trkpt>
      <trkpt lat="50.07354" lon="2.66409">
        <ele>135.6831055</ele>
        <time>2010-09-19T07:46:26Z</time>
      </trkpt>
      <trkpt lat="50.07336" lon="2.66429">
        <ele>135.2025146</ele>
        <time>2010-09-19T07:46:31Z</time>
      </trkpt>
      <trkpt lat="50.07304" lon="2.66457">
        <ele>134.7219238</ele>
        <time>2010-09-19T07:46:38Z</time>
      </trkpt>
      <trkpt lat="50.07275" lon="2.66473">
        <ele>133.2799072</ele>
        <time>2010-09-19T07:46:44Z</time>
      </trkpt>
      <trkpt lat="50.07231" lon="2.66496">
        <ele>131.3572998</ele>
        <time>2010-09-19T07:46:52Z</time>
      </trkpt>
      <trkpt lat="50.07197" lon="2.66518">
        <ele>128.9541016</ele>
        <time>2010-09-19T07:46:58Z</time>
      </trkpt>
      <trkpt lat="50.07156" lon="2.66544">
        <ele>125.5893555</ele>
        <time>2010-09-19T07:47:05Z</time>
      </trkpt>
      <trkpt lat="50.07116" lon="2.66555">
        <ele>122.2247314</ele>
        <time>2010-09-19T07:47:11Z</time>
      </trkpt>
      <trkpt lat="50.0711" lon="2.66558">
        <ele>121.2635498</ele>
        <time>2010-09-19T07:47:12Z</time>
      </trkpt>
      <trkpt lat="50.07083" lon="2.66581">
        <ele>119.3408203</ele>
        <time>2010-09-19T07:47:17Z</time>
      </trkpt>
      <trkpt lat="50.07044" lon="2.66631">
        <ele>115.9761963</ele>
        <time>2010-09-19T07:47:26Z</time>
      </trkpt>
      <trkpt lat="50.07007" lon="2.66676">
        <ele>112.6115723</ele>
        <time>2010-09-19T07:47:33Z</time>
      </trkpt>
      <trkpt lat="50.06969" lon="2.66711">
        <ele>108.7662354</ele>
        <time>2010-09-19T07:47:39Z</time>
      </trkpt>
      <trkpt lat="50.06941" lon="2.66732">
        <ele>105.8824463</ele>
        <time>2010-09-19T07:47:43Z</time>
      </trkpt>
      <trkpt lat="50.06919" lon="2.66767">
        <ele>103.4790039</ele>
        <time>2010-09-19T07:47:47Z</time>
      </trkpt>
      <trkpt lat="50.06892" lon="2.66829">
        <ele>99.6337891</ele>
        <time>2010-09-19T07:47:53Z</time>
      </trkpt>
      <trkpt lat="50.06872" lon="2.6685">
        <ele>96.7498779</ele>
        <time>2010-09-19T07:47:57Z</time>
      </trkpt>
      <trkpt lat="50.06851" lon="2.66846">
        <ele>94.8271484</ele>
        <time>2010-09-19T07:48:00Z</time>
      </trkpt>
      <trkpt lat="50.06844" lon="2.66841">
        <ele>94.3465576</ele>
        <time>2010-09-19T07:48:01Z</time>
      </trkpt>
      <trkpt lat="50.06809" lon="2.66819">
        <ele>91.4625244</ele>
        <time>2010-09-19T07:48:06Z</time>
      </trkpt>
      <trkpt lat="50.06786" lon="2.66807">
        <ele>90.0206299</ele>
        <time>2010-09-19T07:48:11Z</time>
      </trkpt>
      <trkpt lat="50.06766" lon="2.66791">
        <ele>89.0593262</ele>
        <time>2010-09-19T07:48:17Z</time>
      </trkpt>
      <trkpt lat="50.0674" lon="2.66767">
        <ele>88.0980225</ele>
        <time>2010-09-19T07:48:22Z</time>
      </trkpt>
      <trkpt lat="50.06722" lon="2.66749">
        <ele>88.0980225</ele>
        <time>2010-09-19T07:48:25Z</time>
      </trkpt>
      <trkpt lat="50.06696" lon="2.66725">
        <ele>87.1365967</ele>
        <time>2010-09-19T07:48:29Z</time>
      </trkpt>
      <trkpt lat="50.06672" lon="2.66702">
        <ele>87.6171875</ele>
        <time>2010-09-19T07:48:33Z</time>
      </trkpt>
      <trkpt lat="50.06634" lon="2.66662">
        <ele>85.6945801</ele>
        <time>2010-09-19T07:48:40Z</time>
      </trkpt>
      <trkpt lat="50.06624" lon="2.66652">
        <ele>85.6945801</ele>
        <time>2010-09-19T07:48:42Z</time>
      </trkpt>
      <trkpt lat="50.06612" lon="2.66644">
        <ele>85.2139893</ele>
        <time>2010-09-19T07:48:45Z</time>
      </trkpt>
      <trkpt lat="50.06602" lon="2.66647">
        <ele>85.2139893</ele>
        <time>2010-09-19T07:48:49Z</time>
      </trkpt>
      <trkpt lat="50.06595" lon="2.66667">
        <ele>85.2139893</ele>
        <time>2010-09-19T07:48:54Z</time>
      </trkpt>
      <trkpt lat="50.06594" lon="2.66673">
        <ele>84.7333984</ele>
        <time>2010-09-19T07:48:55Z</time>
      </trkpt>
      <trkpt lat="50.06586" lon="2.66716">
        <ele>83.2913818</ele>
        <time>2010-09-19T07:49:00Z</time>
      </trkpt>
      <trkpt lat="50.06554" lon="2.66767">
        <ele>81.3687744</ele>
        <time>2010-09-19T07:49:06Z</time>
      </trkpt>
      <trkpt lat="50.06514" lon="2.66818">
        <ele>82.3300781</ele>
        <time>2010-09-19T07:49:13Z</time>
      </trkpt>
      <trkpt lat="50.06481" lon="2.66858">
        <ele>83.7719727</ele>
        <time>2010-09-19T07:49:20Z</time>
      </trkpt>
      <trkpt lat="50.06442" lon="2.66908">
        <ele>83.7719727</ele>
        <time>2010-09-19T07:49:29Z</time>
      </trkpt>
      <trkpt lat="50.06427" lon="2.66926">
        <ele>83.7719727</ele>
        <time>2010-09-19T07:49:33Z</time>
      </trkpt>
      <trkpt lat="50.06406" lon="2.66952">
        <ele>84.2526855</ele>
        <time>2010-09-19T07:49:39Z</time>
      </trkpt>
      <trkpt lat="50.06381" lon="2.66985">
        <ele>83.7719727</ele>
        <time>2010-09-19T07:49:48Z</time>
      </trkpt>
      <trkpt lat="50.06371" lon="2.66995">
        <ele>83.7719727</ele>
        <time>2010-09-19T07:49:53Z</time>
      </trkpt>
      <trkpt lat="50.06354" lon="2.66986">
        <ele>82.3300781</ele>
        <time>2010-09-19T07:49:58Z</time>
      </trkpt>
      <trkpt lat="50.06329" lon="2.66974">
        <ele>81.3687744</ele>
        <time>2010-09-19T07:50:04Z</time>
      </trkpt>
      <trkpt lat="50.06311" lon="2.66961">
        <ele>80.8881836</ele>
        <time>2010-09-19T07:50:09Z</time>
      </trkpt>
      <trkpt lat="50.06282" lon="2.66956">
        <ele>80.8881836</ele>
        <time>2010-09-19T07:50:16Z</time>
      </trkpt>
      <trkpt lat="50.06244" lon="2.66956">
        <ele>80.8881836</ele>
        <time>2010-09-19T07:50:24Z</time>
      </trkpt>
      <trkpt lat="50.06235" lon="2.66958">
        <ele>80.4074707</ele>
        <time>2010-09-19T07:50:26Z</time>
      </trkpt>
      <trkpt lat="50.06216" lon="2.66965">
        <ele>81.3687744</ele>
        <time>2010-09-19T07:50:31Z</time>
      </trkpt>
      <trkpt lat="50.06197" lon="2.66981">
        <ele>82.3300781</ele>
        <time>2010-09-19T07:50:36Z</time>
      </trkpt>
      <trkpt lat="50.06179" lon="2.67008">
        <ele>81.3687744</ele>
        <time>2010-09-19T07:50:42Z</time>
      </trkpt>
      <trkpt lat="50.06164" lon="2.67024">
        <ele>79.9266357</ele>
        <time>2010-09-19T07:50:46Z</time>
      </trkpt>
      <trkpt lat="50.0615" lon="2.67041">
        <ele>82.3300781</ele>
        <time>2010-09-19T07:50:51Z</time>
      </trkpt>
      <trkpt lat="50.06139" lon="2.67057">
        <ele>83.2913818</ele>
        <time>2010-09-19T07:50:55Z</time>
      </trkpt>
      <trkpt lat="50.06134" lon="2.67062">
        <ele>84.2526855</ele>
        <time>2010-09-19T07:50:57Z</time>
      </trkpt>
      <trkpt lat="50.06114" lon="2.67082">
        <ele>81.8493652</ele>
        <time>2010-09-19T07:51:04Z</time>
      </trkpt>
      <trkpt lat="50.06104" lon="2.67093">
        <ele>80.4074707</ele>
        <time>2010-09-19T07:51:08Z</time>
      </trkpt>
      <trkpt lat="50.06091" lon="2.67108">
        <ele>80.4074707</ele>
        <time>2010-09-19T07:51:12Z</time>
      </trkpt>
      <trkpt lat="50.06077" lon="2.67124">
        <ele>80.8881836</ele>
        <time>2010-09-19T07:51:17Z</time>
      </trkpt>
      <trkpt lat="50.06061" lon="2.67144">
        <ele>84.7333984</ele>
        <time>2010-09-19T07:51:22Z</time>
      </trkpt>
      <trkpt lat="50.06048" lon="2.67163">
        <ele>86.6560059</ele>
        <time>2010-09-19T07:51:26Z</time>
      </trkpt>
      <trkpt lat="50.06039" lon="2.67176">
        <ele>88.5787354</ele>
        <time>2010-09-19T07:51:29Z</time>
      </trkpt>
      <trkpt lat="50.06013" lon="2.67196">
        <ele>92.904541</ele>
        <time>2010-09-19T07:51:35Z</time>
      </trkpt>
      <trkpt lat="50.06007" lon="2.67201">
        <ele>93.8658447</ele>
        <time>2010-09-19T07:51:37Z</time>
      </trkpt>
      <trkpt lat="50.05992" lon="2.67212">
        <ele>93.8658447</ele>
        <time>2010-09-19T07:51:41Z</time>
      </trkpt>
      <trkpt lat="50.05986" lon="2.6722">
        <ele>92.4239502</ele>
        <time>2010-09-19T07:51:43Z</time>
      </trkpt>
      <trkpt lat="50.05972" lon="2.67233">
        <ele>90.5013428</ele>
        <time>2010-09-19T07:51:47Z</time>
      </trkpt>
      <trkpt lat="50.05961" lon="2.67247">
        <ele>85.2139893</ele>
        <time>2010-09-19T07:51:50Z</time>
      </trkpt>
      <trkpt lat="50.05945" lon="2.67258">
        <ele>84.7333984</ele>
        <time>2010-09-19T07:51:54Z</time>
      </trkpt>
      <trkpt lat="50.05915" lon="2.67276">
        <ele>87.1365967</ele>
        <time>2010-09-19T07:52:01Z</time>
      </trkpt>
      <trkpt lat="50.05894" lon="2.67288">
        <ele>88.0980225</ele>
        <time>2010-09-19T07:52:06Z</time>
      </trkpt>
      <trkpt lat="50.05886" lon="2.67293">
        <ele>89.0593262</ele>
        <time>2010-09-19T07:52:08Z</time>
      </trkpt>
      <trkpt lat="50.05863" lon="2.67306">
        <ele>88.5787354</ele>
        <time>2010-09-19T07:52:13Z</time>
      </trkpt>
      <trkpt lat="50.05838" lon="2.67315">
        <ele>88.0980225</ele>
        <time>2010-09-19T07:52:18Z</time>
      </trkpt>
      <trkpt lat="50.05808" lon="2.67319">
        <ele>84.7333984</ele>
        <time>2010-09-19T07:52:24Z</time>
      </trkpt>
      <trkpt lat="50.05789" lon="2.67319">
        <ele>82.810791</ele>
        <time>2010-09-19T07:52:28Z</time>
      </trkpt>
      <trkpt lat="50.0577" lon="2.67312">
        <ele>80.8881836</ele>
        <time>2010-09-19T07:52:33Z</time>
      </trkpt>
      <trkpt lat="50.05752" lon="2.67304">
        <ele>79.4460449</ele>
        <time>2010-09-19T07:52:37Z</time>
      </trkpt>
      <trkpt lat="50.05736" lon="2.67294">
        <ele>77.5234375</ele>
        <time>2010-09-19T07:52:41Z</time>
      </trkpt>
      <trkpt lat="50.05718" lon="2.6728">
        <ele>77.5234375</ele>
        <time>2010-09-19T07:52:45Z</time>
      </trkpt>
      <trkpt lat="50.05699" lon="2.67254">
        <ele>81.8493652</ele>
        <time>2010-09-19T07:52:50Z</time>
      </trkpt>
      <trkpt lat="50.0568" lon="2.6723">
        <ele>84.7333984</ele>
        <time>2010-09-19T07:52:55Z</time>
      </trkpt>
      <trkpt lat="50.0567" lon="2.67214">
        <ele>87.6171875</ele>
        <time>2010-09-19T07:52:58Z</time>
      </trkpt>
      <trkpt lat="50.05654" lon="2.67192">
        <ele>91.9432373</ele>
        <time>2010-09-19T07:53:03Z</time>
      </trkpt>
      <trkpt lat="50.0565" lon="2.67188">
        <ele>93.3851318</ele>
        <time>2010-09-19T07:53:04Z</time>
      </trkpt>
      <trkpt lat="50.05634" lon="2.67161">
        <ele>97.7111816</ele>
        <time>2010-09-19T07:53:09Z</time>
      </trkpt>
      <trkpt lat="50.05617" lon="2.67131">
        <ele>96.2692871</ele>
        <time>2010-09-19T07:53:16Z</time>
      </trkpt>
      <trkpt lat="50.05604" lon="2.67105">
        <ele>95.7884521</ele>
        <time>2010-09-19T07:53:21Z</time>
      </trkpt>
      <trkpt lat="50.05594" lon="2.67083">
        <ele>93.8658447</ele>
        <time>2010-09-19T07:53:25Z</time>
      </trkpt>
      <trkpt lat="50.05579" lon="2.6706">
        <ele>98.1918945</ele>
        <time>2010-09-19T07:53:29Z</time>
      </trkpt>
      <trkpt lat="50.0556" lon="2.67032">
        <ele>102.5177002</ele>
        <time>2010-09-19T07:53:34Z</time>
      </trkpt>
      <trkpt lat="50.05555" lon="2.67024">
        <ele>101.5563965</ele>
        <time>2010-09-19T07:53:36Z</time>
      </trkpt>
      <trkpt lat="50.05542" lon="2.67004">
        <ele>101.0756836</ele>
        <time>2010-09-19T07:53:41Z</time>
      </trkpt>
      <trkpt lat="50.0553" lon="2.66978">
        <ele>101.0756836</ele>
        <time>2010-09-19T07:53:46Z</time>
      </trkpt>
      <trkpt lat="50.05529" lon="2.66965">
        <ele>99.6337891</ele>
        <time>2010-09-19T07:53:48Z</time>
      </trkpt>
      <trkpt lat="50.05522" lon="2.66947">
        <ele>99.1530762</ele>
        <time>2010-09-19T07:53:51Z</time>
      </trkpt>
      <trkpt lat="50.05507" lon="2.66934">
        <ele>97.7111816</ele>
        <time>2010-09-19T07:53:55Z</time>
      </trkpt>
      <trkpt lat="50.05467" lon="2.66929">
        <ele>93.3851318</ele>
        <time>2010-09-19T07:54:03Z</time>
      </trkpt>
      <trkpt lat="50.0544" lon="2.66925">
        <ele>91.4625244</ele>
        <time>2010-09-19T07:54:08Z</time>
      </trkpt>
      <trkpt lat="50.05401" lon="2.66921">
        <ele>89.0593262</ele>
        <time>2010-09-19T07:54:15Z</time>
      </trkpt>
      <trkpt lat="50.05361" lon="2.66924">
        <ele>87.6171875</ele>
        <time>2010-09-19T07:54:22Z</time>
      </trkpt>
      <trkpt lat="50.05318" lon="2.66941">
        <ele>84.7333984</ele>
        <time>2010-09-19T07:54:30Z</time>
      </trkpt>
      <trkpt lat="50.05292" lon="2.66954">
        <ele>83.2913818</ele>
        <time>2010-09-19T07:54:35Z</time>
      </trkpt>
      <trkpt lat="50.0526" lon="2.66987">
        <ele>82.3300781</ele>
        <time>2010-09-19T07:54:42Z</time>
      </trkpt>
      <trkpt lat="50.05229" lon="2.67019">
        <ele>83.7719727</ele>
        <time>2010-09-19T07:54:49Z</time>
      </trkpt>
      <trkpt lat="50.05188" lon="2.67037">
        <ele>84.7333984</ele>
        <time>2010-09-19T07:54:57Z</time>
      </trkpt>
      <trkpt lat="50.05156" lon="2.67044">
        <ele>86.175293</ele>
        <time>2010-09-19T07:55:04Z</time>
      </trkpt>
      <trkpt lat="50.05131" lon="2.67046">
        <ele>86.6560059</ele>
        <time>2010-09-19T07:55:09Z</time>
      </trkpt>
      <trkpt lat="50.05091" lon="2.67063">
        <ele>87.1365967</ele>
        <time>2010-09-19T07:55:17Z</time>
      </trkpt>
      <trkpt lat="50.05045" lon="2.67089">
        <ele>86.6560059</ele>
        <time>2010-09-19T07:55:26Z</time>
      </trkpt>
      <trkpt lat="50.05013" lon="2.67108">
        <ele>86.175293</ele>
        <time>2010-09-19T07:55:32Z</time>
      </trkpt>
      <trkpt lat="50.04974" lon="2.67121">
        <ele>85.6945801</ele>
        <time>2010-09-19T07:55:40Z</time>
      </trkpt>
      <trkpt lat="50.04937" lon="2.67131">
        <ele>87.1365967</ele>
        <time>2010-09-19T07:55:48Z</time>
      </trkpt>
      <trkpt lat="50.04933" lon="2.67132">
        <ele>87.1365967</ele>
        <time>2010-09-19T07:55:49Z</time>
      </trkpt>
      <trkpt lat="50.04906" lon="2.6714">
        <ele>89.0593262</ele>
        <time>2010-09-19T07:55:56Z</time>
      </trkpt>
      <trkpt lat="50.04897" lon="2.67142">
        <ele>89.539917</ele>
        <time>2010-09-19T07:55:59Z</time>
      </trkpt>
      <trkpt lat="50.04894" lon="2.67136">
        <ele>89.0593262</ele>
        <time>2010-09-19T07:56:04Z</time>
      </trkpt>
      <trkpt lat="50.04897" lon="2.67123">
        <ele>86.6560059</ele>
        <time>2010-09-19T07:56:08Z</time>
      </trkpt>
      <trkpt lat="50.04892" lon="2.67111">
        <ele>84.7333984</ele>
        <time>2010-09-19T07:56:12Z</time>
      </trkpt>
      <trkpt lat="50.04882" lon="2.67092">
        <ele>82.3300781</ele>
        <time>2010-09-19T07:56:18Z</time>
      </trkpt>
      <trkpt lat="50.04859" lon="2.67089">
        <ele>84.2526855</ele>
        <time>2010-09-19T07:56:24Z</time>
      </trkpt>
      <trkpt lat="50.04836" lon="2.67091">
        <ele>85.2139893</ele>
        <time>2010-09-19T07:56:29Z</time>
      </trkpt>
      <trkpt lat="50.04827" lon="2.67092">
        <ele>84.2526855</ele>
        <time>2010-09-19T07:56:31Z</time>
      </trkpt>
      <trkpt lat="50.04818" lon="2.67095">
        <ele>83.7719727</ele>
        <time>2010-09-19T07:56:33Z</time>
      </trkpt>
      <trkpt lat="50.04795" lon="2.67094">
        <ele>83.7719727</ele>
        <time>2010-09-19T07:56:39Z</time>
      </trkpt>
      <trkpt lat="50.04777" lon="2.67094">
        <ele>83.2913818</ele>
        <time>2010-09-19T07:56:45Z</time>
      </trkpt>
      <trkpt lat="50.04763" lon="2.67091">
        <ele>82.810791</ele>
        <time>2010-09-19T07:56:51Z</time>
      </trkpt>
      <trkpt lat="50.04739" lon="2.67087">
        <ele>82.3300781</ele>
        <time>2010-09-19T07:56:58Z</time>
      </trkpt>
      <trkpt lat="50.04718" lon="2.67082">
        <ele>81.3687744</ele>
        <time>2010-09-19T07:57:04Z</time>
      </trkpt>
      <trkpt lat="50.04686" lon="2.67072">
        <ele>80.4074707</ele>
        <time>2010-09-19T07:57:12Z</time>
      </trkpt>
      <trkpt lat="50.04653" lon="2.67061">
        <ele>80.8881836</ele>
        <time>2010-09-19T07:57:20Z</time>
      </trkpt>
      <trkpt lat="50.0462" lon="2.6705">
        <ele>80.4074707</ele>
        <time>2010-09-19T07:57:28Z</time>
      </trkpt>
      <trkpt lat="50.04612" lon="2.67047">
        <ele>81.3687744</ele>
        <time>2010-09-19T07:57:30Z</time>
      </trkpt>
      <trkpt lat="50.04582" lon="2.67027">
        <ele>81.8493652</ele>
        <time>2010-09-19T07:57:38Z</time>
      </trkpt>
      <trkpt lat="50.04578" lon="2.67024">
        <ele>82.3300781</ele>
        <time>2010-09-19T07:57:39Z</time>
      </trkpt>
      <trkpt lat="50.04577" lon="2.67013">
        <ele>82.3300781</ele>
        <time>2010-09-19T07:57:43Z</time>
      </trkpt>
      <trkpt lat="50.04583" lon="2.66995">
        <ele>81.8493652</ele>
        <time>2010-09-19T07:57:47Z</time>
      </trkpt>
      <trkpt lat="50.04592" lon="2.66964">
        <ele>81.3687744</ele>
        <time>2010-09-19T07:57:52Z</time>
      </trkpt>
      <trkpt lat="50.04597" lon="2.66949">
        <ele>80.8881836</ele>
        <time>2010-09-19T07:57:54Z</time>
      </trkpt>
      <trkpt lat="50.04609" lon="2.6691">
        <ele>80.8881836</ele>
        <time>2010-09-19T07:57:59Z</time>
      </trkpt>
      <trkpt lat="50.04621" lon="2.66872">
        <ele>79.4460449</ele>
        <time>2010-09-19T07:58:04Z</time>
      </trkpt>
      <trkpt lat="50.04625" lon="2.66858">
        <ele>78.9654541</ele>
        <time>2010-09-19T07:58:06Z</time>
      </trkpt>
      <trkpt lat="50.04633" lon="2.66831">
        <ele>79.4460449</ele>
        <time>2010-09-19T07:58:10Z</time>
      </trkpt>
      <trkpt lat="50.04645" lon="2.66787">
        <ele>81.3687744</ele>
        <time>2010-09-19T07:58:16Z</time>
      </trkpt>
      <trkpt lat="50.04657" lon="2.66744">
        <ele>78.4847412</ele>
        <time>2010-09-19T07:58:23Z</time>
      </trkpt>
      <trkpt lat="50.04659" lon="2.66739">
        <ele>78.0040283</ele>
        <time>2010-09-19T07:58:24Z</time>
      </trkpt>
      <trkpt lat="50.04659" lon="2.66727">
        <ele>76.0814209</ele>
        <time>2010-09-19T07:58:28Z</time>
      </trkpt>
      <trkpt lat="50.04653" lon="2.66724">
        <ele>77.0428467</ele>
        <time>2010-09-19T07:58:30Z</time>
      </trkpt>
      <trkpt lat="50.04627" lon="2.66715">
        <ele>74.6395264</ele>
        <time>2010-09-19T07:58:37Z</time>
      </trkpt>
      <trkpt lat="50.04609" lon="2.66707">
        <ele>77.5234375</ele>
        <time>2010-09-19T07:58:41Z</time>
      </trkpt>
      <trkpt lat="50.04591" lon="2.66701">
        <ele>80.4074707</ele>
        <time>2010-09-19T07:58:45Z</time>
      </trkpt>
      <trkpt lat="50.0458" lon="2.66695">
        <ele>80.8881836</ele>
        <time>2010-09-19T07:58:49Z</time>
      </trkpt>
      <trkpt lat="50.04579" lon="2.6669">
        <ele>80.8881836</ele>
        <time>2010-09-19T07:58:51Z</time>
      </trkpt>
      <trkpt lat="50.04586" lon="2.66664">
        <ele>78.4847412</ele>
        <time>2010-09-19T07:58:58Z</time>
      </trkpt>
      <trkpt lat="50.04585" lon="2.66657">
        <ele>79.9266357</ele>
        <time>2010-09-19T07:59:01Z</time>
      </trkpt>
      <trkpt lat="50.04585" lon="2.66657">
        <ele>79.4460449</ele>
        <time>2010-09-19T07:59:03Z</time>
      </trkpt>
      <trkpt lat="50.04593" lon="2.66652">
        <ele>66.9489746</ele>
        <time>2010-09-19T08:05:11Z</time>
      </trkpt>
      <trkpt lat="50.04594" lon="2.66648">
        <ele>67.9102783</ele>
        <time>2010-09-19T08:05:12Z</time>
      </trkpt>
      <trkpt lat="50.046" lon="2.66619">
        <ele>70.3134766</ele>
        <time>2010-09-19T08:05:16Z</time>
      </trkpt>
      <trkpt lat="50.04608" lon="2.66577">
        <ele>70.3134766</ele>
        <time>2010-09-19T08:05:22Z</time>
      </trkpt>
      <trkpt lat="50.04609" lon="2.66525">
        <ele>72.7169189</ele>
        <time>2010-09-19T08:05:28Z</time>
      </trkpt>
      <trkpt lat="50.04608" lon="2.6649">
        <ele>73.6782227</ele>
        <time>2010-09-19T08:05:32Z</time>
      </trkpt>
      <trkpt lat="50.04607" lon="2.66455">
        <ele>75.1202393</ele>
        <time>2010-09-19T08:05:36Z</time>
      </trkpt>
      <trkpt lat="50.04607" lon="2.66423">
        <ele>76.5621338</ele>
        <time>2010-09-19T08:05:40Z</time>
      </trkpt>
      <trkpt lat="50.04611" lon="2.66375">
        <ele>78.4847412</ele>
        <time>2010-09-19T08:05:46Z</time>
      </trkpt>
      <trkpt lat="50.04617" lon="2.66347">
        <ele>79.9266357</ele>
        <time>2010-09-19T08:05:50Z</time>
      </trkpt>
      <trkpt lat="50.04634" lon="2.66323">
        <ele>81.3687744</ele>
        <time>2010-09-19T08:05:55Z</time>
      </trkpt>
      <trkpt lat="50.04652" lon="2.66322">
        <ele>81.8493652</ele>
        <time>2010-09-19T08:05:59Z</time>
      </trkpt>
      <trkpt lat="50.04661" lon="2.66326">
        <ele>82.3300781</ele>
        <time>2010-09-19T08:06:01Z</time>
      </trkpt>
      <trkpt lat="50.04684" lon="2.66338">
        <ele>83.7719727</ele>
        <time>2010-09-19T08:06:07Z</time>
      </trkpt>
      <trkpt lat="50.04702" lon="2.66335">
        <ele>85.2139893</ele>
        <time>2010-09-19T08:06:12Z</time>
      </trkpt>
      <trkpt lat="50.0471" lon="2.66315">
        <ele>84.7333984</ele>
        <time>2010-09-19T08:06:16Z</time>
      </trkpt>
      <trkpt lat="50.04717" lon="2.66242">
        <ele>85.2139893</ele>
        <time>2010-09-19T08:06:27Z</time>
      </trkpt>
      <trkpt lat="50.04711" lon="2.66214">
        <ele>86.175293</ele>
        <time>2010-09-19T08:06:32Z</time>
      </trkpt>
      <trkpt lat="50.04699" lon="2.66185">
        <ele>89.0593262</ele>
        <time>2010-09-19T08:06:38Z</time>
      </trkpt>
      <trkpt lat="50.04698" lon="2.66179">
        <ele>89.539917</ele>
        <time>2010-09-19T08:06:39Z</time>
      </trkpt>
      <trkpt lat="50.04702" lon="2.66145">
        <ele>92.904541</ele>
        <time>2010-09-19T08:06:46Z</time>
      </trkpt>
      <trkpt lat="50.04719" lon="2.66112">
        <ele>95.7884521</ele>
        <time>2010-09-19T08:06:55Z</time>
      </trkpt>
      <trkpt lat="50.04739" lon="2.66076">
        <ele>99.6337891</ele>
        <time>2010-09-19T08:07:05Z</time>
      </trkpt>
      <trkpt lat="50.04756" lon="2.66043">
        <ele>102.998291</ele>
        <time>2010-09-19T08:07:14Z</time>
      </trkpt>
      <trkpt lat="50.04778" lon="2.66">
        <ele>107.3243408</ele>
        <time>2010-09-19T08:07:26Z</time>
      </trkpt>
      <trkpt lat="50.04799" lon="2.65958">
        <ele>110.6888428</ele>
        <time>2010-09-19T08:07:37Z</time>
      </trkpt>
      <trkpt lat="50.04823" lon="2.65914">
        <ele>113.572998</ele>
        <time>2010-09-19T08:07:49Z</time>
      </trkpt>
      <trkpt lat="50.04845" lon="2.65884">
        <ele>115.4956055</ele>
        <time>2010-09-19T08:07:59Z</time>
      </trkpt>
      <trkpt lat="50.04866" lon="2.65859">
        <ele>117.4182129</ele>
        <time>2010-09-19T08:08:08Z</time>
      </trkpt>
      <trkpt lat="50.04892" lon="2.65829">
        <ele>119.3408203</ele>
        <time>2010-09-19T08:08:19Z</time>
      </trkpt>
      <trkpt lat="50.04916" lon="2.65798">
        <ele>121.2635498</ele>
        <time>2010-09-19T08:08:30Z</time>
      </trkpt>
      <trkpt lat="50.04934" lon="2.65764">
        <ele>123.1861572</ele>
        <time>2010-09-19T08:08:40Z</time>
      </trkpt>
      <trkpt lat="50.04951" lon="2.65726">
        <ele>126.0699463</ele>
        <time>2010-09-19T08:08:50Z</time>
      </trkpt>
      <trkpt lat="50.04968" lon="2.65686">
        <ele>128.4733887</ele>
        <time>2010-09-19T08:09:01Z</time>
      </trkpt>
      <trkpt lat="50.04984" lon="2.6565">
        <ele>130.876709</ele>
        <time>2010-09-19T08:09:12Z</time>
      </trkpt>
      <trkpt lat="50.05002" lon="2.65609">
        <ele>133.760498</ele>
        <time>2010-09-19T08:09:24Z</time>
      </trkpt>
      <trkpt lat="50.05015" lon="2.6558">
        <ele>134.7219238</ele>
        <time>2010-09-19T08:09:32Z</time>
      </trkpt>
      <trkpt lat="50.05035" lon="2.6556">
        <ele>135.6831055</ele>
        <time>2010-09-19T08:09:40Z</time>
      </trkpt>
      <trkpt lat="50.05065" lon="2.65545">
        <ele>133.760498</ele>
        <time>2010-09-19T08:09:49Z</time>
      </trkpt>
      <trkpt lat="50.05095" lon="2.65532">
        <ele>131.8378906</ele>
        <time>2010-09-19T08:09:56Z</time>
      </trkpt>
      <trkpt lat="50.05134" lon="2.65517">
        <ele>128.4733887</ele>
        <time>2010-09-19T08:10:05Z</time>
      </trkpt>
      <trkpt lat="50.05166" lon="2.65503">
        <ele>127.9925537</ele>
        <time>2010-09-19T08:10:12Z</time>
      </trkpt>
      <trkpt lat="50.05197" lon="2.65489">
        <ele>128.4733887</ele>
        <time>2010-09-19T08:10:20Z</time>
      </trkpt>
      <trkpt lat="50.05237" lon="2.65472">
        <ele>129.4346924</ele>
        <time>2010-09-19T08:10:30Z</time>
      </trkpt>
      <trkpt lat="50.05269" lon="2.65449">
        <ele>130.876709</ele>
        <time>2010-09-19T08:10:39Z</time>
      </trkpt>
      <trkpt lat="50.05296" lon="2.65419">
        <ele>133.2799072</ele>
        <time>2010-09-19T08:10:48Z</time>
      </trkpt>
      <trkpt lat="50.05325" lon="2.65384">
        <ele>136.1639404</ele>
        <time>2010-09-19T08:10:59Z</time>
      </trkpt>
      <trkpt lat="50.05358" lon="2.65346">
        <ele>138.5672607</ele>
        <time>2010-09-19T08:11:10Z</time>
      </trkpt>
      <trkpt lat="50.05388" lon="2.65309">
        <ele>140.0091553</ele>
        <time>2010-09-19T08:11:19Z</time>
      </trkpt>
      <trkpt lat="50.05416" lon="2.65276">
        <ele>140.4898682</ele>
        <time>2010-09-19T08:11:27Z</time>
      </trkpt>
      <trkpt lat="50.05443" lon="2.65243">
        <ele>140.4898682</ele>
        <time>2010-09-19T08:11:35Z</time>
      </trkpt>
      <trkpt lat="50.0545" lon="2.65235">
        <ele>140.4898682</ele>
        <time>2010-09-19T08:11:37Z</time>
      </trkpt>
      <trkpt lat="50.05464" lon="2.65202">
        <ele>140.4898682</ele>
        <time>2010-09-19T08:11:43Z</time>
      </trkpt>
      <trkpt lat="50.05464" lon="2.65178">
        <ele>140.0091553</ele>
        <time>2010-09-19T08:11:46Z</time>
      </trkpt>
      <trkpt lat="50.05453" lon="2.6515">
        <ele>139.5284424</ele>
        <time>2010-09-19T08:11:50Z</time>
      </trkpt>
      <trkpt lat="50.05446" lon="2.65138">
        <ele>139.0478516</ele>
        <time>2010-09-19T08:11:52Z</time>
      </trkpt>
      <trkpt lat="50.05415" lon="2.65103">
        <ele>139.5284424</ele>
        <time>2010-09-19T08:11:59Z</time>
      </trkpt>
      <trkpt lat="50.05404" lon="2.65077">
        <ele>138.5672607</ele>
        <time>2010-09-19T08:12:03Z</time>
      </trkpt>
      <trkpt lat="50.0541" lon="2.65052">
        <ele>137.1252441</ele>
        <time>2010-09-19T08:12:06Z</time>
      </trkpt>
      <trkpt lat="50.05446" lon="2.6497">
        <ele>135.2025146</ele>
        <time>2010-09-19T08:12:16Z</time>
      </trkpt>
      <trkpt lat="50.05452" lon="2.6493">
        <ele>134.2412109</ele>
        <time>2010-09-19T08:12:20Z</time>
      </trkpt>
      <trkpt lat="50.05442" lon="2.649">
        <ele>133.2799072</ele>
        <time>2010-09-19T08:12:23Z</time>
      </trkpt>
      <trkpt lat="50.05398" lon="2.64815">
        <ele>129.4346924</ele>
        <time>2010-09-19T08:12:32Z</time>
      </trkpt>
      <trkpt lat="50.05376" lon="2.64771">
        <ele>127.9925537</ele>
        <time>2010-09-19T08:12:37Z</time>
      </trkpt>
      <trkpt lat="50.0534" lon="2.64713">
        <ele>126.5506592</ele>
        <time>2010-09-19T08:12:44Z</time>
      </trkpt>
      <trkpt lat="50.05307" lon="2.64664">
        <ele>125.1087646</ele>
        <time>2010-09-19T08:12:50Z</time>
      </trkpt>
      <trkpt lat="50.05269" lon="2.64587">
        <ele>123.666748</ele>
        <time>2010-09-19T08:12:58Z</time>
      </trkpt>
      <trkpt lat="50.05247" lon="2.6454">
        <ele>121.7441406</ele>
        <time>2010-09-19T08:13:03Z</time>
      </trkpt>
      <trkpt lat="50.05242" lon="2.64531">
        <ele>121.2635498</ele>
        <time>2010-09-19T08:13:04Z</time>
      </trkpt>
      <trkpt lat="50.05242" lon="2.64531">
        <ele>121.2635498</ele>
        <time>2010-09-19T08:13:04Z</time>
      </trkpt>
      <trkpt lat="50.05221" lon="2.64485">
        <ele>119.3408203</ele>
        <time>2010-09-19T08:13:09Z</time>
      </trkpt>
      <trkpt lat="50.05198" lon="2.64466">
        <ele>116.4567871</ele>
        <time>2010-09-19T08:13:13Z</time>
      </trkpt>
      <trkpt lat="50.05157" lon="2.64448">
        <ele>114.5341797</ele>
        <time>2010-09-19T08:13:19Z</time>
      </trkpt>
      <trkpt lat="50.05137" lon="2.64441">
        <ele>113.572998</ele>
        <time>2010-09-19T08:13:22Z</time>
      </trkpt>
      <trkpt lat="50.05078" lon="2.64418">
        <ele>110.6888428</ele>
        <time>2010-09-19T08:13:31Z</time>
      </trkpt>
      <trkpt lat="50.05042" lon="2.64389">
        <ele>110.208252</ele>
        <time>2010-09-19T08:13:37Z</time>
      </trkpt>
      <trkpt lat="50.04997" lon="2.64338">
        <ele>109.2469482</ele>
        <time>2010-09-19T08:13:45Z</time>
      </trkpt>
      <trkpt lat="50.0497" lon="2.64297">
        <ele>108.7662354</ele>
        <time>2010-09-19T08:13:51Z</time>
      </trkpt>
      <trkpt lat="50.04952" lon="2.64291">
        <ele>109.2469482</ele>
        <time>2010-09-19T08:13:55Z</time>
      </trkpt>
      <trkpt lat="50.04947" lon="2.64292">
        <ele>109.2469482</ele>
        <time>2010-09-19T08:13:56Z</time>
      </trkpt>
      <trkpt lat="50.04922" lon="2.64295">
        <ele>110.6888428</ele>
        <time>2010-09-19T08:14:01Z</time>
      </trkpt>
      <trkpt lat="50.04886" lon="2.64293">
        <ele>114.0535889</ele>
        <time>2010-09-19T08:14:09Z</time>
      </trkpt>
      <trkpt lat="50.04874" lon="2.64293">
        <ele>115.4956055</ele>
        <time>2010-09-19T08:14:12Z</time>
      </trkpt>
      <trkpt lat="50.04857" lon="2.64302">
        <ele>116.9375</ele>
        <time>2010-09-19T08:14:17Z</time>
      </trkpt>
      <trkpt lat="50.04837" lon="2.64326">
        <ele>118.8601074</ele>
        <time>2010-09-19T08:14:25Z</time>
      </trkpt>
      <trkpt lat="50.0482" lon="2.64336">
        <ele>120.7828369</ele>
        <time>2010-09-19T08:14:31Z</time>
      </trkpt>
      <trkpt lat="50.04802" lon="2.64329">
        <ele>122.7054443</ele>
        <time>2010-09-19T08:14:37Z</time>
      </trkpt>
      <trkpt lat="50.04774" lon="2.64303">
        <ele>123.1861572</ele>
        <time>2010-09-19T08:14:46Z</time>
      </trkpt>
      <trkpt lat="50.04754" lon="2.6428">
        <ele>124.6280518</ele>
        <time>2010-09-19T08:14:52Z</time>
      </trkpt>
      <trkpt lat="50.04727" lon="2.64253">
        <ele>124.6280518</ele>
        <time>2010-09-19T08:14:59Z</time>
      </trkpt>
      <trkpt lat="50.04689" lon="2.64218">
        <ele>126.0699463</ele>
        <time>2010-09-19T08:15:08Z</time>
      </trkpt>
      <trkpt lat="50.04644" lon="2.64184">
        <ele>122.7054443</ele>
        <time>2010-09-19T08:15:18Z</time>
      </trkpt>
      <trkpt lat="50.04616" lon="2.64165">
        <ele>122.2247314</ele>
        <time>2010-09-19T08:15:24Z</time>
      </trkpt>
      <trkpt lat="50.04581" lon="2.64141">
        <ele>121.7441406</ele>
        <time>2010-09-19T08:15:32Z</time>
      </trkpt>
      <trkpt lat="50.04544" lon="2.64129">
        <ele>121.2635498</ele>
        <time>2010-09-19T08:15:40Z</time>
      </trkpt>
      <trkpt lat="50.04508" lon="2.64119">
        <ele>121.7441406</ele>
        <time>2010-09-19T08:15:48Z</time>
      </trkpt>
      <trkpt lat="50.04489" lon="2.64119">
        <ele>121.7441406</ele>
        <time>2010-09-19T08:15:52Z</time>
      </trkpt>
      <trkpt lat="50.04455" lon="2.64135">
        <ele>121.2635498</ele>
        <time>2010-09-19T08:16:00Z</time>
      </trkpt>
      <trkpt lat="50.04421" lon="2.64158">
        <ele>119.8214111</ele>
        <time>2010-09-19T08:16:08Z</time>
      </trkpt>
      <trkpt lat="50.04381" lon="2.64179">
        <ele>117.8988037</ele>
        <time>2010-09-19T08:16:17Z</time>
      </trkpt>
      <trkpt lat="50.04354" lon="2.64189">
        <ele>116.9375</ele>
        <time>2010-09-19T08:16:23Z</time>
      </trkpt>
      <trkpt lat="50.04323" lon="2.64194">
        <ele>115.9761963</ele>
        <time>2010-09-19T08:16:29Z</time>
      </trkpt>
      <trkpt lat="50.043" lon="2.64192">
        <ele>115.0148926</ele>
        <time>2010-09-19T08:16:33Z</time>
      </trkpt>
      <trkpt lat="50.04267" lon="2.64179">
        <ele>114.5341797</ele>
        <time>2010-09-19T08:16:39Z</time>
      </trkpt>
      <trkpt lat="50.04242" lon="2.64188">
        <ele>114.0535889</ele>
        <time>2010-09-19T08:16:44Z</time>
      </trkpt>
      <trkpt lat="50.04195" lon="2.64221">
        <ele>111.1695557</ele>
        <time>2010-09-19T08:16:54Z</time>
      </trkpt>
      <trkpt lat="50.04155" lon="2.64235">
        <ele>111.6502686</ele>
        <time>2010-09-19T08:17:02Z</time>
      </trkpt>
      <trkpt lat="50.04125" lon="2.64239">
        <ele>111.6502686</ele>
        <time>2010-09-19T08:17:08Z</time>
      </trkpt>
      <trkpt lat="50.04084" lon="2.64244">
        <ele>112.1309814</ele>
        <time>2010-09-19T08:17:17Z</time>
      </trkpt>
      <trkpt lat="50.04062" lon="2.6425">
        <ele>113.0922852</ele>
        <time>2010-09-19T08:17:22Z</time>
      </trkpt>
      <trkpt lat="50.04033" lon="2.64257">
        <ele>113.572998</ele>
        <time>2010-09-19T08:17:29Z</time>
      </trkpt>
      <trkpt lat="50.03999" lon="2.64259">
        <ele>114.0535889</ele>
        <time>2010-09-19T08:17:37Z</time>
      </trkpt>
      <trkpt lat="50.03951" lon="2.64256">
        <ele>115.9761963</ele>
        <time>2010-09-19T08:17:49Z</time>
      </trkpt>
      <trkpt lat="50.03914" lon="2.6426">
        <ele>117.4182129</ele>
        <time>2010-09-19T08:17:58Z</time>
      </trkpt>
      <trkpt lat="50.03882" lon="2.64267">
        <ele>117.8988037</ele>
        <time>2010-09-19T08:18:07Z</time>
      </trkpt>
      <trkpt lat="50.03853" lon="2.64271">
        <ele>118.8601074</ele>
        <time>2010-09-19T08:18:15Z</time>
      </trkpt>
      <trkpt lat="50.03826" lon="2.64272">
        <ele>119.3408203</ele>
        <time>2010-09-19T08:18:23Z</time>
      </trkpt>
      <trkpt lat="50.03795" lon="2.64274">
        <ele>118.8601074</ele>
        <time>2010-09-19T08:18:31Z</time>
      </trkpt>
      <trkpt lat="50.03764" lon="2.64277">
        <ele>118.3793945</ele>
        <time>2010-09-19T08:18:39Z</time>
      </trkpt>
      <trkpt lat="50.03733" lon="2.64284">
        <ele>117.4182129</ele>
        <time>2010-09-19T08:18:47Z</time>
      </trkpt>
      <trkpt lat="50.03715" lon="2.64287">
        <ele>117.4182129</ele>
        <time>2010-09-19T08:18:52Z</time>
      </trkpt>
      <trkpt lat="50.0369" lon="2.64292">
        <ele>116.4567871</ele>
        <time>2010-09-19T08:18:58Z</time>
      </trkpt>
      <trkpt lat="50.03673" lon="2.64294">
        <ele>115.4956055</ele>
        <time>2010-09-19T08:19:02Z</time>
      </trkpt>
      <trkpt lat="50.03648" lon="2.64299">
        <ele>114.5341797</ele>
        <time>2010-09-19T08:19:08Z</time>
      </trkpt>
      <trkpt lat="50.03613" lon="2.64306">
        <ele>111.6502686</ele>
        <time>2010-09-19T08:19:15Z</time>
      </trkpt>
      <trkpt lat="50.03581" lon="2.64314">
        <ele>110.6888428</ele>
        <time>2010-09-19T08:19:21Z</time>
      </trkpt>
      <trkpt lat="50.03538" lon="2.64323">
        <ele>110.6888428</ele>
        <time>2010-09-19T08:19:29Z</time>
      </trkpt>
      <trkpt lat="50.03497" lon="2.64334">
        <ele>110.6888428</ele>
        <time>2010-09-19T08:19:37Z</time>
      </trkpt>
      <trkpt lat="50.03463" lon="2.64333">
        <ele>110.208252</ele>
        <time>2010-09-19T08:19:43Z</time>
      </trkpt>
      <trkpt lat="50.03445" lon="2.64332">
        <ele>110.6888428</ele>
        <time>2010-09-19T08:19:46Z</time>
      </trkpt>
      <trkpt lat="50.03435" lon="2.64332">
        <ele>110.208252</ele>
        <time>2010-09-19T08:19:48Z</time>
      </trkpt>
      <trkpt lat="50.03395" lon="2.64333">
        <ele>110.208252</ele>
        <time>2010-09-19T08:19:56Z</time>
      </trkpt>
      <trkpt lat="50.03391" lon="2.64334">
        <ele>110.208252</ele>
        <time>2010-09-19T08:19:57Z</time>
      </trkpt>
      <trkpt lat="50.03377" lon="2.64337">
        <ele>110.208252</ele>
        <time>2010-09-19T08:20:01Z</time>
      </trkpt>
      <trkpt lat="50.03346" lon="2.64346">
        <ele>110.208252</ele>
        <time>2010-09-19T08:20:09Z</time>
      </trkpt>
      <trkpt lat="50.03307" lon="2.6436">
        <ele>109.7276611</ele>
        <time>2010-09-19T08:20:18Z</time>
      </trkpt>
      <trkpt lat="50.03276" lon="2.6437">
        <ele>110.6888428</ele>
        <time>2010-09-19T08:20:25Z</time>
      </trkpt>
      <trkpt lat="50.03235" lon="2.64387">
        <ele>110.208252</ele>
        <time>2010-09-19T08:20:34Z</time>
      </trkpt>
      <trkpt lat="50.03196" lon="2.64406">
        <ele>109.7276611</ele>
        <time>2010-09-19T08:20:42Z</time>
      </trkpt>
      <trkpt lat="50.03169" lon="2.64422">
        <ele>109.2469482</ele>
        <time>2010-09-19T08:20:48Z</time>
      </trkpt>
      <trkpt lat="50.03142" lon="2.6444">
        <ele>108.2856445</ele>
        <time>2010-09-19T08:20:54Z</time>
      </trkpt>
      <trkpt lat="50.03107" lon="2.64463">
        <ele>107.8050537</ele>
        <time>2010-09-19T08:21:01Z</time>
      </trkpt>
      <trkpt lat="50.03065" lon="2.64484">
        <ele>106.8436279</ele>
        <time>2010-09-19T08:21:09Z</time>
      </trkpt>
      <trkpt lat="50.03028" lon="2.645">
        <ele>105.8824463</ele>
        <time>2010-09-19T08:21:16Z</time>
      </trkpt>
      <trkpt lat="50.02998" lon="2.64513">
        <ele>104.9210205</ele>
        <time>2010-09-19T08:21:22Z</time>
      </trkpt>
      <trkpt lat="50.0295" lon="2.64542">
        <ele>103.4790039</ele>
        <time>2010-09-19T08:21:32Z</time>
      </trkpt>
      <trkpt lat="50.02918" lon="2.64571">
        <ele>102.5177002</ele>
        <time>2010-09-19T08:21:39Z</time>
      </trkpt>
      <trkpt lat="50.02885" lon="2.64607">
        <ele>100.5950928</ele>
        <time>2010-09-19T08:21:46Z</time>
      </trkpt>
      <trkpt lat="50.02863" lon="2.64638">
        <ele>99.6337891</ele>
        <time>2010-09-19T08:21:51Z</time>
      </trkpt>
      <trkpt lat="50.02832" lon="2.64705">
        <ele>98.1918945</ele>
        <time>2010-09-19T08:22:00Z</time>
      </trkpt>
      <trkpt lat="50.02806" lon="2.64755">
        <ele>96.7498779</ele>
        <time>2010-09-19T08:22:07Z</time>
      </trkpt>
      <trkpt lat="50.02775" lon="2.64804">
        <ele>97.2304688</ele>
        <time>2010-09-19T08:22:15Z</time>
      </trkpt>
      <trkpt lat="50.02745" lon="2.64852">
        <ele>97.2304688</ele>
        <time>2010-09-19T08:22:23Z</time>
      </trkpt>
      <trkpt lat="50.02741" lon="2.64858">
        <ele>97.2304688</ele>
        <time>2010-09-19T08:22:24Z</time>
      </trkpt>
      <trkpt lat="50.02704" lon="2.64917">
        <ele>95.7884521</ele>
        <time>2010-09-19T08:22:34Z</time>
      </trkpt>
      <trkpt lat="50.02665" lon="2.64988">
        <ele>94.8271484</ele>
        <time>2010-09-19T08:22:45Z</time>
      </trkpt>
      <trkpt lat="50.02642" lon="2.65045">
        <ele>93.3851318</ele>
        <time>2010-09-19T08:22:53Z</time>
      </trkpt>
      <trkpt lat="50.02621" lon="2.65112">
        <ele>90.9819336</ele>
        <time>2010-09-19T08:23:01Z</time>
      </trkpt>
      <trkpt lat="50.02603" lon="2.65184">
        <ele>86.6560059</ele>
        <time>2010-09-19T08:23:08Z</time>
      </trkpt>
      <trkpt lat="50.02584" lon="2.65235">
        <ele>84.2526855</ele>
        <time>2010-09-19T08:23:13Z</time>
      </trkpt>
      <trkpt lat="50.02556" lon="2.65287">
        <ele>82.810791</ele>
        <time>2010-09-19T08:23:19Z</time>
      </trkpt>
      <trkpt lat="50.02545" lon="2.65301">
        <ele>82.3300781</ele>
        <time>2010-09-19T08:23:23Z</time>
      </trkpt>
      <trkpt lat="50.0254" lon="2.65305">
        <ele>81.8493652</ele>
        <time>2010-09-19T08:23:25Z</time>
      </trkpt>
      <trkpt lat="50.02529" lon="2.65314">
        <ele>80.8881836</ele>
        <time>2010-09-19T08:23:31Z</time>
      </trkpt>
      <trkpt lat="50.02511" lon="2.65315">
        <ele>80.8881836</ele>
        <time>2010-09-19T08:23:35Z</time>
      </trkpt>
      <trkpt lat="50.02489" lon="2.65313">
        <ele>81.3687744</ele>
        <time>2010-09-19T08:23:39Z</time>
      </trkpt>
      <trkpt lat="50.02484" lon="2.65313">
        <ele>81.8493652</ele>
        <time>2010-09-19T08:23:40Z</time>
      </trkpt>
      <trkpt lat="50.02479" lon="2.65312">
        <ele>81.8493652</ele>
        <time>2010-09-19T08:23:41Z</time>
      </trkpt>
      <trkpt lat="50.02463" lon="2.65312">
        <ele>81.8493652</ele>
        <time>2010-09-19T08:23:44Z</time>
      </trkpt>
      <trkpt lat="50.02422" lon="2.65309">
        <ele>84.7333984</ele>
        <time>2010-09-19T08:23:52Z</time>
      </trkpt>
      <trkpt lat="50.02399" lon="2.65316">
        <ele>87.6171875</ele>
        <time>2010-09-19T08:23:57Z</time>
      </trkpt>
      <trkpt lat="50.02387" lon="2.65323">
        <ele>88.5787354</ele>
        <time>2010-09-19T08:24:00Z</time>
      </trkpt>
      <trkpt lat="50.02372" lon="2.65332">
        <ele>90.5013428</ele>
        <time>2010-09-19T08:24:04Z</time>
      </trkpt>
      <trkpt lat="50.02365" lon="2.65337">
        <ele>90.9819336</ele>
        <time>2010-09-19T08:24:06Z</time>
      </trkpt>
      <trkpt lat="50.0235" lon="2.65347">
        <ele>93.3851318</ele>
        <time>2010-09-19T08:24:11Z</time>
      </trkpt>
      <trkpt lat="50.02345" lon="2.65369">
        <ele>93.8658447</ele>
        <time>2010-09-19T08:24:15Z</time>
      </trkpt>
      <trkpt lat="50.0235" lon="2.6542">
        <ele>94.3465576</ele>
        <time>2010-09-19T08:24:22Z</time>
      </trkpt>
      <trkpt lat="50.02351" lon="2.65461">
        <ele>94.3465576</ele>
        <time>2010-09-19T08:24:27Z</time>
      </trkpt>
      <trkpt lat="50.02353" lon="2.65495">
        <ele>93.8658447</ele>
        <time>2010-09-19T08:24:31Z</time>
      </trkpt>
      <trkpt lat="50.02355" lon="2.65583">
        <ele>93.3851318</ele>
        <time>2010-09-19T08:24:41Z</time>
      </trkpt>
      <trkpt lat="50.02359" lon="2.65664">
        <ele>94.3465576</ele>
        <time>2010-09-19T08:24:50Z</time>
      </trkpt>
      <trkpt lat="50.02366" lon="2.65732">
        <ele>96.2692871</ele>
        <time>2010-09-19T08:24:58Z</time>
      </trkpt>
      <trkpt lat="50.02365" lon="2.65804">
        <ele>96.2692871</ele>
        <time>2010-09-19T08:25:06Z</time>
      </trkpt>
      <trkpt lat="50.02369" lon="2.65876">
        <ele>95.7884521</ele>
        <time>2010-09-19T08:25:14Z</time>
      </trkpt>
      <trkpt lat="50.02372" lon="2.65929">
        <ele>95.7884521</ele>
        <time>2010-09-19T08:25:20Z</time>
      </trkpt>
      <trkpt lat="50.02373" lon="2.65984">
        <ele>93.8658447</ele>
        <time>2010-09-19T08:25:26Z</time>
      </trkpt>
      <trkpt lat="50.02376" lon="2.66031">
        <ele>92.4239502</ele>
        <time>2010-09-19T08:25:31Z</time>
      </trkpt>
      <trkpt lat="50.02376" lon="2.66049">
        <ele>91.9432373</ele>
        <time>2010-09-19T08:25:33Z</time>
      </trkpt>
      <trkpt lat="50.02376" lon="2.66057">
        <ele>91.4625244</ele>
        <time>2010-09-19T08:25:34Z</time>
      </trkpt>
      <trkpt lat="50.02372" lon="2.6607">
        <ele>90.5013428</ele>
        <time>2010-09-19T08:25:38Z</time>
      </trkpt>
      <trkpt lat="50.02361" lon="2.66066">
        <ele>90.5013428</ele>
        <time>2010-09-19T08:25:41Z</time>
      </trkpt>
      <trkpt lat="50.02325" lon="2.6604">
        <ele>90.0206299</ele>
        <time>2010-09-19T08:25:49Z</time>
      </trkpt>
      <trkpt lat="50.0232" lon="2.66035">
        <ele>90.0206299</ele>
        <time>2010-09-19T08:25:50Z</time>
      </trkpt>
      <trkpt lat="50.02305" lon="2.66013">
        <ele>90.0206299</ele>
        <time>2010-09-19T08:25:54Z</time>
      </trkpt>
      <trkpt lat="50.02293" lon="2.65976">
        <ele>88.5787354</ele>
        <time>2010-09-19T08:25:59Z</time>
      </trkpt>
      <trkpt lat="50.02293" lon="2.65967">
        <ele>88.5787354</ele>
        <time>2010-09-19T08:26:00Z</time>
      </trkpt>
      <trkpt lat="50.02292" lon="2.65924">
        <ele>88.0980225</ele>
        <time>2010-09-19T08:26:05Z</time>
      </trkpt>
      <trkpt lat="50.02293" lon="2.65882">
        <ele>87.6171875</ele>
        <time>2010-09-19T08:26:10Z</time>
      </trkpt>
      <trkpt lat="50.02295" lon="2.65815">
        <ele>87.6171875</ele>
        <time>2010-09-19T08:26:18Z</time>
      </trkpt>
      <trkpt lat="50.02295" lon="2.65803">
        <ele>87.1365967</ele>
        <time>2010-09-19T08:26:20Z</time>
      </trkpt>
      <trkpt lat="50.02294" lon="2.65792">
        <ele>87.1365967</ele>
        <time>2010-09-19T08:26:23Z</time>
      </trkpt>
      <trkpt lat="50.0229" lon="2.65789">
        <ele>88.0980225</ele>
        <time>2010-09-19T08:26:27Z</time>
      </trkpt>
      <trkpt lat="50.02291" lon="2.65795">
        <ele>88.5787354</ele>
        <time>2010-09-19T08:26:29Z</time>
      </trkpt>
      <trkpt lat="50.02294" lon="2.65828">
        <ele>89.539917</ele>
        <time>2010-09-19T08:26:36Z</time>
      </trkpt>
      <trkpt lat="50.02292" lon="2.65865">
        <ele>90.5013428</ele>
        <time>2010-09-19T08:26:41Z</time>
      </trkpt>
      <trkpt lat="50.02288" lon="2.65936">
        <ele>90.0206299</ele>
        <time>2010-09-19T08:26:49Z</time>
      </trkpt>
      <trkpt lat="50.0229" lon="2.65979">
        <ele>89.539917</ele>
        <time>2010-09-19T08:26:54Z</time>
      </trkpt>
      <trkpt lat="50.02302" lon="2.66018">
        <ele>88.5787354</ele>
        <time>2010-09-19T08:26:59Z</time>
      </trkpt>
      <trkpt lat="50.02306" lon="2.66024">
        <ele>88.5787354</ele>
        <time>2010-09-19T08:27:00Z</time>
      </trkpt>
      <trkpt lat="50.02341" lon="2.6606">
        <ele>88.0980225</ele>
        <time>2010-09-19T08:27:07Z</time>
      </trkpt>
      <trkpt lat="50.02346" lon="2.66064">
        <ele>88.5787354</ele>
        <time>2010-09-19T08:27:08Z</time>
      </trkpt>
      <trkpt lat="50.02366" lon="2.66074">
        <ele>89.539917</ele>
        <time>2010-09-19T08:27:12Z</time>
      </trkpt>
      <trkpt lat="50.02378" lon="2.66074">
        <ele>90.5013428</ele>
        <time>2010-09-19T08:27:16Z</time>
      </trkpt>
      <trkpt lat="50.02382" lon="2.66058">
        <ele>89.539917</ele>
        <time>2010-09-19T08:27:20Z</time>
      </trkpt>
      <trkpt lat="50.02378" lon="2.65999">
        <ele>90.5013428</ele>
        <time>2010-09-19T08:27:30Z</time>
      </trkpt>
      <trkpt lat="50.02378" lon="2.65973">
        <ele>90.0206299</ele>
        <time>2010-09-19T08:27:34Z</time>
      </trkpt>
      <trkpt lat="50.02374" lon="2.65902">
        <ele>91.4625244</ele>
        <time>2010-09-19T08:27:43Z</time>
      </trkpt>
      <trkpt lat="50.02371" lon="2.65823">
        <ele>90.5013428</ele>
        <time>2010-09-19T08:27:53Z</time>
      </trkpt>
      <trkpt lat="50.0237" lon="2.65781">
        <ele>90.5013428</ele>
        <time>2010-09-19T08:28:00Z</time>
      </trkpt>
      <trkpt lat="50.02368" lon="2.65767">
        <ele>90.5013428</ele>
        <time>2010-09-19T08:28:03Z</time>
      </trkpt>
      <trkpt lat="50.02367" lon="2.65762">
        <ele>90.5013428</ele>
        <time>2010-09-19T08:28:04Z</time>
      </trkpt>
      <trkpt lat="50.0237" lon="2.65744">
        <ele>90.5013428</ele>
        <time>2010-09-19T08:28:09Z</time>
      </trkpt>
      <trkpt lat="50.02378" lon="2.65749">
        <ele>90.9819336</ele>
        <time>2010-09-19T08:28:13Z</time>
      </trkpt>
      <trkpt lat="50.02396" lon="2.65778">
        <ele>92.4239502</ele>
        <time>2010-09-19T08:28:20Z</time>
      </trkpt>
      <trkpt lat="50.02418" lon="2.65809">
        <ele>93.8658447</ele>
        <time>2010-09-19T08:28:26Z</time>
      </trkpt>
      <trkpt lat="50.02431" lon="2.65825">
        <ele>93.8658447</ele>
        <time>2010-09-19T08:28:29Z</time>
      </trkpt>
      <trkpt lat="50.02471" lon="2.65859">
        <ele>92.904541</ele>
        <time>2010-09-19T08:28:37Z</time>
      </trkpt>
      <trkpt lat="50.02485" lon="2.65876">
        <ele>92.4239502</ele>
        <time>2010-09-19T08:28:40Z</time>
      </trkpt>
      <trkpt lat="50.02497" lon="2.65907">
        <ele>91.4625244</ele>
        <time>2010-09-19T08:28:44Z</time>
      </trkpt>
      <trkpt lat="50.02519" lon="2.65983">
        <ele>88.0980225</ele>
        <time>2010-09-19T08:28:52Z</time>
      </trkpt>
      <trkpt lat="50.02538" lon="2.66055">
        <ele>85.2139893</ele>
        <time>2010-09-19T08:28:59Z</time>
      </trkpt>
      <trkpt lat="50.02558" lon="2.66127">
        <ele>82.3300781</ele>
        <time>2010-09-19T08:29:05Z</time>
      </trkpt>
      <trkpt lat="50.02588" lon="2.66237">
        <ele>80.4074707</ele>
        <time>2010-09-19T08:29:14Z</time>
      </trkpt>
      <trkpt lat="50.026" lon="2.66281">
        <ele>79.9266357</ele>
        <time>2010-09-19T08:29:18Z</time>
      </trkpt>
      <trkpt lat="50.02614" lon="2.66335">
        <ele>79.9266357</ele>
        <time>2010-09-19T08:29:23Z</time>
      </trkpt>
      <trkpt lat="50.02627" lon="2.66388">
        <ele>79.9266357</ele>
        <time>2010-09-19T08:29:28Z</time>
      </trkpt>
      <trkpt lat="50.02635" lon="2.66419">
        <ele>80.4074707</ele>
        <time>2010-09-19T08:29:31Z</time>
      </trkpt>
      <trkpt lat="50.02654" lon="2.66488">
        <ele>80.8881836</ele>
        <time>2010-09-19T08:29:38Z</time>
      </trkpt>
      <trkpt lat="50.02666" lon="2.66535">
        <ele>81.3687744</ele>
        <time>2010-09-19T08:29:43Z</time>
      </trkpt>
      <trkpt lat="50.02668" lon="2.66544">
        <ele>81.3687744</ele>
        <time>2010-09-19T08:29:44Z</time>
      </trkpt>
      <trkpt lat="50.0267" lon="2.66593">
        <ele>82.810791</ele>
        <time>2010-09-19T08:29:50Z</time>
      </trkpt>
      <trkpt lat="50.0267" lon="2.66633">
        <ele>84.2526855</ele>
        <time>2010-09-19T08:29:56Z</time>
      </trkpt>
      <trkpt lat="50.02672" lon="2.6667">
        <ele>87.1365967</ele>
        <time>2010-09-19T08:30:03Z</time>
      </trkpt>
      <trkpt lat="50.02674" lon="2.66693">
        <ele>89.0593262</ele>
        <time>2010-09-19T08:30:08Z</time>
      </trkpt>
      <trkpt lat="50.0268" lon="2.66718">
        <ele>91.4625244</ele>
        <time>2010-09-19T08:30:13Z</time>
      </trkpt>
      <trkpt lat="50.02689" lon="2.66756">
        <ele>93.3851318</ele>
        <time>2010-09-19T08:30:20Z</time>
      </trkpt>
      <trkpt lat="50.02701" lon="2.66799">
        <ele>95.3077393</ele>
        <time>2010-09-19T08:30:29Z</time>
      </trkpt>
      <trkpt lat="50.02706" lon="2.66841">
        <ele>99.1530762</ele>
        <time>2010-09-19T08:30:39Z</time>
      </trkpt>
      <trkpt lat="50.0271" lon="2.66879">
        <ele>102.5177002</ele>
        <time>2010-09-19T08:30:49Z</time>
      </trkpt>
      <trkpt lat="50.02712" lon="2.66907">
        <ele>102.998291</ele>
        <time>2010-09-19T08:30:57Z</time>
      </trkpt>
      <trkpt lat="50.02715" lon="2.66944">
        <ele>106.3630371</ele>
        <time>2010-09-19T08:31:08Z</time>
      </trkpt>
      <trkpt lat="50.0272" lon="2.66991">
        <ele>108.2856445</ele>
        <time>2010-09-19T08:31:20Z</time>
      </trkpt>
      <trkpt lat="50.02728" lon="2.67029">
        <ele>107.3243408</ele>
        <time>2010-09-19T08:31:28Z</time>
      </trkpt>
      <trkpt lat="50.02739" lon="2.6709">
        <ele>107.8050537</ele>
        <time>2010-09-19T08:31:39Z</time>
      </trkpt>
      <trkpt lat="50.02749" lon="2.67138">
        <ele>108.2856445</ele>
        <time>2010-09-19T08:31:47Z</time>
      </trkpt>
      <trkpt lat="50.02766" lon="2.67217">
        <ele>109.2469482</ele>
        <time>2010-09-19T08:31:59Z</time>
      </trkpt>
      <trkpt lat="50.0278" lon="2.67299">
        <ele>110.6888428</ele>
        <time>2010-09-19T08:32:11Z</time>
      </trkpt>
      <trkpt lat="50.0279" lon="2.67391">
        <ele>112.1309814</ele>
        <time>2010-09-19T08:32:24Z</time>
      </trkpt>
      <trkpt lat="50.02788" lon="2.67455">
        <ele>113.572998</ele>
        <time>2010-09-19T08:32:33Z</time>
      </trkpt>
      <trkpt lat="50.02784" lon="2.67532">
        <ele>115.0148926</ele>
        <time>2010-09-19T08:32:44Z</time>
      </trkpt>
      <trkpt lat="50.02783" lon="2.67595">
        <ele>117.4182129</ele>
        <time>2010-09-19T08:32:54Z</time>
      </trkpt>
      <trkpt lat="50.02781" lon="2.67653">
        <ele>118.8601074</ele>
        <time>2010-09-19T08:33:04Z</time>
      </trkpt>
      <trkpt lat="50.02779" lon="2.67711">
        <ele>121.2635498</ele>
        <time>2010-09-19T08:33:15Z</time>
      </trkpt>
      <trkpt lat="50.02776" lon="2.67762">
        <ele>124.6280518</ele>
        <time>2010-09-19T08:33:25Z</time>
      </trkpt>
      <trkpt lat="50.02774" lon="2.67799">
        <ele>127.0313721</ele>
        <time>2010-09-19T08:33:34Z</time>
      </trkpt>
      <trkpt lat="50.02773" lon="2.67825">
        <ele>128.9541016</ele>
        <time>2010-09-19T08:33:41Z</time>
      </trkpt>
      <trkpt lat="50.02779" lon="2.67833">
        <ele>128.4733887</ele>
        <time>2010-09-19T08:33:47Z</time>
      </trkpt>
      <trkpt lat="50.02781" lon="2.67833">
        <ele>128.4733887</ele>
        <time>2010-09-19T08:33:48Z</time>
      </trkpt>
      <trkpt lat="50.02792" lon="2.67833">
        <ele>128.9541016</ele>
        <time>2010-09-19T08:33:53Z</time>
      </trkpt>
      <trkpt lat="50.02812" lon="2.67832">
        <ele>128.9541016</ele>
        <time>2010-09-19T08:34:00Z</time>
      </trkpt>
      <trkpt lat="50.02833" lon="2.67833">
        <ele>128.9541016</ele>
        <time>2010-09-19T08:34:06Z</time>
      </trkpt>
      <trkpt lat="50.02856" lon="2.67831">
        <ele>127.5119629</ele>
        <time>2010-09-19T08:34:12Z</time>
      </trkpt>
      <trkpt lat="50.02873" lon="2.67828">
        <ele>126.5506592</ele>
        <time>2010-09-19T08:34:16Z</time>
      </trkpt>
      <trkpt lat="50.02896" lon="2.67826">
        <ele>126.0699463</ele>
        <time>2010-09-19T08:34:21Z</time>
      </trkpt>
      <trkpt lat="50.02912" lon="2.67825">
        <ele>126.0699463</ele>
        <time>2010-09-19T08:34:25Z</time>
      </trkpt>
      <trkpt lat="50.02931" lon="2.67823">
        <ele>125.5893555</ele>
        <time>2010-09-19T08:34:29Z</time>
      </trkpt>
      <trkpt lat="50.02968" lon="2.67828">
        <ele>125.1087646</ele>
        <time>2010-09-19T08:34:36Z</time>
      </trkpt>
      <trkpt lat="50.03" lon="2.67842">
        <ele>122.7054443</ele>
        <time>2010-09-19T08:34:42Z</time>
      </trkpt>
      <trkpt lat="50.03032" lon="2.67875">
        <ele>123.666748</ele>
        <time>2010-09-19T08:34:50Z</time>
      </trkpt>
      <trkpt lat="50.0306" lon="2.6791">
        <ele>125.1087646</ele>
        <time>2010-09-19T08:34:57Z</time>
      </trkpt>
      <trkpt lat="50.03091" lon="2.67949">
        <ele>125.5893555</ele>
        <time>2010-09-19T08:35:05Z</time>
      </trkpt>
      <trkpt lat="50.03131" lon="2.68001">
        <ele>124.6280518</ele>
        <time>2010-09-19T08:35:15Z</time>
      </trkpt>
      <trkpt lat="50.03157" lon="2.6804">
        <ele>125.1087646</ele>
        <time>2010-09-19T08:35:22Z</time>
      </trkpt>
      <trkpt lat="50.03173" lon="2.68068">
        <ele>124.1473389</ele>
        <time>2010-09-19T08:35:27Z</time>
      </trkpt>
      <trkpt lat="50.03195" lon="2.68103">
        <ele>124.1473389</ele>
        <time>2010-09-19T08:35:33Z</time>
      </trkpt>
      <trkpt lat="50.03206" lon="2.68118">
        <ele>123.666748</ele>
        <time>2010-09-19T08:35:36Z</time>
      </trkpt>
      <trkpt lat="50.0323" lon="2.68147">
        <ele>121.7441406</ele>
        <time>2010-09-19T08:35:41Z</time>
      </trkpt>
      <trkpt lat="50.03252" lon="2.68173">
        <ele>118.8601074</ele>
        <time>2010-09-19T08:35:45Z</time>
      </trkpt>
      <trkpt lat="50.03287" lon="2.68222">
        <ele>108.7662354</ele>
        <time>2010-09-19T08:35:51Z</time>
      </trkpt>
      <trkpt lat="50.03312" lon="2.6825">
        <ele>105.8824463</ele>
        <time>2010-09-19T08:35:56Z</time>
      </trkpt>
      <trkpt lat="50.03317" lon="2.68255">
        <ele>105.8824463</ele>
        <time>2010-09-19T08:35:57Z</time>
      </trkpt>
      <trkpt lat="50.03346" lon="2.68295">
        <ele>108.7662354</ele>
        <time>2010-09-19T08:36:04Z</time>
      </trkpt>
      <trkpt lat="50.03378" lon="2.68339">
        <ele>112.1309814</ele>
        <time>2010-09-19T08:36:12Z</time>
      </trkpt>
      <trkpt lat="50.03403" lon="2.68372">
        <ele>115.9761963</ele>
        <time>2010-09-19T08:36:18Z</time>
      </trkpt>
      <trkpt lat="50.03411" lon="2.68385">
        <ele>116.9375</ele>
        <time>2010-09-19T08:36:20Z</time>
      </trkpt>
      <trkpt lat="50.0344" lon="2.68428">
        <ele>118.8601074</ele>
        <time>2010-09-19T08:36:26Z</time>
      </trkpt>
      <trkpt lat="50.0346" lon="2.68456">
        <ele>119.3408203</ele>
        <time>2010-09-19T08:36:30Z</time>
      </trkpt>
      <trkpt lat="50.03508" lon="2.68528">
        <ele>120.7828369</ele>
        <time>2010-09-19T08:36:40Z</time>
      </trkpt>
      <trkpt lat="50.03551" lon="2.68591">
        <ele>122.7054443</ele>
        <time>2010-09-19T08:36:50Z</time>
      </trkpt>
      <trkpt lat="50.03574" lon="2.6863">
        <ele>125.1087646</ele>
        <time>2010-09-19T08:36:57Z</time>
      </trkpt>
      <trkpt lat="50.03601" lon="2.68671">
        <ele>126.5506592</ele>
        <time>2010-09-19T08:37:06Z</time>
      </trkpt>
      <trkpt lat="50.03632" lon="2.68708">
        <ele>127.0313721</ele>
        <time>2010-09-19T08:37:15Z</time>
      </trkpt>
      <trkpt lat="50.03664" lon="2.68733">
        <ele>127.0313721</ele>
        <time>2010-09-19T08:37:22Z</time>
      </trkpt>
      <trkpt lat="50.03719" lon="2.68764">
        <ele>127.5119629</ele>
        <time>2010-09-19T08:37:33Z</time>
      </trkpt>
      <trkpt lat="50.03757" lon="2.68795">
        <ele>127.0313721</ele>
        <time>2010-09-19T08:37:41Z</time>
      </trkpt>
      <trkpt lat="50.03795" lon="2.68837">
        <ele>126.5506592</ele>
        <time>2010-09-19T08:37:49Z</time>
      </trkpt>
      <trkpt lat="50.03828" lon="2.68886">
        <ele>126.0699463</ele>
        <time>2010-09-19T08:37:57Z</time>
      </trkpt>
      <trkpt lat="50.03851" lon="2.68931">
        <ele>127.0313721</ele>
        <time>2010-09-19T08:38:04Z</time>
      </trkpt>
      <trkpt lat="50.03875" lon="2.68981">
        <ele>127.5119629</ele>
        <time>2010-09-19T08:38:13Z</time>
      </trkpt>
      <trkpt lat="50.03886" lon="2.69023">
        <ele>127.5119629</ele>
        <time>2010-09-19T08:38:19Z</time>
      </trkpt>
      <trkpt lat="50.03894" lon="2.69078">
        <ele>127.0313721</ele>
        <time>2010-09-19T08:38:26Z</time>
      </trkpt>
      <trkpt lat="50.03909" lon="2.69134">
        <ele>127.9925537</ele>
        <time>2010-09-19T08:38:35Z</time>
      </trkpt>
      <trkpt lat="50.03917" lon="2.69137">
        <ele>127.9925537</ele>
        <time>2010-09-19T08:38:39Z</time>
      </trkpt>
      <trkpt lat="50.0392" lon="2.69134">
        <ele>127.5119629</ele>
        <time>2010-09-19T08:38:40Z</time>
      </trkpt>
      <trkpt lat="50.03941" lon="2.69102">
        <ele>125.1087646</ele>
        <time>2010-09-19T08:38:45Z</time>
      </trkpt>
      <trkpt lat="50.03969" lon="2.69055">
        <ele>121.2635498</ele>
        <time>2010-09-19T08:38:50Z</time>
      </trkpt>
      <trkpt lat="50.03985" lon="2.69002">
        <ele>117.8988037</ele>
        <time>2010-09-19T08:38:54Z</time>
      </trkpt>
      <trkpt lat="50.04003" lon="2.68915">
        <ele>114.0535889</ele>
        <time>2010-09-19T08:39:00Z</time>
      </trkpt>
      <trkpt lat="50.04016" lon="2.6885">
        <ele>114.5341797</ele>
        <time>2010-09-19T08:39:05Z</time>
      </trkpt>
      <trkpt lat="50.04024" lon="2.68803">
        <ele>115.4956055</ele>
        <time>2010-09-19T08:39:10Z</time>
      </trkpt>
      <trkpt lat="50.04029" lon="2.68781">
        <ele>116.4567871</ele>
        <time>2010-09-19T08:39:13Z</time>
      </trkpt>
      <trkpt lat="50.04035" lon="2.68754">
        <ele>117.8988037</ele>
        <time>2010-09-19T08:39:17Z</time>
      </trkpt>
      <trkpt lat="50.04039" lon="2.68734">
        <ele>119.3408203</ele>
        <time>2010-09-19T08:39:20Z</time>
      </trkpt>
      <trkpt lat="50.04046" lon="2.68703">
        <ele>120.7828369</ele>
        <time>2010-09-19T08:39:25Z</time>
      </trkpt>
      <trkpt lat="50.04054" lon="2.6867">
        <ele>122.7054443</ele>
        <time>2010-09-19T08:39:31Z</time>
      </trkpt>
      <trkpt lat="50.04065" lon="2.68635">
        <ele>124.1473389</ele>
        <time>2010-09-19T08:39:38Z</time>
      </trkpt>
      <trkpt lat="50.0408" lon="2.686">
        <ele>123.1861572</ele>
        <time>2010-09-19T08:39:46Z</time>
      </trkpt>
      <trkpt lat="50.041" lon="2.68551">
        <ele>123.1861572</ele>
        <time>2010-09-19T08:39:57Z</time>
      </trkpt>
      <trkpt lat="50.0412" lon="2.68501">
        <ele>123.666748</ele>
        <time>2010-09-19T08:40:09Z</time>
      </trkpt>
      <trkpt lat="50.04138" lon="2.68457">
        <ele>124.6280518</ele>
        <time>2010-09-19T08:40:20Z</time>
      </trkpt>
      <trkpt lat="50.04155" lon="2.68412">
        <ele>126.0699463</ele>
        <time>2010-09-19T08:40:31Z</time>
      </trkpt>
      <trkpt lat="50.04171" lon="2.68372">
        <ele>127.0313721</ele>
        <time>2010-09-19T08:40:41Z</time>
      </trkpt>
      <trkpt lat="50.04185" lon="2.68334">
        <ele>127.5119629</ele>
        <time>2010-09-19T08:40:50Z</time>
      </trkpt>
      <trkpt lat="50.04206" lon="2.68281">
        <ele>129.4346924</ele>
        <time>2010-09-19T08:41:02Z</time>
      </trkpt>
      <trkpt lat="50.04222" lon="2.68242">
        <ele>130.3959961</ele>
        <time>2010-09-19T08:41:11Z</time>
      </trkpt>
      <trkpt lat="50.0424" lon="2.68195">
        <ele>130.876709</ele>
        <time>2010-09-19T08:41:22Z</time>
      </trkpt>
      <trkpt lat="50.04259" lon="2.68148">
        <ele>131.3572998</ele>
        <time>2010-09-19T08:41:34Z</time>
      </trkpt>
      <trkpt lat="50.04275" lon="2.68106">
        <ele>131.8378906</ele>
        <time>2010-09-19T08:41:44Z</time>
      </trkpt>
      <trkpt lat="50.04292" lon="2.6806">
        <ele>131.3572998</ele>
        <time>2010-09-19T08:41:55Z</time>
      </trkpt>
      <trkpt lat="50.04299" lon="2.68039">
        <ele>130.876709</ele>
        <time>2010-09-19T08:42:00Z</time>
      </trkpt>
      <trkpt lat="50.04309" lon="2.68033">
        <ele>131.3572998</ele>
        <time>2010-09-19T08:42:05Z</time>
      </trkpt>
      <trkpt lat="50.04313" lon="2.68036">
        <ele>131.8378906</ele>
        <time>2010-09-19T08:42:07Z</time>
      </trkpt>
      <trkpt lat="50.04337" lon="2.68047">
        <ele>137.1252441</ele>
        <time>2010-09-19T08:42:14Z</time>
      </trkpt>
      <trkpt lat="50.04371" lon="2.68064">
        <ele>142.4124756</ele>
        <time>2010-09-19T08:42:23Z</time>
      </trkpt>
      <trkpt lat="50.04393" lon="2.68076">
        <ele>144.8157959</ele>
        <time>2010-09-19T08:42:29Z</time>
      </trkpt>
      <trkpt lat="50.04422" lon="2.68094">
        <ele>145.2963867</ele>
        <time>2010-09-19T08:42:36Z</time>
      </trkpt>
      <trkpt lat="50.0443" lon="2.68099">
        <ele>145.2963867</ele>
        <time>2010-09-19T08:42:38Z</time>
      </trkpt>
      <trkpt lat="50.04442" lon="2.6811">
        <ele>147.699707</ele>
        <time>2010-09-19T08:42:43Z</time>
      </trkpt>
      <trkpt lat="50.04458" lon="2.68123">
        <ele>148.6610107</ele>
        <time>2010-09-19T08:42:48Z</time>
      </trkpt>
      <trkpt lat="50.04484" lon="2.68147">
        <ele>152.0257568</ele>
        <time>2010-09-19T08:42:56Z</time>
      </trkpt>
      <trkpt lat="50.04499" lon="2.68163">
        <ele>153.9483643</ele>
        <time>2010-09-19T08:43:01Z</time>
      </trkpt>
      <trkpt lat="50.04524" lon="2.68192">
        <ele>155.3902588</ele>
        <time>2010-09-19T08:43:09Z</time>
      </trkpt>
      <trkpt lat="50.04554" lon="2.68223">
        <ele>155.3902588</ele>
        <time>2010-09-19T08:43:17Z</time>
      </trkpt>
      <trkpt lat="50.04563" lon="2.68236">
        <ele>155.8709717</ele>
        <time>2010-09-19T08:43:20Z</time>
      </trkpt>
      <trkpt lat="50.04595" lon="2.68272">
        <ele>155.8709717</ele>
        <time>2010-09-19T08:43:29Z</time>
      </trkpt>
      <trkpt lat="50.04626" lon="2.68303">
        <ele>156.3515625</ele>
        <time>2010-09-19T08:43:37Z</time>
      </trkpt>
      <trkpt lat="50.04652" lon="2.68332">
        <ele>157.3128662</ele>
        <time>2010-09-19T08:43:45Z</time>
      </trkpt>
      <trkpt lat="50.04683" lon="2.68366">
        <ele>157.7935791</ele>
        <time>2010-09-19T08:43:54Z</time>
      </trkpt>
      <trkpt lat="50.04712" lon="2.684">
        <ele>158.2741699</ele>
        <time>2010-09-19T08:44:03Z</time>
      </trkpt>
      <trkpt lat="50.04745" lon="2.68436">
        <ele>158.7547607</ele>
        <time>2010-09-19T08:44:13Z</time>
      </trkpt>
      <trkpt lat="50.0478" lon="2.68471">
        <ele>157.7935791</ele>
        <time>2010-09-19T08:44:23Z</time>
      </trkpt>
      <trkpt lat="50.04807" lon="2.68497">
        <ele>156.3515625</ele>
        <time>2010-09-19T08:44:30Z</time>
      </trkpt>
      <trkpt lat="50.0484" lon="2.68528">
        <ele>155.8709717</ele>
        <time>2010-09-19T08:44:39Z</time>
      </trkpt>
      <trkpt lat="50.04864" lon="2.68551">
        <ele>155.8709717</ele>
        <time>2010-09-19T08:44:46Z</time>
      </trkpt>
      <trkpt lat="50.04889" lon="2.68575">
        <ele>156.3515625</ele>
        <time>2010-09-19T08:44:53Z</time>
      </trkpt>
      <trkpt lat="50.04914" lon="2.68599">
        <ele>155.8709717</ele>
        <time>2010-09-19T08:45:01Z</time>
      </trkpt>
      <trkpt lat="50.04918" lon="2.68603">
        <ele>155.8709717</ele>
        <time>2010-09-19T08:45:03Z</time>
      </trkpt>
      <trkpt lat="50.04918" lon="2.68604">
        <ele>155.3902588</ele>
        <time>2010-09-19T08:45:06Z</time>
      </trkpt>
      <trkpt lat="50.04924" lon="2.6861">
        <ele>154.9095459</ele>
        <time>2010-09-19T08:45:13Z</time>
      </trkpt>
      <trkpt lat="50.04925" lon="2.68611">
        <ele>154.4289551</ele>
        <time>2010-09-19T08:45:14Z</time>
      </trkpt>
      <trkpt lat="50.0493" lon="2.68623">
        <ele>153.4676514</ele>
        <time>2010-09-19T08:45:20Z</time>
      </trkpt>
      <trkpt lat="50.04932" lon="2.68625">
        <ele>153.4676514</ele>
        <time>2010-09-19T08:45:22Z</time>
      </trkpt>
      <trkpt lat="50.04945" lon="2.68637">
        <ele>153.9483643</ele>
        <time>2010-09-19T08:45:34Z</time>
      </trkpt>
      <trkpt lat="50.04954" lon="2.68646">
        <ele>153.4676514</ele>
        <time>2010-09-19T08:45:42Z</time>
      </trkpt>
      <trkpt lat="50.04962" lon="2.68655">
        <ele>152.0257568</ele>
        <time>2010-09-19T08:45:49Z</time>
      </trkpt>
      <trkpt lat="50.04967" lon="2.68659">
        <ele>152.9869385</ele>
        <time>2010-09-19T08:45:54Z</time>
      </trkpt>
      <trkpt lat="50.04974" lon="2.68662">
        <ele>155.8709717</ele>
        <time>2010-09-19T08:46:00Z</time>
      </trkpt>
      <trkpt lat="50.04977" lon="2.68668">
        <ele>157.3128662</ele>
        <time>2010-09-19T08:46:05Z</time>
      </trkpt>
      <trkpt lat="50.04985" lon="2.68673">
        <ele>159.2354736</ele>
        <time>2010-09-19T08:46:11Z</time>
      </trkpt>
      <trkpt lat="50.04988" lon="2.68677">
        <ele>159.7161865</ele>
        <time>2010-09-19T08:46:15Z</time>
      </trkpt>
      <trkpt lat="50.04995" lon="2.68685">
        <ele>157.3128662</ele>
        <time>2010-09-19T08:46:21Z</time>
      </trkpt>
      <trkpt lat="50.04996" lon="2.68686">
        <ele>156.3515625</ele>
        <time>2010-09-19T08:46:22Z</time>
      </trkpt>
      <trkpt lat="50.05001" lon="2.68692">
        <ele>154.4289551</ele>
        <time>2010-09-19T08:46:26Z</time>
      </trkpt>
      <trkpt lat="50.05014" lon="2.68701">
        <ele>154.9095459</ele>
        <time>2010-09-19T08:46:35Z</time>
      </trkpt>
      <trkpt lat="50.05026" lon="2.68712">
        <ele>156.3515625</ele>
        <time>2010-09-19T08:46:46Z</time>
      </trkpt>
      <trkpt lat="50.05038" lon="2.68724">
        <ele>156.3515625</ele>
        <time>2010-09-19T08:46:57Z</time>
      </trkpt>
      <trkpt lat="50.05048" lon="2.68732">
        <ele>156.8321533</ele>
        <time>2010-09-19T08:47:06Z</time>
      </trkpt>
      <trkpt lat="50.05059" lon="2.68741">
        <ele>158.7547607</ele>
        <time>2010-09-19T08:47:17Z</time>
      </trkpt>
      <trkpt lat="50.05064" lon="2.68745">
        <ele>159.2354736</ele>
        <time>2010-09-19T08:47:22Z</time>
      </trkpt>
      <trkpt lat="50.05073" lon="2.68757">
        <ele>159.7161865</ele>
        <time>2010-09-19T08:47:32Z</time>
      </trkpt>
      <trkpt lat="50.05085" lon="2.68769">
        <ele>159.2354736</ele>
        <time>2010-09-19T08:47:43Z</time>
      </trkpt>
      <trkpt lat="50.05093" lon="2.68778">
        <ele>159.2354736</ele>
        <time>2010-09-19T08:47:52Z</time>
      </trkpt>
      <trkpt lat="50.051" lon="2.68786">
        <ele>159.2354736</ele>
        <time>2010-09-19T08:47:59Z</time>
      </trkpt>
      <trkpt lat="50.05108" lon="2.68794">
        <ele>158.7547607</ele>
        <time>2010-09-19T08:48:08Z</time>
      </trkpt>
      <trkpt lat="50.05113" lon="2.68797">
        <ele>158.2741699</ele>
        <time>2010-09-19T08:48:16Z</time>
      </trkpt>
      <trkpt lat="50.05117" lon="2.68798">
        <ele>157.7935791</ele>
        <time>2010-09-19T08:48:23Z</time>
      </trkpt>
      <trkpt lat="50.0513" lon="2.68798">
        <ele>157.7935791</ele>
        <time>2010-09-19T08:48:28Z</time>
      </trkpt>
      <trkpt lat="50.05147" lon="2.68777">
        <ele>156.3515625</ele>
        <time>2010-09-19T08:48:34Z</time>
      </trkpt>
      <trkpt lat="50.05167" lon="2.68743">
        <ele>154.4289551</ele>
        <time>2010-09-19T08:48:41Z</time>
      </trkpt>
      <trkpt lat="50.05187" lon="2.68704">
        <ele>149.1416016</ele>
        <time>2010-09-19T08:48:49Z</time>
      </trkpt>
      <trkpt lat="50.05197" lon="2.68685">
        <ele>145.2963867</ele>
        <time>2010-09-19T08:48:53Z</time>
      </trkpt>
      <trkpt lat="50.05208" lon="2.6867">
        <ele>141.9317627</ele>
        <time>2010-09-19T08:48:56Z</time>
      </trkpt>
      <trkpt lat="50.05221" lon="2.68644">
        <ele>139.5284424</ele>
        <time>2010-09-19T08:49:00Z</time>
      </trkpt>
      <trkpt lat="50.05224" lon="2.68636">
        <ele>140.4898682</ele>
        <time>2010-09-19T08:49:01Z</time>
      </trkpt>
      <trkpt lat="50.05246" lon="2.68598">
        <ele>145.2963867</ele>
        <time>2010-09-19T08:49:06Z</time>
      </trkpt>
      <trkpt lat="50.05262" lon="2.68587">
        <ele>146.2578125</ele>
        <time>2010-09-19T08:49:10Z</time>
      </trkpt>
      <trkpt lat="50.0527" lon="2.68594">
        <ele>147.2189941</ele>
        <time>2010-09-19T08:49:12Z</time>
      </trkpt>
      <trkpt lat="50.05286" lon="2.68622">
        <ele>148.6610107</ele>
        <time>2010-09-19T08:49:17Z</time>
      </trkpt>
      <trkpt lat="50.05292" lon="2.68633">
        <ele>149.1416016</ele>
        <time>2010-09-19T08:49:19Z</time>
      </trkpt>
      <trkpt lat="50.05296" lon="2.68639">
        <ele>149.6223145</ele>
        <time>2010-09-19T08:49:20Z</time>
      </trkpt>
      <trkpt lat="50.05299" lon="2.68645">
        <ele>149.6223145</ele>
        <time>2010-09-19T08:49:21Z</time>
      </trkpt>
      <trkpt lat="50.05323" lon="2.68687">
        <ele>151.064209</ele>
        <time>2010-09-19T08:49:28Z</time>
      </trkpt>
      <trkpt lat="50.05349" lon="2.68732">
        <ele>152.0257568</ele>
        <time>2010-09-19T08:49:35Z</time>
      </trkpt>
      <trkpt lat="50.05374" lon="2.68774">
        <ele>152.5063477</ele>
        <time>2010-09-19T08:49:42Z</time>
      </trkpt>
      <trkpt lat="50.05388" lon="2.68798">
        <ele>152.5063477</ele>
        <time>2010-09-19T08:49:46Z</time>
      </trkpt>
      <trkpt lat="50.05405" lon="2.68814">
        <ele>153.4676514</ele>
        <time>2010-09-19T08:49:50Z</time>
      </trkpt>
      <trkpt lat="50.05441" lon="2.68832">
        <ele>152.5063477</ele>
        <time>2010-09-19T08:49:57Z</time>
      </trkpt>
      <trkpt lat="50.05495" lon="2.68857">
        <ele>152.5063477</ele>
        <time>2010-09-19T08:50:06Z</time>
      </trkpt>
      <trkpt lat="50.05549" lon="2.68885">
        <ele>153.4676514</ele>
        <time>2010-09-19T08:50:15Z</time>
      </trkpt>
      <trkpt lat="50.05585" lon="2.68905">
        <ele>153.9483643</ele>
        <time>2010-09-19T08:50:21Z</time>
      </trkpt>
      <trkpt lat="50.05618" lon="2.68922">
        <ele>153.9483643</ele>
        <time>2010-09-19T08:50:26Z</time>
      </trkpt>
      <trkpt lat="50.05696" lon="2.68959">
        <ele>154.9095459</ele>
        <time>2010-09-19T08:50:38Z</time>
      </trkpt>
      <trkpt lat="50.0575" lon="2.68983">
        <ele>155.8709717</ele>
        <time>2010-09-19T08:50:47Z</time>
      </trkpt>
      <trkpt lat="50.0576" lon="2.68986">
        <ele>155.8709717</ele>
        <time>2010-09-19T08:50:49Z</time>
      </trkpt>
      <trkpt lat="50.05782" lon="2.68975">
        <ele>154.9095459</ele>
        <time>2010-09-19T08:50:53Z</time>
      </trkpt>
      <trkpt lat="50.05818" lon="2.68949">
        <ele>153.9483643</ele>
        <time>2010-09-19T08:50:59Z</time>
      </trkpt>
      <trkpt lat="50.0587" lon="2.68908">
        <ele>154.9095459</ele>
        <time>2010-09-19T08:51:08Z</time>
      </trkpt>
      <trkpt lat="50.05917" lon="2.68875">
        <ele>153.9483643</ele>
        <time>2010-09-19T08:51:16Z</time>
      </trkpt>
      <trkpt lat="50.05955" lon="2.68855">
        <ele>153.9483643</ele>
        <time>2010-09-19T08:51:23Z</time>
      </trkpt>
      <trkpt lat="50.05991" lon="2.68832">
        <ele>152.9869385</ele>
        <time>2010-09-19T08:51:30Z</time>
      </trkpt>
      <trkpt lat="50.0603" lon="2.68804">
        <ele>153.9483643</ele>
        <time>2010-09-19T08:51:39Z</time>
      </trkpt>
      <trkpt lat="50.06051" lon="2.68788">
        <ele>155.3902588</ele>
        <time>2010-09-19T08:51:45Z</time>
      </trkpt>
      <trkpt lat="50.0606" lon="2.68781">
        <ele>156.3515625</ele>
        <time>2010-09-19T08:51:48Z</time>
      </trkpt>
      <trkpt lat="50.06089" lon="2.68764">
        <ele>158.2741699</ele>
        <time>2010-09-19T08:51:57Z</time>
      </trkpt>
      <trkpt lat="50.0612" lon="2.68751">
        <ele>159.2354736</ele>
        <time>2010-09-19T08:52:06Z</time>
      </trkpt>
      <trkpt lat="50.06159" lon="2.68733">
        <ele>160.1968994</ele>
        <time>2010-09-19T08:52:16Z</time>
      </trkpt>
      <trkpt lat="50.06198" lon="2.68708">
        <ele>161.1582031</ele>
        <time>2010-09-19T08:52:26Z</time>
      </trkpt>
      <trkpt lat="50.06231" lon="2.68684">
        <ele>160.6774902</ele>
        <time>2010-09-19T08:52:34Z</time>
      </trkpt>
      <trkpt lat="50.06275" lon="2.68657">
        <ele>159.7161865</ele>
        <time>2010-09-19T08:52:43Z</time>
      </trkpt>
      <trkpt lat="50.06296" lon="2.68649">
        <ele>159.2354736</ele>
        <time>2010-09-19T08:52:47Z</time>
      </trkpt>
      <trkpt lat="50.06323" lon="2.6864">
        <ele>158.2741699</ele>
        <time>2010-09-19T08:52:52Z</time>
      </trkpt>
      <trkpt lat="50.06355" lon="2.68624">
        <ele>156.3515625</ele>
        <time>2010-09-19T08:52:58Z</time>
      </trkpt>
      <trkpt lat="50.06383" lon="2.68602">
        <ele>153.9483643</ele>
        <time>2010-09-19T08:53:04Z</time>
      </trkpt>
      <trkpt lat="50.06411" lon="2.68567">
        <ele>151.064209</ele>
        <time>2010-09-19T08:53:10Z</time>
      </trkpt>
      <trkpt lat="50.06444" lon="2.68527">
        <ele>145.7770996</ele>
        <time>2010-09-19T08:53:17Z</time>
      </trkpt>
      <trkpt lat="50.06472" lon="2.68487">
        <ele>141.4510498</ele>
        <time>2010-09-19T08:53:23Z</time>
      </trkpt>
      <trkpt lat="50.06489" lon="2.68455">
        <ele>138.5672607</ele>
        <time>2010-09-19T08:53:27Z</time>
      </trkpt>
      <trkpt lat="50.06497" lon="2.68435">
        <ele>137.1252441</ele>
        <time>2010-09-19T08:53:29Z</time>
      </trkpt>
      <trkpt lat="50.06502" lon="2.68425">
        <ele>136.1639404</ele>
        <time>2010-09-19T08:53:30Z</time>
      </trkpt>
      <trkpt lat="50.06532" lon="2.68367">
        <ele>131.3572998</ele>
        <time>2010-09-19T08:53:36Z</time>
      </trkpt>
      <trkpt lat="50.06564" lon="2.68309">
        <ele>125.5893555</ele>
        <time>2010-09-19T08:53:42Z</time>
      </trkpt>
      <trkpt lat="50.06609" lon="2.68226">
        <ele>119.3408203</ele>
        <time>2010-09-19T08:53:50Z</time>
      </trkpt>
      <trkpt lat="50.06645" lon="2.6816">
        <ele>114.0535889</ele>
        <time>2010-09-19T08:53:57Z</time>
      </trkpt>
      <trkpt lat="50.06649" lon="2.68151">
        <ele>113.0922852</ele>
        <time>2010-09-19T08:53:58Z</time>
      </trkpt>
      <trkpt lat="50.06668" lon="2.68087">
        <ele>109.2469482</ele>
        <time>2010-09-19T08:54:04Z</time>
      </trkpt>
      <trkpt lat="50.06686" lon="2.68003">
        <ele>104.4404297</ele>
        <time>2010-09-19T08:54:11Z</time>
      </trkpt>
      <trkpt lat="50.06695" lon="2.67944">
        <ele>101.5563965</ele>
        <time>2010-09-19T08:54:16Z</time>
      </trkpt>
      <trkpt lat="50.06701" lon="2.67861">
        <ele>97.7111816</ele>
        <time>2010-09-19T08:54:23Z</time>
      </trkpt>
      <trkpt lat="50.06702" lon="2.67801">
        <ele>94.8271484</ele>
        <time>2010-09-19T08:54:28Z</time>
      </trkpt>
      <trkpt lat="50.06712" lon="2.67733">
        <ele>90.0206299</ele>
        <time>2010-09-19T08:54:34Z</time>
      </trkpt>
      <trkpt lat="50.06721" lon="2.67689">
        <ele>86.175293</ele>
        <time>2010-09-19T08:54:39Z</time>
      </trkpt>
      <trkpt lat="50.06725" lon="2.67674">
        <ele>84.2526855</ele>
        <time>2010-09-19T08:54:43Z</time>
      </trkpt>
      <trkpt lat="50.06731" lon="2.67673">
        <ele>83.7719727</ele>
        <time>2010-09-19T08:54:47Z</time>
      </trkpt>
      <trkpt lat="50.06747" lon="2.67686">
        <ele>84.7333984</ele>
        <time>2010-09-19T08:54:56Z</time>
      </trkpt>
      <trkpt lat="50.06763" lon="2.67697">
        <ele>85.6945801</ele>
        <time>2010-09-19T08:55:03Z</time>
      </trkpt>
      <trkpt lat="50.06781" lon="2.67712">
        <ele>85.6945801</ele>
        <time>2010-09-19T08:55:09Z</time>
      </trkpt>
      <trkpt lat="50.06804" lon="2.67731">
        <ele>86.175293</ele>
        <time>2010-09-19T08:55:14Z</time>
      </trkpt>
      <trkpt lat="50.06814" lon="2.67738">
        <ele>86.175293</ele>
        <time>2010-09-19T08:55:16Z</time>
      </trkpt>
      <trkpt lat="50.0684" lon="2.67758">
        <ele>87.1365967</ele>
        <time>2010-09-19T08:55:22Z</time>
      </trkpt>
      <trkpt lat="50.06871" lon="2.6778">
        <ele>87.1365967</ele>
        <time>2010-09-19T08:55:28Z</time>
      </trkpt>
      <trkpt lat="50.06934" lon="2.67827">
        <ele>87.1365967</ele>
        <time>2010-09-19T08:55:39Z</time>
      </trkpt>
      <trkpt lat="50.06961" lon="2.67853">
        <ele>87.6171875</ele>
        <time>2010-09-19T08:55:44Z</time>
      </trkpt>
      <trkpt lat="50.06986" lon="2.67888">
        <ele>87.1365967</ele>
        <time>2010-09-19T08:55:49Z</time>
      </trkpt>
      <trkpt lat="50.07018" lon="2.67931">
        <ele>87.1365967</ele>
        <time>2010-09-19T08:55:55Z</time>
      </trkpt>
      <trkpt lat="50.07065" lon="2.6799">
        <ele>87.6171875</ele>
        <time>2010-09-19T08:56:04Z</time>
      </trkpt>
      <trkpt lat="50.071" lon="2.68042">
        <ele>87.6171875</ele>
        <time>2010-09-19T08:56:11Z</time>
      </trkpt>
      <trkpt lat="50.07113" lon="2.68063">
        <ele>86.6560059</ele>
        <time>2010-09-19T08:56:14Z</time>
      </trkpt>
      <trkpt lat="50.07127" lon="2.68069">
        <ele>87.1365967</ele>
        <time>2010-09-19T08:56:17Z</time>
      </trkpt>
      <trkpt lat="50.07135" lon="2.68058">
        <ele>86.6560059</ele>
        <time>2010-09-19T08:56:19Z</time>
      </trkpt>
      <trkpt lat="50.07166" lon="2.67994">
        <ele>85.2139893</ele>
        <time>2010-09-19T08:56:27Z</time>
      </trkpt>
      <trkpt lat="50.07196" lon="2.67933">
        <ele>83.7719727</ele>
        <time>2010-09-19T08:56:34Z</time>
      </trkpt>
      <trkpt lat="50.07221" lon="2.67883">
        <ele>82.810791</ele>
        <time>2010-09-19T08:56:40Z</time>
      </trkpt>
      <trkpt lat="50.07255" lon="2.67833">
        <ele>78.9654541</ele>
        <time>2010-09-19T08:56:47Z</time>
      </trkpt>
      <trkpt lat="50.07295" lon="2.67778">
        <ele>76.0814209</ele>
        <time>2010-09-19T08:56:56Z</time>
      </trkpt>
      <trkpt lat="50.07325" lon="2.67737">
        <ele>75.1202393</ele>
        <time>2010-09-19T08:57:03Z</time>
      </trkpt>
      <trkpt lat="50.07345" lon="2.67729">
        <ele>75.1202393</ele>
        <time>2010-09-19T08:57:07Z</time>
      </trkpt>
      <trkpt lat="50.07389" lon="2.67732">
        <ele>80.4074707</ele>
        <time>2010-09-19T08:57:15Z</time>
      </trkpt>
      <trkpt lat="50.07433" lon="2.67731">
        <ele>82.3300781</ele>
        <time>2010-09-19T08:57:23Z</time>
      </trkpt>
      <trkpt lat="50.07458" lon="2.67712">
        <ele>82.810791</ele>
        <time>2010-09-19T08:57:29Z</time>
      </trkpt>
      <trkpt lat="50.0746" lon="2.67709">
        <ele>82.810791</ele>
        <time>2010-09-19T08:57:30Z</time>
      </trkpt>
      <trkpt lat="50.07472" lon="2.67679">
        <ele>83.2913818</ele>
        <time>2010-09-19T08:57:35Z</time>
      </trkpt>
      <trkpt lat="50.07485" lon="2.67625">
        <ele>83.7719727</ele>
        <time>2010-09-19T08:57:43Z</time>
      </trkpt>
      <trkpt lat="50.07488" lon="2.67614">
        <ele>83.7719727</ele>
        <time>2010-09-19T08:57:45Z</time>
      </trkpt>
      <trkpt lat="50.07497" lon="2.6761">
        <ele>83.2913818</ele>
        <time>2010-09-19T08:57:49Z</time>
      </trkpt>
      <trkpt lat="50.07499" lon="2.67614">
        <ele>83.2913818</ele>
        <time>2010-09-19T08:57:50Z</time>
      </trkpt>
      <trkpt lat="50.07504" lon="2.67626">
        <ele>84.2526855</ele>
        <time>2010-09-19T08:57:54Z</time>
      </trkpt>
      <trkpt lat="50.07504" lon="2.67627">
        <ele>84.7333984</ele>
        <time>2010-09-19T08:57:57Z</time>
      </trkpt>
      <trkpt lat="50.07504" lon="2.67633">
        <ele>86.175293</ele>
        <time>2010-09-19T08:58:40Z</time>
      </trkpt>
      <trkpt lat="50.07504" lon="2.67637">
        <ele>86.175293</ele>
        <time>2010-09-19T08:58:41Z</time>
      </trkpt>
      <trkpt lat="50.07509" lon="2.67656">
        <ele>86.175293</ele>
        <time>2010-09-19T08:58:44Z</time>
      </trkpt>
      <trkpt lat="50.07515" lon="2.67674">
        <ele>87.1365967</ele>
        <time>2010-09-19T08:58:47Z</time>
      </trkpt>
      <trkpt lat="50.07527" lon="2.67706">
        <ele>88.5787354</ele>
        <time>2010-09-19T08:58:52Z</time>
      </trkpt>
      <trkpt lat="50.07535" lon="2.67729">
        <ele>88.5787354</ele>
        <time>2010-09-19T08:58:55Z</time>
      </trkpt>
      <trkpt lat="50.07561" lon="2.67789">
        <ele>90.0206299</ele>
        <time>2010-09-19T08:59:03Z</time>
      </trkpt>
      <trkpt lat="50.07578" lon="2.67826">
        <ele>90.9819336</ele>
        <time>2010-09-19T08:59:08Z</time>
      </trkpt>
      <trkpt lat="50.0761" lon="2.67887">
        <ele>92.904541</ele>
        <time>2010-09-19T08:59:17Z</time>
      </trkpt>
      <trkpt lat="50.07635" lon="2.67935">
        <ele>93.8658447</ele>
        <time>2010-09-19T08:59:24Z</time>
      </trkpt>
      <trkpt lat="50.07657" lon="2.67991">
        <ele>94.3465576</ele>
        <time>2010-09-19T08:59:32Z</time>
      </trkpt>
      <trkpt lat="50.07691" lon="2.6808">
        <ele>95.7884521</ele>
        <time>2010-09-19T08:59:45Z</time>
      </trkpt>
      <trkpt lat="50.07716" lon="2.68145">
        <ele>96.7498779</ele>
        <time>2010-09-19T08:59:55Z</time>
      </trkpt>
      <trkpt lat="50.07735" lon="2.68201">
        <ele>98.6724854</ele>
        <time>2010-09-19T09:00:04Z</time>
      </trkpt>
      <trkpt lat="50.0775" lon="2.68258">
        <ele>102.0371094</ele>
        <time>2010-09-19T09:00:13Z</time>
      </trkpt>
      <trkpt lat="50.07764" lon="2.68297">
        <ele>103.4790039</ele>
        <time>2010-09-19T09:00:20Z</time>
      </trkpt>
      <trkpt lat="50.07766" lon="2.68302">
        <ele>103.9597168</ele>
        <time>2010-09-19T09:00:21Z</time>
      </trkpt>
      <trkpt lat="50.07781" lon="2.68349">
        <ele>103.9597168</ele>
        <time>2010-09-19T09:00:30Z</time>
      </trkpt>
      <trkpt lat="50.07803" lon="2.68391">
        <ele>105.8824463</ele>
        <time>2010-09-19T09:00:39Z</time>
      </trkpt>
      <trkpt lat="50.07825" lon="2.68419">
        <ele>108.7662354</ele>
        <time>2010-09-19T09:00:47Z</time>
      </trkpt>
      <trkpt lat="50.07853" lon="2.68448">
        <ele>110.208252</ele>
        <time>2010-09-19T09:00:57Z</time>
      </trkpt>
      <trkpt lat="50.07881" lon="2.68477">
        <ele>110.6888428</ele>
        <time>2010-09-19T09:01:06Z</time>
      </trkpt>
      <trkpt lat="50.07908" lon="2.68511">
        <ele>109.7276611</ele>
        <time>2010-09-19T09:01:14Z</time>
      </trkpt>
      <trkpt lat="50.07937" lon="2.68553">
        <ele>109.2469482</ele>
        <time>2010-09-19T09:01:21Z</time>
      </trkpt>
      <trkpt lat="50.0794" lon="2.68559">
        <ele>109.2469482</ele>
        <time>2010-09-19T09:01:22Z</time>
      </trkpt>
      <trkpt lat="50.07952" lon="2.6858">
        <ele>109.7276611</ele>
        <time>2010-09-19T09:01:25Z</time>
      </trkpt>
      <trkpt lat="50.07967" lon="2.68615">
        <ele>110.208252</ele>
        <time>2010-09-19T09:01:30Z</time>
      </trkpt>
      <trkpt lat="50.07983" lon="2.68661">
        <ele>108.7662354</ele>
        <time>2010-09-19T09:01:36Z</time>
      </trkpt>
      <trkpt lat="50.07983" lon="2.6868">
        <ele>106.8436279</ele>
        <time>2010-09-19T09:01:40Z</time>
      </trkpt>
      <trkpt lat="50.0798" lon="2.68686">
        <ele>106.3630371</ele>
        <time>2010-09-19T09:01:41Z</time>
      </trkpt>
      <trkpt lat="50.07953" lon="2.68729">
        <ele>102.0371094</ele>
        <time>2010-09-19T09:01:47Z</time>
      </trkpt>
      <trkpt lat="50.07944" lon="2.68742">
        <ele>100.114502</ele>
        <time>2010-09-19T09:01:49Z</time>
      </trkpt>
      <trkpt lat="50.07923" lon="2.68749">
        <ele>95.3077393</ele>
        <time>2010-09-19T09:01:53Z</time>
      </trkpt>
      <trkpt lat="50.07909" lon="2.6873">
        <ele>93.3851318</ele>
        <time>2010-09-19T09:01:56Z</time>
      </trkpt>
      <trkpt lat="50.07877" lon="2.68668">
        <ele>90.5013428</ele>
        <time>2010-09-19T09:02:03Z</time>
      </trkpt>
      <trkpt lat="50.07855" lon="2.68638">
        <ele>89.0593262</ele>
        <time>2010-09-19T09:02:07Z</time>
      </trkpt>
      <trkpt lat="50.07838" lon="2.68618">
        <ele>88.0980225</ele>
        <time>2010-09-19T09:02:11Z</time>
      </trkpt>
      <trkpt lat="50.07836" lon="2.68616">
        <ele>88.5787354</ele>
        <time>2010-09-19T09:02:12Z</time>
      </trkpt>
      <trkpt lat="50.07835" lon="2.68614">
        <ele>88.5787354</ele>
        <time>2010-09-19T09:02:15Z</time>
      </trkpt>
      <trkpt lat="50.0782" lon="2.6862">
        <ele>88.0980225</ele>
        <time>2010-09-19T09:15:09Z</time>
      </trkpt>
      <trkpt lat="50.07816" lon="2.6862">
        <ele>87.1365967</ele>
        <time>2010-09-19T09:15:10Z</time>
      </trkpt>
      <trkpt lat="50.07813" lon="2.6862">
        <ele>86.6560059</ele>
        <time>2010-09-19T09:15:11Z</time>
      </trkpt>
      <trkpt lat="50.07793" lon="2.68633">
        <ele>85.2139893</ele>
        <time>2010-09-19T09:15:16Z</time>
      </trkpt>
      <trkpt lat="50.07791" lon="2.68639">
        <ele>85.2139893</ele>
        <time>2010-09-19T09:15:17Z</time>
      </trkpt>
      <trkpt lat="50.07792" lon="2.68664">
        <ele>84.2526855</ele>
        <time>2010-09-19T09:15:21Z</time>
      </trkpt>
      <trkpt lat="50.07794" lon="2.68683">
        <ele>85.2139893</ele>
        <time>2010-09-19T09:15:24Z</time>
      </trkpt>
      <trkpt lat="50.078" lon="2.68707">
        <ele>86.175293</ele>
        <time>2010-09-19T09:15:28Z</time>
      </trkpt>
      <trkpt lat="50.07803" lon="2.68731">
        <ele>85.2139893</ele>
        <time>2010-09-19T09:15:32Z</time>
      </trkpt>
      <trkpt lat="50.07809" lon="2.68775">
        <ele>85.2139893</ele>
        <time>2010-09-19T09:15:39Z</time>
      </trkpt>
      <trkpt lat="50.07812" lon="2.68802">
        <ele>85.6945801</ele>
        <time>2010-09-19T09:15:43Z</time>
      </trkpt>
      <trkpt lat="50.07814" lon="2.68825">
        <ele>87.1365967</ele>
        <time>2010-09-19T09:15:46Z</time>
      </trkpt>
      <trkpt lat="50.07824" lon="2.68858">
        <ele>90.0206299</ele>
        <time>2010-09-19T09:15:51Z</time>
      </trkpt>
      <trkpt lat="50.07836" lon="2.6888">
        <ele>92.904541</ele>
        <time>2010-09-19T09:15:56Z</time>
      </trkpt>
      <trkpt lat="50.07869" lon="2.68908">
        <ele>96.2692871</ele>
        <time>2010-09-19T09:16:04Z</time>
      </trkpt>
      <trkpt lat="50.07881" lon="2.6892">
        <ele>95.7884521</ele>
        <time>2010-09-19T09:16:07Z</time>
      </trkpt>
      <trkpt lat="50.07894" lon="2.68946">
        <ele>94.8271484</ele>
        <time>2010-09-19T09:16:12Z</time>
      </trkpt>
      <trkpt lat="50.07908" lon="2.68977">
        <ele>95.7884521</ele>
        <time>2010-09-19T09:16:17Z</time>
      </trkpt>
      <trkpt lat="50.07917" lon="2.68995">
        <ele>94.3465576</ele>
        <time>2010-09-19T09:16:20Z</time>
      </trkpt>
      <trkpt lat="50.07937" lon="2.69024">
        <ele>92.4239502</ele>
        <time>2010-09-19T09:16:25Z</time>
      </trkpt>
      <trkpt lat="50.07938" lon="2.69044">
        <ele>90.5013428</ele>
        <time>2010-09-19T09:16:29Z</time>
      </trkpt>
      <trkpt lat="50.07935" lon="2.69049">
        <ele>90.0206299</ele>
        <time>2010-09-19T09:16:30Z</time>
      </trkpt>
      <trkpt lat="50.07916" lon="2.69092">
        <ele>85.6945801</ele>
        <time>2010-09-19T09:16:37Z</time>
      </trkpt>
      <trkpt lat="50.07896" lon="2.69134">
        <ele>82.810791</ele>
        <time>2010-09-19T09:16:43Z</time>
      </trkpt>
      <trkpt lat="50.07886" lon="2.69156">
        <ele>82.3300781</ele>
        <time>2010-09-19T09:16:46Z</time>
      </trkpt>
      <trkpt lat="50.07882" lon="2.69189">
        <ele>82.810791</ele>
        <time>2010-09-19T09:16:50Z</time>
      </trkpt>
      <trkpt lat="50.07895" lon="2.69217">
        <ele>84.2526855</ele>
        <time>2010-09-19T09:16:54Z</time>
      </trkpt>
      <trkpt lat="50.07939" lon="2.69258">
        <ele>86.175293</ele>
        <time>2010-09-19T09:17:03Z</time>
      </trkpt>
      <trkpt lat="50.07944" lon="2.69282">
        <ele>86.6560059</ele>
        <time>2010-09-19T09:17:07Z</time>
      </trkpt>
      <trkpt lat="50.07938" lon="2.69292">
        <ele>86.175293</ele>
        <time>2010-09-19T09:17:09Z</time>
      </trkpt>
      <trkpt lat="50.0792" lon="2.69341">
        <ele>85.2139893</ele>
        <time>2010-09-19T09:17:16Z</time>
      </trkpt>
      <trkpt lat="50.07917" lon="2.69383">
        <ele>85.6945801</ele>
        <time>2010-09-19T09:17:21Z</time>
      </trkpt>
      <trkpt lat="50.07915" lon="2.69405">
        <ele>85.6945801</ele>
        <time>2010-09-19T09:17:26Z</time>
      </trkpt>
      <trkpt lat="50.07913" lon="2.69406">
        <ele>85.6945801</ele>
        <time>2010-09-19T09:17:27Z</time>
      </trkpt>
      <trkpt lat="50.07907" lon="2.69409">
        <ele>86.175293</ele>
        <time>2010-09-19T09:17:30Z</time>
      </trkpt>
      <trkpt lat="50.07905" lon="2.69418">
        <ele>86.6560059</ele>
        <time>2010-09-19T09:17:35Z</time>
      </trkpt>
      <trkpt lat="50.07905" lon="2.69427">
        <ele>87.1365967</ele>
        <time>2010-09-19T09:17:38Z</time>
      </trkpt>
      <trkpt lat="50.07903" lon="2.69467">
        <ele>90.9819336</ele>
        <time>2010-09-19T09:17:45Z</time>
      </trkpt>
      <trkpt lat="50.07904" lon="2.69493">
        <ele>93.3851318</ele>
        <time>2010-09-19T09:17:48Z</time>
      </trkpt>
      <trkpt lat="50.07918" lon="2.69529">
        <ele>93.8658447</ele>
        <time>2010-09-19T09:17:53Z</time>
      </trkpt>
      <trkpt lat="50.07927" lon="2.69564">
        <ele>96.2692871</ele>
        <time>2010-09-19T09:17:58Z</time>
      </trkpt>
      <trkpt lat="50.07932" lon="2.69577">
        <ele>97.2304688</ele>
        <time>2010-09-19T09:18:00Z</time>
      </trkpt>
      <trkpt lat="50.07935" lon="2.6959">
        <ele>98.1918945</ele>
        <time>2010-09-19T09:18:02Z</time>
      </trkpt>
      <trkpt lat="50.07939" lon="2.69611">
        <ele>98.6724854</ele>
        <time>2010-09-19T09:18:05Z</time>
      </trkpt>
      <trkpt lat="50.07941" lon="2.69635">
        <ele>99.6337891</ele>
        <time>2010-09-19T09:18:11Z</time>
      </trkpt>
      <trkpt lat="50.07942" lon="2.69636">
        <ele>98.1918945</ele>
        <time>2010-09-19T09:18:14Z</time>
      </trkpt>
      <trkpt lat="50.07923" lon="2.69635">
        <ele>98.6724854</ele>
        <time>2010-09-19T09:18:26Z</time>
      </trkpt>
      <trkpt lat="50.07916" lon="2.6963">
        <ele>97.2304688</ele>
        <time>2010-09-19T09:18:29Z</time>
      </trkpt>
      <trkpt lat="50.07915" lon="2.69633">
        <ele>95.7884521</ele>
        <time>2010-09-19T09:18:35Z</time>
      </trkpt>
      <trkpt lat="50.07913" lon="2.69638">
        <ele>93.8658447</ele>
        <time>2010-09-19T09:18:38Z</time>
      </trkpt>
      <trkpt lat="50.07911" lon="2.69644">
        <ele>90.9819336</ele>
        <time>2010-09-19T09:18:44Z</time>
      </trkpt>
      <trkpt lat="50.07907" lon="2.69658">
        <ele>88.5787354</ele>
        <time>2010-09-19T09:18:49Z</time>
      </trkpt>
      <trkpt lat="50.07897" lon="2.69681">
        <ele>87.6171875</ele>
        <time>2010-09-19T09:18:55Z</time>
      </trkpt>
      <trkpt lat="50.07882" lon="2.69701">
        <ele>84.2526855</ele>
        <time>2010-09-19T09:19:01Z</time>
      </trkpt>
      <trkpt lat="50.07866" lon="2.6971">
        <ele>82.810791</ele>
        <time>2010-09-19T09:19:07Z</time>
      </trkpt>
      <trkpt lat="50.07842" lon="2.69718">
        <ele>82.3300781</ele>
        <time>2010-09-19T09:19:13Z</time>
      </trkpt>
      <trkpt lat="50.07806" lon="2.69733">
        <ele>82.3300781</ele>
        <time>2010-09-19T09:19:21Z</time>
      </trkpt>
      <trkpt lat="50.07768" lon="2.69747">
        <ele>82.3300781</ele>
        <time>2010-09-19T09:19:29Z</time>
      </trkpt>
      <trkpt lat="50.07746" lon="2.69755">
        <ele>83.2913818</ele>
        <time>2010-09-19T09:19:34Z</time>
      </trkpt>
      <trkpt lat="50.07738" lon="2.69772">
        <ele>85.2139893</ele>
        <time>2010-09-19T09:19:39Z</time>
      </trkpt>
      <trkpt lat="50.07738" lon="2.69778">
        <ele>85.2139893</ele>
        <time>2010-09-19T09:19:40Z</time>
      </trkpt>
      <trkpt lat="50.07747" lon="2.69848">
        <ele>87.6171875</ele>
        <time>2010-09-19T09:19:49Z</time>
      </trkpt>
      <trkpt lat="50.07759" lon="2.69926">
        <ele>89.539917</ele>
        <time>2010-09-19T09:19:58Z</time>
      </trkpt>
      <trkpt lat="50.07769" lon="2.69989">
        <ele>90.9819336</ele>
        <time>2010-09-19T09:20:05Z</time>
      </trkpt>
      <trkpt lat="50.0778" lon="2.70038">
        <ele>91.4625244</ele>
        <time>2010-09-19T09:20:11Z</time>
      </trkpt>
      <trkpt lat="50.07792" lon="2.70082">
        <ele>92.904541</ele>
        <time>2010-09-19T09:20:17Z</time>
      </trkpt>
      <trkpt lat="50.0781" lon="2.70125">
        <ele>93.3851318</ele>
        <time>2010-09-19T09:20:23Z</time>
      </trkpt>
      <trkpt lat="50.0781" lon="2.70142">
        <ele>92.4239502</ele>
        <time>2010-09-19T09:20:27Z</time>
      </trkpt>
      <trkpt lat="50.07799" lon="2.70153">
        <ele>92.904541</ele>
        <time>2010-09-19T09:20:31Z</time>
      </trkpt>
      <trkpt lat="50.07795" lon="2.70155">
        <ele>93.3851318</ele>
        <time>2010-09-19T09:20:32Z</time>
      </trkpt>
      <trkpt lat="50.07775" lon="2.70168">
        <ele>95.7884521</ele>
        <time>2010-09-19T09:20:38Z</time>
      </trkpt>
      <trkpt lat="50.07757" lon="2.70179">
        <ele>98.1918945</ele>
        <time>2010-09-19T09:20:43Z</time>
      </trkpt>
      <trkpt lat="50.0774" lon="2.70195">
        <ele>99.6337891</ele>
        <time>2010-09-19T09:20:49Z</time>
      </trkpt>
      <trkpt lat="50.0773" lon="2.70223">
        <ele>100.114502</ele>
        <time>2010-09-19T09:20:55Z</time>
      </trkpt>
      <trkpt lat="50.07724" lon="2.70251">
        <ele>99.6337891</ele>
        <time>2010-09-19T09:21:00Z</time>
      </trkpt>
      <trkpt lat="50.07726" lon="2.70293">
        <ele>99.1530762</ele>
        <time>2010-09-19T09:21:07Z</time>
      </trkpt>
      <trkpt lat="50.07733" lon="2.70346">
        <ele>100.114502</ele>
        <time>2010-09-19T09:21:17Z</time>
      </trkpt>
      <trkpt lat="50.07727" lon="2.7037">
        <ele>100.5950928</ele>
        <time>2010-09-19T09:21:23Z</time>
      </trkpt>
      <trkpt lat="50.07716" lon="2.70393">
        <ele>101.5563965</ele>
        <time>2010-09-19T09:21:32Z</time>
      </trkpt>
      <trkpt lat="50.07709" lon="2.70403">
        <ele>102.5177002</ele>
        <time>2010-09-19T09:21:38Z</time>
      </trkpt>
      <trkpt lat="50.07694" lon="2.70417">
        <ele>103.4790039</ele>
        <time>2010-09-19T09:21:47Z</time>
      </trkpt>
      <trkpt lat="50.07682" lon="2.70428">
        <ele>104.4404297</ele>
        <time>2010-09-19T09:21:54Z</time>
      </trkpt>
      <trkpt lat="50.07662" lon="2.70443">
        <ele>106.3630371</ele>
        <time>2010-09-19T09:22:05Z</time>
      </trkpt>
      <trkpt lat="50.07647" lon="2.70462">
        <ele>108.2856445</ele>
        <time>2010-09-19T09:22:15Z</time>
      </trkpt>
      <trkpt lat="50.07636" lon="2.70482">
        <ele>108.7662354</ele>
        <time>2010-09-19T09:22:23Z</time>
      </trkpt>
      <trkpt lat="50.07622" lon="2.70507">
        <ele>110.208252</ele>
        <time>2010-09-19T09:22:33Z</time>
      </trkpt>
      <trkpt lat="50.0761" lon="2.7053">
        <ele>111.1695557</ele>
        <time>2010-09-19T09:22:42Z</time>
      </trkpt>
      <trkpt lat="50.07594" lon="2.70553">
        <ele>113.0922852</ele>
        <time>2010-09-19T09:22:52Z</time>
      </trkpt>
      <trkpt lat="50.07579" lon="2.70569">
        <ele>114.5341797</ele>
        <time>2010-09-19T09:23:00Z</time>
      </trkpt>
      <trkpt lat="50.0756" lon="2.70585">
        <ele>115.0148926</ele>
        <time>2010-09-19T09:23:10Z</time>
      </trkpt>
      <trkpt lat="50.07538" lon="2.70599">
        <ele>115.4956055</ele>
        <time>2010-09-19T09:23:21Z</time>
      </trkpt>
      <trkpt lat="50.07513" lon="2.70614">
        <ele>117.4182129</ele>
        <time>2010-09-19T09:23:33Z</time>
      </trkpt>
      <trkpt lat="50.0749" lon="2.70626">
        <ele>119.3408203</ele>
        <time>2010-09-19T09:23:44Z</time>
      </trkpt>
      <trkpt lat="50.07465" lon="2.70636">
        <ele>121.2635498</ele>
        <time>2010-09-19T09:23:55Z</time>
      </trkpt>
      <trkpt lat="50.07433" lon="2.70648">
        <ele>122.7054443</ele>
        <time>2010-09-19T09:24:09Z</time>
      </trkpt>
      <trkpt lat="50.07411" lon="2.70657">
        <ele>124.1473389</ele>
        <time>2010-09-19T09:24:19Z</time>
      </trkpt>
      <trkpt lat="50.07382" lon="2.70667">
        <ele>125.5893555</ele>
        <time>2010-09-19T09:24:31Z</time>
      </trkpt>
      <trkpt lat="50.07359" lon="2.70675">
        <ele>127.0313721</ele>
        <time>2010-09-19T09:24:41Z</time>
      </trkpt>
      <trkpt lat="50.07335" lon="2.70683">
        <ele>127.9925537</ele>
        <time>2010-09-19T09:24:52Z</time>
      </trkpt>
      <trkpt lat="50.0731" lon="2.7069">
        <ele>128.9541016</ele>
        <time>2010-09-19T09:25:02Z</time>
      </trkpt>
      <trkpt lat="50.07284" lon="2.70697">
        <ele>129.9152832</ele>
        <time>2010-09-19T09:25:12Z</time>
      </trkpt>
      <trkpt lat="50.07256" lon="2.70704">
        <ele>130.876709</ele>
        <time>2010-09-19T09:25:21Z</time>
      </trkpt>
      <trkpt lat="50.07234" lon="2.70713">
        <ele>131.8378906</ele>
        <time>2010-09-19T09:25:28Z</time>
      </trkpt>
      <trkpt lat="50.07236" lon="2.70726">
        <ele>132.3186035</ele>
        <time>2010-09-19T09:25:32Z</time>
      </trkpt>
      <trkpt lat="50.07239" lon="2.70729">
        <ele>132.3186035</ele>
        <time>2010-09-19T09:25:33Z</time>
      </trkpt>
      <trkpt lat="50.07273" lon="2.70759">
        <ele>131.8378906</ele>
        <time>2010-09-19T09:25:41Z</time>
      </trkpt>
      <trkpt lat="50.07299" lon="2.70782">
        <ele>131.3572998</ele>
        <time>2010-09-19T09:25:46Z</time>
      </trkpt>
      <trkpt lat="50.07323" lon="2.70802">
        <ele>130.876709</ele>
        <time>2010-09-19T09:25:50Z</time>
      </trkpt>
      <trkpt lat="50.07355" lon="2.70828">
        <ele>129.9152832</ele>
        <time>2010-09-19T09:25:55Z</time>
      </trkpt>
      <trkpt lat="50.07382" lon="2.70844">
        <ele>128.9541016</ele>
        <time>2010-09-19T09:25:59Z</time>
      </trkpt>
      <trkpt lat="50.07395" lon="2.70868">
        <ele>128.9541016</ele>
        <time>2010-09-19T09:26:03Z</time>
      </trkpt>
      <trkpt lat="50.07403" lon="2.70894">
        <ele>129.4346924</ele>
        <time>2010-09-19T09:26:08Z</time>
      </trkpt>
      <trkpt lat="50.07406" lon="2.70897">
        <ele>129.4346924</ele>
        <time>2010-09-19T09:26:09Z</time>
      </trkpt>
      <trkpt lat="50.07421" lon="2.70912">
        <ele>129.4346924</ele>
        <time>2010-09-19T09:26:14Z</time>
      </trkpt>
      <trkpt lat="50.07435" lon="2.70915">
        <ele>129.4346924</ele>
        <time>2010-09-19T09:26:18Z</time>
      </trkpt>
      <trkpt lat="50.07442" lon="2.70904">
        <ele>129.4346924</ele>
        <time>2010-09-19T09:26:21Z</time>
      </trkpt>
      <trkpt lat="50.07459" lon="2.70898">
        <ele>128.4733887</ele>
        <time>2010-09-19T09:26:26Z</time>
      </trkpt>
      <trkpt lat="50.07465" lon="2.70909">
        <ele>127.9925537</ele>
        <time>2010-09-19T09:26:29Z</time>
      </trkpt>
      <trkpt lat="50.07459" lon="2.70919">
        <ele>127.5119629</ele>
        <time>2010-09-19T09:26:32Z</time>
      </trkpt>
      <trkpt lat="50.07431" lon="2.7094">
        <ele>127.5119629</ele>
        <time>2010-09-19T09:26:39Z</time>
      </trkpt>
      <trkpt lat="50.07417" lon="2.70949">
        <ele>127.9925537</ele>
        <time>2010-09-19T09:26:42Z</time>
      </trkpt>
      <trkpt lat="50.07381" lon="2.70968">
        <ele>129.4346924</ele>
        <time>2010-09-19T09:26:50Z</time>
      </trkpt>
      <trkpt lat="50.07352" lon="2.70975">
        <ele>130.3959961</ele>
        <time>2010-09-19T09:26:56Z</time>
      </trkpt>
      <trkpt lat="50.07302" lon="2.70974">
        <ele>131.8378906</ele>
        <time>2010-09-19T09:27:06Z</time>
      </trkpt>
      <trkpt lat="50.07254" lon="2.70964">
        <ele>132.3186035</ele>
        <time>2010-09-19T09:27:16Z</time>
      </trkpt>
      <trkpt lat="50.07224" lon="2.70944">
        <ele>133.2799072</ele>
        <time>2010-09-19T09:27:23Z</time>
      </trkpt>
      <trkpt lat="50.07185" lon="2.7091">
        <ele>134.2412109</ele>
        <time>2010-09-19T09:27:33Z</time>
      </trkpt>
      <trkpt lat="50.0717" lon="2.70898">
        <ele>134.7219238</ele>
        <time>2010-09-19T09:27:37Z</time>
      </trkpt>
      <trkpt lat="50.07157" lon="2.70902">
        <ele>135.2025146</ele>
        <time>2010-09-19T09:27:41Z</time>
      </trkpt>
      <trkpt lat="50.07155" lon="2.70906">
        <ele>135.2025146</ele>
        <time>2010-09-19T09:27:42Z</time>
      </trkpt>
      <trkpt lat="50.07138" lon="2.70944">
        <ele>132.7993164</ele>
        <time>2010-09-19T09:27:49Z</time>
      </trkpt>
      <trkpt lat="50.07118" lon="2.70985">
        <ele>130.876709</ele>
        <time>2010-09-19T09:27:55Z</time>
      </trkpt>
      <trkpt lat="50.07095" lon="2.71022">
        <ele>129.4346924</ele>
        <time>2010-09-19T09:28:01Z</time>
      </trkpt>
      <trkpt lat="50.07091" lon="2.71027">
        <ele>128.9541016</ele>
        <time>2010-09-19T09:28:02Z</time>
      </trkpt>
      <trkpt lat="50.07064" lon="2.71051">
        <ele>128.4733887</ele>
        <time>2010-09-19T09:28:08Z</time>
      </trkpt>
      <trkpt lat="50.07019" lon="2.71095">
        <ele>127.5119629</ele>
        <time>2010-09-19T09:28:18Z</time>
      </trkpt>
      <trkpt lat="50.06995" lon="2.71121">
        <ele>128.4733887</ele>
        <time>2010-09-19T09:28:24Z</time>
      </trkpt>
      <trkpt lat="50.06979" lon="2.71139">
        <ele>129.9152832</ele>
        <time>2010-09-19T09:28:29Z</time>
      </trkpt>
      <trkpt lat="50.06967" lon="2.71152">
        <ele>130.876709</ele>
        <time>2010-09-19T09:28:33Z</time>
      </trkpt>
      <trkpt lat="50.06948" lon="2.71172">
        <ele>132.3186035</ele>
        <time>2010-09-19T09:28:40Z</time>
      </trkpt>
      <trkpt lat="50.06936" lon="2.71187">
        <ele>133.2799072</ele>
        <time>2010-09-19T09:28:45Z</time>
      </trkpt>
      <trkpt lat="50.06932" lon="2.71193">
        <ele>133.760498</ele>
        <time>2010-09-19T09:28:47Z</time>
      </trkpt>
      <trkpt lat="50.06922" lon="2.71212">
        <ele>134.7219238</ele>
        <time>2010-09-19T09:28:52Z</time>
      </trkpt>
      <trkpt lat="50.06902" lon="2.71248">
        <ele>136.1639404</ele>
        <time>2010-09-19T09:29:02Z</time>
      </trkpt>
      <trkpt lat="50.06877" lon="2.71289">
        <ele>137.1252441</ele>
        <time>2010-09-19T09:29:13Z</time>
      </trkpt>
      <trkpt lat="50.06854" lon="2.71327">
        <ele>137.605835</ele>
        <time>2010-09-19T09:29:24Z</time>
      </trkpt>
      <trkpt lat="50.06831" lon="2.71365">
        <ele>139.0478516</ele>
        <time>2010-09-19T09:29:35Z</time>
      </trkpt>
      <trkpt lat="50.06807" lon="2.71403">
        <ele>140.0091553</ele>
        <time>2010-09-19T09:29:46Z</time>
      </trkpt>
      <trkpt lat="50.06789" lon="2.7143">
        <ele>141.4510498</ele>
        <time>2010-09-19T09:29:53Z</time>
      </trkpt>
      <trkpt lat="50.06769" lon="2.71462">
        <ele>142.4124756</ele>
        <time>2010-09-19T09:30:01Z</time>
      </trkpt>
      <trkpt lat="50.06748" lon="2.71496">
        <ele>142.8930664</ele>
        <time>2010-09-19T09:30:10Z</time>
      </trkpt>
      <trkpt lat="50.0673" lon="2.71524">
        <ele>142.4124756</ele>
        <time>2010-09-19T09:30:17Z</time>
      </trkpt>
      <trkpt lat="50.06698" lon="2.71575">
        <ele>142.4124756</ele>
        <time>2010-09-19T09:30:27Z</time>
      </trkpt>
      <trkpt lat="50.06665" lon="2.71626">
        <ele>143.3736572</ele>
        <time>2010-09-19T09:30:37Z</time>
      </trkpt>
      <trkpt lat="50.06637" lon="2.71672">
        <ele>145.7770996</ele>
        <time>2010-09-19T09:30:47Z</time>
      </trkpt>
      <trkpt lat="50.06606" lon="2.71721">
        <ele>146.2578125</ele>
        <time>2010-09-19T09:30:58Z</time>
      </trkpt>
      <trkpt lat="50.06598" lon="2.71734">
        <ele>146.2578125</ele>
        <time>2010-09-19T09:31:01Z</time>
      </trkpt>
      <trkpt lat="50.06593" lon="2.71754">
        <ele>145.7770996</ele>
        <time>2010-09-19T09:31:05Z</time>
      </trkpt>
      <trkpt lat="50.066" lon="2.71764">
        <ele>145.2963867</ele>
        <time>2010-09-19T09:31:08Z</time>
      </trkpt>
      <trkpt lat="50.06603" lon="2.71767">
        <ele>145.2963867</ele>
        <time>2010-09-19T09:31:09Z</time>
      </trkpt>
      <trkpt lat="50.06639" lon="2.71793">
        <ele>145.7770996</ele>
        <time>2010-09-19T09:31:17Z</time>
      </trkpt>
      <trkpt lat="50.0667" lon="2.71816">
        <ele>145.7770996</ele>
        <time>2010-09-19T09:31:23Z</time>
      </trkpt>
      <trkpt lat="50.06701" lon="2.71843">
        <ele>143.3736572</ele>
        <time>2010-09-19T09:31:28Z</time>
      </trkpt>
      <trkpt lat="50.0673" lon="2.71868">
        <ele>142.4124756</ele>
        <time>2010-09-19T09:31:32Z</time>
      </trkpt>
      <trkpt lat="50.06784" lon="2.71908">
        <ele>140.970459</ele>
        <time>2010-09-19T09:31:39Z</time>
      </trkpt>
      <trkpt lat="50.06839" lon="2.71931">
        <ele>140.0091553</ele>
        <time>2010-09-19T09:31:46Z</time>
      </trkpt>
      <trkpt lat="50.06908" lon="2.71956">
        <ele>139.5284424</ele>
        <time>2010-09-19T09:31:55Z</time>
      </trkpt>
      <trkpt lat="50.06969" lon="2.71979">
        <ele>139.5284424</ele>
        <time>2010-09-19T09:32:03Z</time>
      </trkpt>
      <trkpt lat="50.07025" lon="2.72013">
        <ele>139.0478516</ele>
        <time>2010-09-19T09:32:11Z</time>
      </trkpt>
      <trkpt lat="50.07051" lon="2.72028">
        <ele>139.0478516</ele>
        <time>2010-09-19T09:32:15Z</time>
      </trkpt>
      <trkpt lat="50.07057" lon="2.72031">
        <ele>139.0478516</ele>
        <time>2010-09-19T09:32:16Z</time>
      </trkpt>
      <trkpt lat="50.07076" lon="2.72045">
        <ele>139.5284424</ele>
        <time>2010-09-19T09:32:21Z</time>
      </trkpt>
      <trkpt lat="50.07072" lon="2.72057">
        <ele>140.0091553</ele>
        <time>2010-09-19T09:32:24Z</time>
      </trkpt>
      <trkpt lat="50.07046" lon="2.72092">
        <ele>140.4898682</ele>
        <time>2010-09-19T09:32:31Z</time>
      </trkpt>
      <trkpt lat="50.07029" lon="2.72112">
        <ele>139.5284424</ele>
        <time>2010-09-19T09:32:35Z</time>
      </trkpt>
      <trkpt lat="50.06998" lon="2.72143">
        <ele>137.605835</ele>
        <time>2010-09-19T09:32:41Z</time>
      </trkpt>
      <trkpt lat="50.06958" lon="2.72175">
        <ele>136.1639404</ele>
        <time>2010-09-19T09:32:48Z</time>
      </trkpt>
      <trkpt lat="50.06949" lon="2.72193">
        <ele>135.2025146</ele>
        <time>2010-09-19T09:32:52Z</time>
      </trkpt>
      <trkpt lat="50.06953" lon="2.72203">
        <ele>134.7219238</ele>
        <time>2010-09-19T09:32:54Z</time>
      </trkpt>
      <trkpt lat="50.06981" lon="2.72249">
        <ele>134.7219238</ele>
        <time>2010-09-19T09:33:01Z</time>
      </trkpt>
      <trkpt lat="50.07034" lon="2.72338">
        <ele>133.2799072</ele>
        <time>2010-09-19T09:33:13Z</time>
      </trkpt>
      <trkpt lat="50.07078" lon="2.72406">
        <ele>131.8378906</ele>
        <time>2010-09-19T09:33:22Z</time>
      </trkpt>
      <trkpt lat="50.07121" lon="2.72474">
        <ele>130.3959961</ele>
        <time>2010-09-19T09:33:31Z</time>
      </trkpt>
      <trkpt lat="50.07144" lon="2.72538">
        <ele>129.9152832</ele>
        <time>2010-09-19T09:33:38Z</time>
      </trkpt>
      <trkpt lat="50.07159" lon="2.72584">
        <ele>129.9152832</ele>
        <time>2010-09-19T09:33:43Z</time>
      </trkpt>
      <trkpt lat="50.07178" lon="2.72641">
        <ele>129.4346924</ele>
        <time>2010-09-19T09:33:50Z</time>
      </trkpt>
      <trkpt lat="50.072" lon="2.72708">
        <ele>128.9541016</ele>
        <time>2010-09-19T09:33:59Z</time>
      </trkpt>
      <trkpt lat="50.07227" lon="2.7279">
        <ele>127.5119629</ele>
        <time>2010-09-19T09:34:09Z</time>
      </trkpt>
      <trkpt lat="50.0725" lon="2.7286">
        <ele>125.5893555</ele>
        <time>2010-09-19T09:34:17Z</time>
      </trkpt>
      <trkpt lat="50.07262" lon="2.729">
        <ele>124.1473389</ele>
        <time>2010-09-19T09:34:22Z</time>
      </trkpt>
      <trkpt lat="50.07264" lon="2.72906">
        <ele>124.1473389</ele>
        <time>2010-09-19T09:34:23Z</time>
      </trkpt>
      <trkpt lat="50.07259" lon="2.72927">
        <ele>123.666748</ele>
        <time>2010-09-19T09:34:27Z</time>
      </trkpt>
      <trkpt lat="50.07253" lon="2.7294">
        <ele>123.666748</ele>
        <time>2010-09-19T09:34:32Z</time>
      </trkpt>
      <trkpt lat="50.07262" lon="2.72942">
        <ele>122.7054443</ele>
        <time>2010-09-19T09:34:36Z</time>
      </trkpt>
      <trkpt lat="50.07286" lon="2.72926">
        <ele>121.7441406</ele>
        <time>2010-09-19T09:34:43Z</time>
      </trkpt>
      <trkpt lat="50.0731" lon="2.7292">
        <ele>121.2635498</ele>
        <time>2010-09-19T09:34:49Z</time>
      </trkpt>
      <trkpt lat="50.07325" lon="2.72919">
        <ele>119.8214111</ele>
        <time>2010-09-19T09:34:53Z</time>
      </trkpt>
      <trkpt lat="50.07338" lon="2.72924">
        <ele>119.3408203</ele>
        <time>2010-09-19T09:34:56Z</time>
      </trkpt>
      <trkpt lat="50.07348" lon="2.72929">
        <ele>118.8601074</ele>
        <time>2010-09-19T09:34:58Z</time>
      </trkpt>
      <trkpt lat="50.07354" lon="2.72934">
        <ele>117.8988037</ele>
        <time>2010-09-19T09:35:00Z</time>
      </trkpt>
      <trkpt lat="50.0736" lon="2.72938">
        <ele>117.4182129</ele>
        <time>2010-09-19T09:35:02Z</time>
      </trkpt>
      <trkpt lat="50.07377" lon="2.72946">
        <ele>117.4182129</ele>
        <time>2010-09-19T09:35:07Z</time>
      </trkpt>
      <trkpt lat="50.07403" lon="2.72957">
        <ele>120.302124</ele>
        <time>2010-09-19T09:35:12Z</time>
      </trkpt>
      <trkpt lat="50.07445" lon="2.72964">
        <ele>122.7054443</ele>
        <time>2010-09-19T09:35:19Z</time>
      </trkpt>
      <trkpt lat="50.07471" lon="2.72961">
        <ele>122.2247314</ele>
        <time>2010-09-19T09:35:24Z</time>
      </trkpt>
      <trkpt lat="50.07489" lon="2.72968">
        <ele>121.2635498</ele>
        <time>2010-09-19T09:35:28Z</time>
      </trkpt>
      <trkpt lat="50.07502" lon="2.72972">
        <ele>120.7828369</ele>
        <time>2010-09-19T09:35:31Z</time>
      </trkpt>
      <trkpt lat="50.07511" lon="2.72976">
        <ele>120.302124</ele>
        <time>2010-09-19T09:35:33Z</time>
      </trkpt>
      <trkpt lat="50.07533" lon="2.72989">
        <ele>119.3408203</ele>
        <time>2010-09-19T09:35:38Z</time>
      </trkpt>
      <trkpt lat="50.07545" lon="2.72994">
        <ele>117.8988037</ele>
        <time>2010-09-19T09:35:42Z</time>
      </trkpt>
      <trkpt lat="50.07556" lon="2.72994">
        <ele>112.6115723</ele>
        <time>2010-09-19T09:35:48Z</time>
      </trkpt>
      <trkpt lat="50.0757" lon="2.72996">
        <ele>111.6502686</ele>
        <time>2010-09-19T09:35:52Z</time>
      </trkpt>
      <trkpt lat="50.07596" lon="2.73002">
        <ele>110.208252</ele>
        <time>2010-09-19T09:35:57Z</time>
      </trkpt>
      <trkpt lat="50.07601" lon="2.73003">
        <ele>109.7276611</ele>
        <time>2010-09-19T09:35:58Z</time>
      </trkpt>
      <trkpt lat="50.0762" lon="2.73005">
        <ele>109.7276611</ele>
        <time>2010-09-19T09:36:02Z</time>
      </trkpt>
      <trkpt lat="50.07659" lon="2.73003">
        <ele>109.7276611</ele>
        <time>2010-09-19T09:36:10Z</time>
      </trkpt>
      <trkpt lat="50.07664" lon="2.73003">
        <ele>109.7276611</ele>
        <time>2010-09-19T09:36:11Z</time>
      </trkpt>
      <trkpt lat="50.07687" lon="2.73007">
        <ele>109.2469482</ele>
        <time>2010-09-19T09:36:16Z</time>
      </trkpt>
      <trkpt lat="50.07708" lon="2.73006">
        <ele>109.2469482</ele>
        <time>2010-09-19T09:36:21Z</time>
      </trkpt>
      <trkpt lat="50.07717" lon="2.73008">
        <ele>109.2469482</ele>
        <time>2010-09-19T09:36:23Z</time>
      </trkpt>
      <trkpt lat="50.0774" lon="2.73008">
        <ele>109.2469482</ele>
        <time>2010-09-19T09:36:28Z</time>
      </trkpt>
      <trkpt lat="50.07784" lon="2.72999">
        <ele>110.6888428</ele>
        <time>2010-09-19T09:36:37Z</time>
      </trkpt>
      <trkpt lat="50.07793" lon="2.72995">
        <ele>110.6888428</ele>
        <time>2010-09-19T09:36:39Z</time>
      </trkpt>
      <trkpt lat="50.07803" lon="2.7299">
        <ele>110.6888428</ele>
        <time>2010-09-19T09:36:41Z</time>
      </trkpt>
      <trkpt lat="50.07832" lon="2.72978">
        <ele>109.2469482</ele>
        <time>2010-09-19T09:36:47Z</time>
      </trkpt>
      <trkpt lat="50.07841" lon="2.72971">
        <ele>108.7662354</ele>
        <time>2010-09-19T09:36:49Z</time>
      </trkpt>
      <trkpt lat="50.07859" lon="2.72963">
        <ele>108.2856445</ele>
        <time>2010-09-19T09:36:53Z</time>
      </trkpt>
      <trkpt lat="50.07884" lon="2.72944">
        <ele>107.8050537</ele>
        <time>2010-09-19T09:37:00Z</time>
      </trkpt>
      <trkpt lat="50.07905" lon="2.72929">
        <ele>107.3243408</ele>
        <time>2010-09-19T09:37:06Z</time>
      </trkpt>
      <trkpt lat="50.07918" lon="2.72915">
        <ele>105.8824463</ele>
        <time>2010-09-19T09:37:11Z</time>
      </trkpt>
      <trkpt lat="50.07929" lon="2.72902">
        <ele>101.0756836</ele>
        <time>2010-09-19T09:37:19Z</time>
      </trkpt>
      <trkpt lat="50.0793" lon="2.72901">
        <ele>100.114502</ele>
        <time>2010-09-19T09:37:20Z</time>
      </trkpt>
      <trkpt lat="50.07935" lon="2.72881">
        <ele>99.6337891</ele>
        <time>2010-09-19T09:37:25Z</time>
      </trkpt>
      <trkpt lat="50.07944" lon="2.72832">
        <ele>95.7884521</ele>
        <time>2010-09-19T09:37:32Z</time>
      </trkpt>
      <trkpt lat="50.07951" lon="2.72795">
        <ele>98.1918945</ele>
        <time>2010-09-19T09:37:36Z</time>
      </trkpt>
      <trkpt lat="50.07959" lon="2.72772">
        <ele>99.6337891</ele>
        <time>2010-09-19T09:37:39Z</time>
      </trkpt>
      <trkpt lat="50.0797" lon="2.72739">
        <ele>101.0756836</ele>
        <time>2010-09-19T09:37:43Z</time>
      </trkpt>
      <trkpt lat="50.07976" lon="2.72724">
        <ele>101.0756836</ele>
        <time>2010-09-19T09:37:45Z</time>
      </trkpt>
      <trkpt lat="50.07991" lon="2.727">
        <ele>100.114502</ele>
        <time>2010-09-19T09:37:49Z</time>
      </trkpt>
      <trkpt lat="50.07998" lon="2.72689">
        <ele>99.1530762</ele>
        <time>2010-09-19T09:37:51Z</time>
      </trkpt>
      <trkpt lat="50.08009" lon="2.72664">
        <ele>99.6337891</ele>
        <time>2010-09-19T09:37:55Z</time>
      </trkpt>
      <trkpt lat="50.08018" lon="2.72642">
        <ele>101.0756836</ele>
        <time>2010-09-19T09:37:58Z</time>
      </trkpt>
      <trkpt lat="50.08025" lon="2.72609">
        <ele>101.5563965</ele>
        <time>2010-09-19T09:38:02Z</time>
      </trkpt>
      <trkpt lat="50.08028" lon="2.72593">
        <ele>101.5563965</ele>
        <time>2010-09-19T09:38:04Z</time>
      </trkpt>
      <trkpt lat="50.0804" lon="2.72559">
        <ele>101.0756836</ele>
        <time>2010-09-19T09:38:09Z</time>
      </trkpt>
      <trkpt lat="50.08048" lon="2.72539">
        <ele>100.114502</ele>
        <time>2010-09-19T09:38:13Z</time>
      </trkpt>
      <trkpt lat="50.08051" lon="2.7253">
        <ele>99.6337891</ele>
        <time>2010-09-19T09:38:15Z</time>
      </trkpt>
      <trkpt lat="50.08065" lon="2.72499">
        <ele>96.2692871</ele>
        <time>2010-09-19T09:38:21Z</time>
      </trkpt>
      <trkpt lat="50.08067" lon="2.72492">
        <ele>95.7884521</ele>
        <time>2010-09-19T09:38:22Z</time>
      </trkpt>
      <trkpt lat="50.08076" lon="2.72472">
        <ele>93.3851318</ele>
        <time>2010-09-19T09:38:25Z</time>
      </trkpt>
      <trkpt lat="50.08089" lon="2.72455">
        <ele>91.4625244</ele>
        <time>2010-09-19T09:38:28Z</time>
      </trkpt>
      <trkpt lat="50.08108" lon="2.72434">
        <ele>93.8658447</ele>
        <time>2010-09-19T09:38:34Z</time>
      </trkpt>
      <trkpt lat="50.0811" lon="2.72432">
        <ele>95.3077393</ele>
        <time>2010-09-19T09:38:35Z</time>
      </trkpt>
      <trkpt lat="50.08116" lon="2.7243">
        <ele>97.2304688</ele>
        <time>2010-09-19T09:38:39Z</time>
      </trkpt>
      <trkpt lat="50.08121" lon="2.72432">
        <ele>99.6337891</ele>
        <time>2010-09-19T09:38:46Z</time>
      </trkpt>
      <trkpt lat="50.08132" lon="2.72433">
        <ele>100.114502</ele>
        <time>2010-09-19T09:38:50Z</time>
      </trkpt>
      <trkpt lat="50.0816" lon="2.72435">
        <ele>100.5950928</ele>
        <time>2010-09-19T09:38:57Z</time>
      </trkpt>
      <trkpt lat="50.08194" lon="2.72443">
        <ele>102.0371094</ele>
        <time>2010-09-19T09:39:05Z</time>
      </trkpt>
      <trkpt lat="50.08214" lon="2.72455">
        <ele>103.4790039</ele>
        <time>2010-09-19T09:39:12Z</time>
      </trkpt>
      <trkpt lat="50.08231" lon="2.72469">
        <ele>106.3630371</ele>
        <time>2010-09-19T09:39:20Z</time>
      </trkpt>
      <trkpt lat="50.08253" lon="2.72488">
        <ele>109.2469482</ele>
        <time>2010-09-19T09:39:29Z</time>
      </trkpt>
      <trkpt lat="50.08279" lon="2.7251">
        <ele>111.1695557</ele>
        <time>2010-09-19T09:39:41Z</time>
      </trkpt>
      <trkpt lat="50.08297" lon="2.72525">
        <ele>112.1309814</ele>
        <time>2010-09-19T09:39:50Z</time>
      </trkpt>
      <trkpt lat="50.08315" lon="2.72544">
        <ele>113.0922852</ele>
        <time>2010-09-19T09:39:58Z</time>
      </trkpt>
      <trkpt lat="50.08331" lon="2.72573">
        <ele>114.0535889</ele>
        <time>2010-09-19T09:40:06Z</time>
      </trkpt>
      <trkpt lat="50.08346" lon="2.72611">
        <ele>115.9761963</ele>
        <time>2010-09-19T09:40:15Z</time>
      </trkpt>
      <trkpt lat="50.08358" lon="2.72641">
        <ele>116.9375</ele>
        <time>2010-09-19T09:40:22Z</time>
      </trkpt>
      <trkpt lat="50.0837" lon="2.72682">
        <ele>117.8988037</ele>
        <time>2010-09-19T09:40:30Z</time>
      </trkpt>
      <trkpt lat="50.0839" lon="2.72727">
        <ele>117.4182129</ele>
        <time>2010-09-19T09:40:37Z</time>
      </trkpt>
      <trkpt lat="50.08404" lon="2.72758">
        <ele>116.9375</ele>
        <time>2010-09-19T09:40:41Z</time>
      </trkpt>
      <trkpt lat="50.08428" lon="2.72815">
        <ele>115.9761963</ele>
        <time>2010-09-19T09:40:48Z</time>
      </trkpt>
      <trkpt lat="50.08441" lon="2.72847">
        <ele>115.0148926</ele>
        <time>2010-09-19T09:40:52Z</time>
      </trkpt>
      <trkpt lat="50.08456" lon="2.72881">
        <ele>113.0922852</ele>
        <time>2010-09-19T09:40:56Z</time>
      </trkpt>
      <trkpt lat="50.08481" lon="2.72926">
        <ele>111.1695557</ele>
        <time>2010-09-19T09:41:01Z</time>
      </trkpt>
      <trkpt lat="50.08512" lon="2.72972">
        <ele>110.6888428</ele>
        <time>2010-09-19T09:41:06Z</time>
      </trkpt>
      <trkpt lat="50.08545" lon="2.73011">
        <ele>111.1695557</ele>
        <time>2010-09-19T09:41:11Z</time>
      </trkpt>
      <trkpt lat="50.08579" lon="2.73044">
        <ele>112.1309814</ele>
        <time>2010-09-19T09:41:16Z</time>
      </trkpt>
      <trkpt lat="50.08598" lon="2.73062">
        <ele>112.1309814</ele>
        <time>2010-09-19T09:41:19Z</time>
      </trkpt>
      <trkpt lat="50.08633" lon="2.73095">
        <ele>112.6115723</ele>
        <time>2010-09-19T09:41:25Z</time>
      </trkpt>
      <trkpt lat="50.08658" lon="2.73116">
        <ele>112.6115723</ele>
        <time>2010-09-19T09:41:30Z</time>
      </trkpt>
      <trkpt lat="50.08686" lon="2.73142">
        <ele>113.572998</ele>
        <time>2010-09-19T09:41:36Z</time>
      </trkpt>
      <trkpt lat="50.08719" lon="2.73165">
        <ele>112.6115723</ele>
        <time>2010-09-19T09:41:42Z</time>
      </trkpt>
      <trkpt lat="50.0876" lon="2.73182">
        <ele>110.208252</ele>
        <time>2010-09-19T09:41:48Z</time>
      </trkpt>
      <trkpt lat="50.08796" lon="2.73177">
        <ele>109.2469482</ele>
        <time>2010-09-19T09:41:53Z</time>
      </trkpt>
      <trkpt lat="50.08839" lon="2.73162">
        <ele>108.2856445</ele>
        <time>2010-09-19T09:41:59Z</time>
      </trkpt>
      <trkpt lat="50.08865" lon="2.73146">
        <ele>108.2856445</ele>
        <time>2010-09-19T09:42:03Z</time>
      </trkpt>
      <trkpt lat="50.08871" lon="2.73142">
        <ele>108.2856445</ele>
        <time>2010-09-19T09:42:04Z</time>
      </trkpt>
      <trkpt lat="50.08903" lon="2.73143">
        <ele>109.2469482</ele>
        <time>2010-09-19T09:42:08Z</time>
      </trkpt>
      <trkpt lat="50.08919" lon="2.73152">
        <ele>108.7662354</ele>
        <time>2010-09-19T09:42:10Z</time>
      </trkpt>
      <trkpt lat="50.08971" lon="2.73191">
        <ele>108.2856445</ele>
        <time>2010-09-19T09:42:17Z</time>
      </trkpt>
      <trkpt lat="50.09015" lon="2.7323">
        <ele>107.3243408</ele>
        <time>2010-09-19T09:42:24Z</time>
      </trkpt>
      <trkpt lat="50.09049" lon="2.73258">
        <ele>106.3630371</ele>
        <time>2010-09-19T09:42:30Z</time>
      </trkpt>
      <trkpt lat="50.09066" lon="2.73258">
        <ele>104.9210205</ele>
        <time>2010-09-19T09:42:34Z</time>
      </trkpt>
      <trkpt lat="50.09074" lon="2.73248">
        <ele>103.9597168</ele>
        <time>2010-09-19T09:42:36Z</time>
      </trkpt>
      <trkpt lat="50.09096" lon="2.73205">
        <ele>101.0756836</ele>
        <time>2010-09-19T09:42:43Z</time>
      </trkpt>
      <trkpt lat="50.09098" lon="2.73199">
        <ele>101.0756836</ele>
        <time>2010-09-19T09:42:44Z</time>
      </trkpt>
      <trkpt lat="50.09108" lon="2.73199">
        <ele>99.6337891</ele>
        <time>2010-09-19T09:42:48Z</time>
      </trkpt>
      <trkpt lat="50.09127" lon="2.73216">
        <ele>99.1530762</ele>
        <time>2010-09-19T09:42:54Z</time>
      </trkpt>
      <trkpt lat="50.0914" lon="2.73226">
        <ele>98.6724854</ele>
        <time>2010-09-19T09:42:58Z</time>
      </trkpt>
      <trkpt lat="50.09158" lon="2.73241">
        <ele>99.6337891</ele>
        <time>2010-09-19T09:43:03Z</time>
      </trkpt>
      <trkpt lat="50.09174" lon="2.73253">
        <ele>100.5950928</ele>
        <time>2010-09-19T09:43:08Z</time>
      </trkpt>
      <trkpt lat="50.09189" lon="2.73265">
        <ele>102.0371094</ele>
        <time>2010-09-19T09:43:12Z</time>
      </trkpt>
      <trkpt lat="50.09211" lon="2.73281">
        <ele>101.5563965</ele>
        <time>2010-09-19T09:43:18Z</time>
      </trkpt>
      <trkpt lat="50.09231" lon="2.73296">
        <ele>101.5563965</ele>
        <time>2010-09-19T09:43:23Z</time>
      </trkpt>
      <trkpt lat="50.09245" lon="2.73306">
        <ele>101.5563965</ele>
        <time>2010-09-19T09:43:26Z</time>
      </trkpt>
      <trkpt lat="50.09266" lon="2.73321">
        <ele>102.0371094</ele>
        <time>2010-09-19T09:43:31Z</time>
      </trkpt>
      <trkpt lat="50.09282" lon="2.73332">
        <ele>102.0371094</ele>
        <time>2010-09-19T09:43:34Z</time>
      </trkpt>
      <trkpt lat="50.09319" lon="2.73356">
        <ele>101.0756836</ele>
        <time>2010-09-19T09:43:41Z</time>
      </trkpt>
      <trkpt lat="50.09349" lon="2.73376">
        <ele>101.5563965</ele>
        <time>2010-09-19T09:43:47Z</time>
      </trkpt>
      <trkpt lat="50.09367" lon="2.73387">
        <ele>103.9597168</ele>
        <time>2010-09-19T09:43:51Z</time>
      </trkpt>
      <trkpt lat="50.09389" lon="2.73399">
        <ele>105.8824463</ele>
        <time>2010-09-19T09:43:56Z</time>
      </trkpt>
      <trkpt lat="50.09409" lon="2.73412">
        <ele>104.9210205</ele>
        <time>2010-09-19T09:44:01Z</time>
      </trkpt>
      <trkpt lat="50.09416" lon="2.73418">
        <ele>103.9597168</ele>
        <time>2010-09-19T09:44:03Z</time>
      </trkpt>
      <trkpt lat="50.09422" lon="2.73431">
        <ele>103.9597168</ele>
        <time>2010-09-19T09:44:07Z</time>
      </trkpt>
      <trkpt lat="50.09419" lon="2.73436">
        <ele>103.4790039</ele>
        <time>2010-09-19T09:44:09Z</time>
      </trkpt>
      <trkpt lat="50.09417" lon="2.73452">
        <ele>104.4404297</ele>
        <time>2010-09-19T09:44:13Z</time>
      </trkpt>
      <trkpt lat="50.09427" lon="2.73465">
        <ele>108.7662354</ele>
        <time>2010-09-19T09:44:19Z</time>
      </trkpt>
      <trkpt lat="50.09446" lon="2.73471">
        <ele>108.7662354</ele>
        <time>2010-09-19T09:44:24Z</time>
      </trkpt>
      <trkpt lat="50.09475" lon="2.73479">
        <ele>108.2856445</ele>
        <time>2010-09-19T09:44:32Z</time>
      </trkpt>
      <trkpt lat="50.0951" lon="2.7349">
        <ele>105.4017334</ele>
        <time>2010-09-19T09:44:41Z</time>
      </trkpt>
      <trkpt lat="50.09544" lon="2.73509">
        <ele>106.3630371</ele>
        <time>2010-09-19T09:44:49Z</time>
      </trkpt>
      <trkpt lat="50.09569" lon="2.73523">
        <ele>107.8050537</ele>
        <time>2010-09-19T09:44:55Z</time>
      </trkpt>
      <trkpt lat="50.09602" lon="2.7354">
        <ele>107.8050537</ele>
        <time>2010-09-19T09:45:02Z</time>
      </trkpt>
      <trkpt lat="50.09636" lon="2.73556">
        <ele>107.3243408</ele>
        <time>2010-09-19T09:45:09Z</time>
      </trkpt>
      <trkpt lat="50.09678" lon="2.73576">
        <ele>103.9597168</ele>
        <time>2010-09-19T09:45:17Z</time>
      </trkpt>
      <trkpt lat="50.09707" lon="2.73595">
        <ele>104.4404297</ele>
        <time>2010-09-19T09:45:23Z</time>
      </trkpt>
      <trkpt lat="50.09725" lon="2.73605">
        <ele>107.8050537</ele>
        <time>2010-09-19T09:45:27Z</time>
      </trkpt>
      <trkpt lat="50.0975" lon="2.73617">
        <ele>108.2856445</ele>
        <time>2010-09-19T09:45:32Z</time>
      </trkpt>
      <trkpt lat="50.09783" lon="2.73633">
        <ele>110.6888428</ele>
        <time>2010-09-19T09:45:39Z</time>
      </trkpt>
      <trkpt lat="50.098" lon="2.73641">
        <ele>110.208252</ele>
        <time>2010-09-19T09:45:42Z</time>
      </trkpt>
      <trkpt lat="50.09837" lon="2.73661">
        <ele>107.3243408</ele>
        <time>2010-09-19T09:45:48Z</time>
      </trkpt>
      <trkpt lat="50.09869" lon="2.73677">
        <ele>107.3243408</ele>
        <time>2010-09-19T09:45:54Z</time>
      </trkpt>
      <trkpt lat="50.09903" lon="2.73699">
        <ele>103.9597168</ele>
        <time>2010-09-19T09:46:00Z</time>
      </trkpt>
      <trkpt lat="50.09929" lon="2.73715">
        <ele>103.4790039</ele>
        <time>2010-09-19T09:46:05Z</time>
      </trkpt>
      <trkpt lat="50.09934" lon="2.73718">
        <ele>102.998291</ele>
        <time>2010-09-19T09:46:06Z</time>
      </trkpt>
      <trkpt lat="50.09953" lon="2.73731">
        <ele>102.998291</ele>
        <time>2010-09-19T09:46:11Z</time>
      </trkpt>
      <trkpt lat="50.09964" lon="2.73722">
        <ele>101.5563965</ele>
        <time>2010-09-19T09:46:14Z</time>
      </trkpt>
      <trkpt lat="50.09963" lon="2.73723">
        <ele>101.5563965</ele>
        <time>2010-09-19T09:46:15Z</time>
      </trkpt>
      <trkpt lat="50.09968" lon="2.73706">
        <ele>101.5563965</ele>
        <time>2010-09-19T09:46:18Z</time>
      </trkpt>
      <trkpt lat="50.09972" lon="2.73697">
        <ele>101.5563965</ele>
        <time>2010-09-19T09:46:21Z</time>
      </trkpt>
      <trkpt lat="50.09981" lon="2.73682">
        <ele>101.0756836</ele>
        <time>2010-09-19T09:46:22Z</time>
      </trkpt>
      <trkpt lat="50.09997" lon="2.73646">
        <ele>100.114502</ele>
        <time>2010-09-19T09:46:27Z</time>
      </trkpt>
      <trkpt lat="50.1001" lon="2.73637">
        <ele>99.6337891</ele>
        <time>2010-09-19T09:46:30Z</time>
      </trkpt>
      <trkpt lat="50.10048" lon="2.73631">
        <ele>100.5950928</ele>
        <time>2010-09-19T09:46:38Z</time>
      </trkpt>
      <trkpt lat="50.10081" lon="2.73632">
        <ele>102.0371094</ele>
        <time>2010-09-19T09:46:45Z</time>
      </trkpt>
      <trkpt lat="50.10093" lon="2.73631">
        <ele>102.5177002</ele>
        <time>2010-09-19T09:46:48Z</time>
      </trkpt>
      <trkpt lat="50.10113" lon="2.73624">
        <ele>103.4790039</ele>
        <time>2010-09-19T09:46:54Z</time>
      </trkpt>
      <trkpt lat="50.10122" lon="2.73633">
        <ele>103.9597168</ele>
        <time>2010-09-19T09:46:58Z</time>
      </trkpt>
      <trkpt lat="50.10144" lon="2.73663">
        <ele>104.9210205</ele>
        <time>2010-09-19T09:47:06Z</time>
      </trkpt>
      <trkpt lat="50.10168" lon="2.73685">
        <ele>105.4017334</ele>
        <time>2010-09-19T09:47:13Z</time>
      </trkpt>
      <trkpt lat="50.10197" lon="2.73702">
        <ele>107.8050537</ele>
        <time>2010-09-19T09:47:21Z</time>
      </trkpt>
      <trkpt lat="50.1023" lon="2.73712">
        <ele>110.208252</ele>
        <time>2010-09-19T09:47:30Z</time>
      </trkpt>
      <trkpt lat="50.1026" lon="2.73716">
        <ele>112.6115723</ele>
        <time>2010-09-19T09:47:39Z</time>
      </trkpt>
      <trkpt lat="50.10285" lon="2.73721">
        <ele>115.0148926</ele>
        <time>2010-09-19T09:47:47Z</time>
      </trkpt>
      <trkpt lat="50.10317" lon="2.7373">
        <ele>117.4182129</ele>
        <time>2010-09-19T09:47:57Z</time>
      </trkpt>
      <trkpt lat="50.10356" lon="2.7374">
        <ele>119.3408203</ele>
        <time>2010-09-19T09:48:09Z</time>
      </trkpt>
      <trkpt lat="50.10391" lon="2.73751">
        <ele>120.7828369</ele>
        <time>2010-09-19T09:48:20Z</time>
      </trkpt>
      <trkpt lat="50.10428" lon="2.73771">
        <ele>123.1861572</ele>
        <time>2010-09-19T09:48:31Z</time>
      </trkpt>
      <trkpt lat="50.10456" lon="2.73787">
        <ele>124.1473389</ele>
        <time>2010-09-19T09:48:40Z</time>
      </trkpt>
      <trkpt lat="50.10485" lon="2.738">
        <ele>123.1861572</ele>
        <time>2010-09-19T09:48:48Z</time>
      </trkpt>
      <trkpt lat="50.10515" lon="2.73812">
        <ele>121.2635498</ele>
        <time>2010-09-19T09:48:54Z</time>
      </trkpt>
      <trkpt lat="50.10534" lon="2.73819">
        <ele>120.302124</ele>
        <time>2010-09-19T09:48:57Z</time>
      </trkpt>
      <trkpt lat="50.10578" lon="2.73825">
        <ele>118.3793945</ele>
        <time>2010-09-19T09:49:03Z</time>
      </trkpt>
      <trkpt lat="50.10622" lon="2.73815">
        <ele>117.8988037</ele>
        <time>2010-09-19T09:49:09Z</time>
      </trkpt>
      <trkpt lat="50.10663" lon="2.73799">
        <ele>116.4567871</ele>
        <time>2010-09-19T09:49:15Z</time>
      </trkpt>
      <trkpt lat="50.10682" lon="2.73792">
        <ele>116.4567871</ele>
        <time>2010-09-19T09:49:18Z</time>
      </trkpt>
      <trkpt lat="50.10696" lon="2.73775">
        <ele>115.9761963</ele>
        <time>2010-09-19T09:49:22Z</time>
      </trkpt>
      <trkpt lat="50.10694" lon="2.73762">
        <ele>115.9761963</ele>
        <time>2010-09-19T09:49:24Z</time>
      </trkpt>
      <trkpt lat="50.10686" lon="2.73718">
        <ele>115.4956055</ele>
        <time>2010-09-19T09:49:32Z</time>
      </trkpt>
      <trkpt lat="50.10681" lon="2.73687">
        <ele>114.0535889</ele>
        <time>2010-09-19T09:49:38Z</time>
      </trkpt>
      <trkpt lat="50.10675" lon="2.73655">
        <ele>113.0922852</ele>
        <time>2010-09-19T09:49:44Z</time>
      </trkpt>
      <trkpt lat="50.10667" lon="2.73613">
        <ele>111.6502686</ele>
        <time>2010-09-19T09:49:52Z</time>
      </trkpt>
      <trkpt lat="50.10657" lon="2.73563">
        <ele>112.1309814</ele>
        <time>2010-09-19T09:50:01Z</time>
      </trkpt>
      <trkpt lat="50.10644" lon="2.73507">
        <ele>114.0535889</ele>
        <time>2010-09-19T09:50:12Z</time>
      </trkpt>
      <trkpt lat="50.10639" lon="2.7348">
        <ele>113.572998</ele>
        <time>2010-09-19T09:50:17Z</time>
      </trkpt>
      <trkpt lat="50.10629" lon="2.7343">
        <ele>113.572998</ele>
        <time>2010-09-19T09:50:27Z</time>
      </trkpt>
      <trkpt lat="50.1062" lon="2.73386">
        <ele>114.0535889</ele>
        <time>2010-09-19T09:50:36Z</time>
      </trkpt>
      <trkpt lat="50.10611" lon="2.73347">
        <ele>115.0148926</ele>
        <time>2010-09-19T09:50:45Z</time>
      </trkpt>
      <trkpt lat="50.10601" lon="2.73304">
        <ele>117.4182129</ele>
        <time>2010-09-19T09:50:55Z</time>
      </trkpt>
      <trkpt lat="50.10595" lon="2.73275">
        <ele>118.8601074</ele>
        <time>2010-09-19T09:51:02Z</time>
      </trkpt>
      <trkpt lat="50.10587" lon="2.73243">
        <ele>120.7828369</ele>
        <time>2010-09-19T09:51:09Z</time>
      </trkpt>
      <trkpt lat="50.10577" lon="2.73201">
        <ele>120.302124</ele>
        <time>2010-09-19T09:51:17Z</time>
      </trkpt>
      <trkpt lat="50.10567" lon="2.73158">
        <ele>121.2635498</ele>
        <time>2010-09-19T09:51:26Z</time>
      </trkpt>
      <trkpt lat="50.10558" lon="2.73113">
        <ele>121.7441406</ele>
        <time>2010-09-19T09:51:36Z</time>
      </trkpt>
      <trkpt lat="50.10551" lon="2.7308">
        <ele>122.2247314</ele>
        <time>2010-09-19T09:51:43Z</time>
      </trkpt>
      <trkpt lat="50.10541" lon="2.73039">
        <ele>123.1861572</ele>
        <time>2010-09-19T09:51:52Z</time>
      </trkpt>
      <trkpt lat="50.10533" lon="2.72998">
        <ele>124.1473389</ele>
        <time>2010-09-19T09:52:01Z</time>
      </trkpt>
      <trkpt lat="50.1052" lon="2.72941">
        <ele>125.5893555</ele>
        <time>2010-09-19T09:52:13Z</time>
      </trkpt>
      <trkpt lat="50.10506" lon="2.72887">
        <ele>126.5506592</ele>
        <time>2010-09-19T09:52:24Z</time>
      </trkpt>
      <trkpt lat="50.10494" lon="2.72832">
        <ele>127.0313721</ele>
        <time>2010-09-19T09:52:35Z</time>
      </trkpt>
      <trkpt lat="50.10484" lon="2.72792">
        <ele>127.5119629</ele>
        <time>2010-09-19T09:52:43Z</time>
      </trkpt>
      <trkpt lat="50.10476" lon="2.7276">
        <ele>128.9541016</ele>
        <time>2010-09-19T09:52:50Z</time>
      </trkpt>
      <trkpt lat="50.10464" lon="2.72747">
        <ele>129.4346924</ele>
        <time>2010-09-19T09:52:54Z</time>
      </trkpt>
      <trkpt lat="50.1043" lon="2.72728">
        <ele>129.4346924</ele>
        <time>2010-09-19T09:53:02Z</time>
      </trkpt>
      <trkpt lat="50.10386" lon="2.72702">
        <ele>128.9541016</ele>
        <time>2010-09-19T09:53:12Z</time>
      </trkpt>
      <trkpt lat="50.10356" lon="2.72686">
        <ele>128.9541016</ele>
        <time>2010-09-19T09:53:19Z</time>
      </trkpt>
      <trkpt lat="50.10346" lon="2.72665">
        <ele>128.9541016</ele>
        <time>2010-09-19T09:53:23Z</time>
      </trkpt>
      <trkpt lat="50.10344" lon="2.72659">
        <ele>129.4346924</ele>
        <time>2010-09-19T09:53:24Z</time>
      </trkpt>
      <trkpt lat="50.10335" lon="2.72629">
        <ele>129.4346924</ele>
        <time>2010-09-19T09:53:29Z</time>
      </trkpt>
      <trkpt lat="50.10315" lon="2.72572">
        <ele>130.876709</ele>
        <time>2010-09-19T09:53:38Z</time>
      </trkpt>
      <trkpt lat="50.10292" lon="2.725">
        <ele>132.7993164</ele>
        <time>2010-09-19T09:53:50Z</time>
      </trkpt>
      <trkpt lat="50.10273" lon="2.72439">
        <ele>133.760498</ele>
        <time>2010-09-19T09:54:00Z</time>
      </trkpt>
      <trkpt lat="50.10251" lon="2.7237">
        <ele>135.2025146</ele>
        <time>2010-09-19T09:54:11Z</time>
      </trkpt>
      <trkpt lat="50.1023" lon="2.72302">
        <ele>136.1639404</ele>
        <time>2010-09-19T09:54:22Z</time>
      </trkpt>
      <trkpt lat="50.10213" lon="2.72246">
        <ele>136.6446533</ele>
        <time>2010-09-19T09:54:31Z</time>
      </trkpt>
      <trkpt lat="50.10204" lon="2.72219">
        <ele>136.6446533</ele>
        <time>2010-09-19T09:54:36Z</time>
      </trkpt>
      <trkpt lat="50.10207" lon="2.72205">
        <ele>137.1252441</ele>
        <time>2010-09-19T09:54:40Z</time>
      </trkpt>
      <trkpt lat="50.10211" lon="2.72204">
        <ele>137.605835</ele>
        <time>2010-09-19T09:54:41Z</time>
      </trkpt>
      <trkpt lat="50.10246" lon="2.72199">
        <ele>138.0865479</ele>
        <time>2010-09-19T09:54:49Z</time>
      </trkpt>
      <trkpt lat="50.10288" lon="2.72189">
        <ele>138.0865479</ele>
        <time>2010-09-19T09:54:57Z</time>
      </trkpt>
      <trkpt lat="50.10336" lon="2.72174">
        <ele>136.1639404</ele>
        <time>2010-09-19T09:55:05Z</time>
      </trkpt>
      <trkpt lat="50.10381" lon="2.72158">
        <ele>133.760498</ele>
        <time>2010-09-19T09:55:11Z</time>
      </trkpt>
      <trkpt lat="50.10438" lon="2.72132">
        <ele>131.8378906</ele>
        <time>2010-09-19T09:55:18Z</time>
      </trkpt>
      <trkpt lat="50.10526" lon="2.72087">
        <ele>130.3959961</ele>
        <time>2010-09-19T09:55:28Z</time>
      </trkpt>
      <trkpt lat="50.10602" lon="2.72047">
        <ele>130.3959961</ele>
        <time>2010-09-19T09:55:37Z</time>
      </trkpt>
      <trkpt lat="50.10669" lon="2.72007">
        <ele>131.8378906</ele>
        <time>2010-09-19T09:55:46Z</time>
      </trkpt>
      <trkpt lat="50.1072" lon="2.71976">
        <ele>133.760498</ele>
        <time>2010-09-19T09:55:54Z</time>
      </trkpt>
      <trkpt lat="50.10752" lon="2.7195">
        <ele>135.6831055</ele>
        <time>2010-09-19T09:56:00Z</time>
      </trkpt>
      <trkpt lat="50.10793" lon="2.71919">
        <ele>134.2412109</ele>
        <time>2010-09-19T09:56:08Z</time>
      </trkpt>
      <trkpt lat="50.10837" lon="2.71893">
        <ele>133.760498</ele>
        <time>2010-09-19T09:56:15Z</time>
      </trkpt>
      <trkpt lat="50.10882" lon="2.71881">
        <ele>132.3186035</ele>
        <time>2010-09-19T09:56:21Z</time>
      </trkpt>
      <trkpt lat="50.10931" lon="2.71874">
        <ele>130.3959961</ele>
        <time>2010-09-19T09:56:27Z</time>
      </trkpt>
      <trkpt lat="50.10991" lon="2.71868">
        <ele>127.5119629</ele>
        <time>2010-09-19T09:56:34Z</time>
      </trkpt>
      <trkpt lat="50.11055" lon="2.71855">
        <ele>123.666748</ele>
        <time>2010-09-19T09:56:41Z</time>
      </trkpt>
      <trkpt lat="50.11123" lon="2.71844">
        <ele>119.8214111</ele>
        <time>2010-09-19T09:56:48Z</time>
      </trkpt>
      <trkpt lat="50.11185" lon="2.71834">
        <ele>119.3408203</ele>
        <time>2010-09-19T09:56:55Z</time>
      </trkpt>
      <trkpt lat="50.11247" lon="2.71832">
        <ele>120.302124</ele>
        <time>2010-09-19T09:57:02Z</time>
      </trkpt>
      <trkpt lat="50.11283" lon="2.71843">
        <ele>122.7054443</ele>
        <time>2010-09-19T09:57:07Z</time>
      </trkpt>
      <trkpt lat="50.1131" lon="2.71858">
        <ele>125.1087646</ele>
        <time>2010-09-19T09:57:12Z</time>
      </trkpt>
      <trkpt lat="50.1134" lon="2.71871">
        <ele>127.0313721</ele>
        <time>2010-09-19T09:57:18Z</time>
      </trkpt>
      <trkpt lat="50.11371" lon="2.71873">
        <ele>128.4733887</ele>
        <time>2010-09-19T09:57:24Z</time>
      </trkpt>
      <trkpt lat="50.11418" lon="2.71868">
        <ele>129.4346924</ele>
        <time>2010-09-19T09:57:33Z</time>
      </trkpt>
      <trkpt lat="50.11459" lon="2.71864">
        <ele>128.9541016</ele>
        <time>2010-09-19T09:57:41Z</time>
      </trkpt>
      <trkpt lat="50.11488" lon="2.71865">
        <ele>127.9925537</ele>
        <time>2010-09-19T09:57:46Z</time>
      </trkpt>
      <trkpt lat="50.11529" lon="2.71862">
        <ele>126.0699463</ele>
        <time>2010-09-19T09:57:52Z</time>
      </trkpt>
      <trkpt lat="50.11577" lon="2.71863">
        <ele>122.7054443</ele>
        <time>2010-09-19T09:57:58Z</time>
      </trkpt>
      <trkpt lat="50.1163" lon="2.71867">
        <ele>120.302124</ele>
        <time>2010-09-19T09:58:04Z</time>
      </trkpt>
      <trkpt lat="50.11702" lon="2.71875">
        <ele>116.4567871</ele>
        <time>2010-09-19T09:58:12Z</time>
      </trkpt>
      <trkpt lat="50.1172" lon="2.71876">
        <ele>116.4567871</ele>
        <time>2010-09-19T09:58:14Z</time>
      </trkpt>
      <trkpt lat="50.11728" lon="2.71876">
        <ele>115.9761963</ele>
        <time>2010-09-19T09:58:15Z</time>
      </trkpt>
      <trkpt lat="50.11782" lon="2.71883">
        <ele>115.9761963</ele>
        <time>2010-09-19T09:58:22Z</time>
      </trkpt>
      <trkpt lat="50.11827" lon="2.71889">
        <ele>115.9761963</ele>
        <time>2010-09-19T09:58:29Z</time>
      </trkpt>
      <trkpt lat="50.11857" lon="2.71901">
        <ele>117.8988037</ele>
        <time>2010-09-19T09:58:35Z</time>
      </trkpt>
      <trkpt lat="50.11874" lon="2.7191">
        <ele>119.3408203</ele>
        <time>2010-09-19T09:58:39Z</time>
      </trkpt>
      <trkpt lat="50.11892" lon="2.71919">
        <ele>121.7441406</ele>
        <time>2010-09-19T09:58:44Z</time>
      </trkpt>
      <trkpt lat="50.11906" lon="2.71926">
        <ele>124.1473389</ele>
        <time>2010-09-19T09:58:49Z</time>
      </trkpt>
      <trkpt lat="50.11919" lon="2.71932">
        <ele>126.0699463</ele>
        <time>2010-09-19T09:58:55Z</time>
      </trkpt>
      <trkpt lat="50.1194" lon="2.71941">
        <ele>128.9541016</ele>
        <time>2010-09-19T09:59:04Z</time>
      </trkpt>
      <trkpt lat="50.11959" lon="2.71949">
        <ele>131.8378906</ele>
        <time>2010-09-19T09:59:12Z</time>
      </trkpt>
      <trkpt lat="50.11971" lon="2.71954">
        <ele>133.2799072</ele>
        <time>2010-09-19T09:59:17Z</time>
      </trkpt>
      <trkpt lat="50.11989" lon="2.71955">
        <ele>136.1639404</ele>
        <time>2010-09-19T09:59:25Z</time>
      </trkpt>
      <trkpt lat="50.12014" lon="2.71957">
        <ele>136.6446533</ele>
        <time>2010-09-19T09:59:34Z</time>
      </trkpt>
      <trkpt lat="50.12047" lon="2.71956">
        <ele>135.2025146</ele>
        <time>2010-09-19T09:59:45Z</time>
      </trkpt>
      <trkpt lat="50.12076" lon="2.71953">
        <ele>134.7219238</ele>
        <time>2010-09-19T09:59:55Z</time>
      </trkpt>
      <trkpt lat="50.12098" lon="2.71949">
        <ele>133.760498</ele>
        <time>2010-09-19T10:00:02Z</time>
      </trkpt>
      <trkpt lat="50.12124" lon="2.71939">
        <ele>133.760498</ele>
        <time>2010-09-19T10:00:10Z</time>
      </trkpt>
      <trkpt lat="50.12154" lon="2.71918">
        <ele>133.760498</ele>
        <time>2010-09-19T10:00:19Z</time>
      </trkpt>
      <trkpt lat="50.1219" lon="2.71887">
        <ele>135.2025146</ele>
        <time>2010-09-19T10:00:29Z</time>
      </trkpt>
      <trkpt lat="50.12222" lon="2.71861">
        <ele>135.6831055</ele>
        <time>2010-09-19T10:00:37Z</time>
      </trkpt>
      <trkpt lat="50.12266" lon="2.71837">
        <ele>136.1639404</ele>
        <time>2010-09-19T10:00:47Z</time>
      </trkpt>
      <trkpt lat="50.12314" lon="2.7181">
        <ele>136.6446533</ele>
        <time>2010-09-19T10:00:59Z</time>
      </trkpt>
      <trkpt lat="50.12348" lon="2.7179">
        <ele>137.1252441</ele>
        <time>2010-09-19T10:01:08Z</time>
      </trkpt>
      <trkpt lat="50.12389" lon="2.71769">
        <ele>138.0865479</ele>
        <time>2010-09-19T10:01:19Z</time>
      </trkpt>
      <trkpt lat="50.12424" lon="2.71751">
        <ele>139.0478516</ele>
        <time>2010-09-19T10:01:29Z</time>
      </trkpt>
      <trkpt lat="50.12454" lon="2.71739">
        <ele>139.5284424</ele>
        <time>2010-09-19T10:01:37Z</time>
      </trkpt>
      <trkpt lat="50.12491" lon="2.71728">
        <ele>139.5284424</ele>
        <time>2010-09-19T10:01:46Z</time>
      </trkpt>
      <trkpt lat="50.12523" lon="2.71718">
        <ele>140.4898682</ele>
        <time>2010-09-19T10:01:53Z</time>
      </trkpt>
      <trkpt lat="50.12567" lon="2.71705">
        <ele>140.970459</ele>
        <time>2010-09-19T10:02:01Z</time>
      </trkpt>
      <trkpt lat="50.12622" lon="2.71689">
        <ele>141.9317627</ele>
        <time>2010-09-19T10:02:10Z</time>
      </trkpt>
      <trkpt lat="50.12678" lon="2.71663">
        <ele>141.9317627</ele>
        <time>2010-09-19T10:02:19Z</time>
      </trkpt>
      <trkpt lat="50.1275" lon="2.71617">
        <ele>141.9317627</ele>
        <time>2010-09-19T10:02:31Z</time>
      </trkpt>
      <trkpt lat="50.12811" lon="2.7158">
        <ele>142.4124756</ele>
        <time>2010-09-19T10:02:41Z</time>
      </trkpt>
      <trkpt lat="50.12882" lon="2.7154">
        <ele>143.3736572</ele>
        <time>2010-09-19T10:02:53Z</time>
      </trkpt>
      <trkpt lat="50.12954" lon="2.71504">
        <ele>144.3352051</ele>
        <time>2010-09-19T10:03:05Z</time>
      </trkpt>
      <trkpt lat="50.13021" lon="2.71469">
        <ele>144.3352051</ele>
        <time>2010-09-19T10:03:17Z</time>
      </trkpt>
      <trkpt lat="50.13084" lon="2.71438">
        <ele>144.3352051</ele>
        <time>2010-09-19T10:03:28Z</time>
      </trkpt>
      <trkpt lat="50.13152" lon="2.71403">
        <ele>143.8543701</ele>
        <time>2010-09-19T10:03:39Z</time>
      </trkpt>
      <trkpt lat="50.13225" lon="2.71369">
        <ele>142.8930664</ele>
        <time>2010-09-19T10:03:50Z</time>
      </trkpt>
      <trkpt lat="50.13291" lon="2.71338">
        <ele>142.8930664</ele>
        <time>2010-09-19T10:04:00Z</time>
      </trkpt>
      <trkpt lat="50.13324" lon="2.7132">
        <ele>143.3736572</ele>
        <time>2010-09-19T10:04:06Z</time>
      </trkpt>
      <trkpt lat="50.13344" lon="2.7129">
        <ele>143.8543701</ele>
        <time>2010-09-19T10:04:11Z</time>
      </trkpt>
      <trkpt lat="50.13351" lon="2.71268">
        <ele>143.8543701</ele>
        <time>2010-09-19T10:04:14Z</time>
      </trkpt>
      <trkpt lat="50.1336" lon="2.71257">
        <ele>144.3352051</ele>
        <time>2010-09-19T10:04:18Z</time>
      </trkpt>
      <trkpt lat="50.13365" lon="2.71263">
        <ele>145.7770996</ele>
        <time>2010-09-19T10:04:21Z</time>
      </trkpt>
      <trkpt lat="50.1338" lon="2.71285">
        <ele>147.699707</ele>
        <time>2010-09-19T10:04:27Z</time>
      </trkpt>
      <trkpt lat="50.13407" lon="2.71323">
        <ele>150.5836182</ele>
        <time>2010-09-19T10:04:34Z</time>
      </trkpt>
      <trkpt lat="50.13437" lon="2.71366">
        <ele>152.5063477</ele>
        <time>2010-09-19T10:04:41Z</time>
      </trkpt>
      <trkpt lat="50.13477" lon="2.7142">
        <ele>153.9483643</ele>
        <time>2010-09-19T10:04:50Z</time>
      </trkpt>
      <trkpt lat="50.13518" lon="2.71465">
        <ele>155.3902588</ele>
        <time>2010-09-19T10:04:59Z</time>
      </trkpt>
      <trkpt lat="50.13562" lon="2.71511">
        <ele>155.8709717</ele>
        <time>2010-09-19T10:05:09Z</time>
      </trkpt>
      <trkpt lat="50.13588" lon="2.71537">
        <ele>154.9095459</ele>
        <time>2010-09-19T10:05:15Z</time>
      </trkpt>
      <trkpt lat="50.1363" lon="2.71573">
        <ele>153.9483643</ele>
        <time>2010-09-19T10:05:24Z</time>
      </trkpt>
      <trkpt lat="50.13664" lon="2.71596">
        <ele>153.9483643</ele>
        <time>2010-09-19T10:05:31Z</time>
      </trkpt>
      <trkpt lat="50.13679" lon="2.71607">
        <ele>153.9483643</ele>
        <time>2010-09-19T10:05:34Z</time>
      </trkpt>
      <trkpt lat="50.13704" lon="2.71625">
        <ele>153.9483643</ele>
        <time>2010-09-19T10:05:39Z</time>
      </trkpt>
      <trkpt lat="50.13732" lon="2.71635">
        <ele>154.4289551</ele>
        <time>2010-09-19T10:05:44Z</time>
      </trkpt>
      <trkpt lat="50.13764" lon="2.71632">
        <ele>155.8709717</ele>
        <time>2010-09-19T10:05:50Z</time>
      </trkpt>
      <trkpt lat="50.13801" lon="2.71628">
        <ele>155.8709717</ele>
        <time>2010-09-19T10:05:57Z</time>
      </trkpt>
      <trkpt lat="50.13817" lon="2.71628">
        <ele>156.3515625</ele>
        <time>2010-09-19T10:06:01Z</time>
      </trkpt>
      <trkpt lat="50.13826" lon="2.71634">
        <ele>156.8321533</ele>
        <time>2010-09-19T10:06:05Z</time>
      </trkpt>
      <trkpt lat="50.13844" lon="2.71651">
        <ele>155.8709717</ele>
        <time>2010-09-19T10:06:11Z</time>
      </trkpt>
      <trkpt lat="50.13872" lon="2.7166">
        <ele>156.8321533</ele>
        <time>2010-09-19T10:06:17Z</time>
      </trkpt>
      <trkpt lat="50.13911" lon="2.71679">
        <ele>157.3128662</ele>
        <time>2010-09-19T10:06:25Z</time>
      </trkpt>
      <trkpt lat="50.13946" lon="2.71693">
        <ele>160.1968994</ele>
        <time>2010-09-19T10:06:32Z</time>
      </trkpt>
      <trkpt lat="50.13988" lon="2.71702">
        <ele>160.6774902</ele>
        <time>2010-09-19T10:06:40Z</time>
      </trkpt>
      <trkpt lat="50.1403" lon="2.71701">
        <ele>159.2354736</ele>
        <time>2010-09-19T10:06:48Z</time>
      </trkpt>
      <trkpt lat="50.14047" lon="2.717">
        <ele>155.8709717</ele>
        <time>2010-09-19T10:06:52Z</time>
      </trkpt>
      <trkpt lat="50.14066" lon="2.71703">
        <ele>155.3902588</ele>
        <time>2010-09-19T10:06:56Z</time>
      </trkpt>
      <trkpt lat="50.14108" lon="2.71726">
        <ele>155.8709717</ele>
        <time>2010-09-19T10:07:04Z</time>
      </trkpt>
      <trkpt lat="50.14138" lon="2.71741">
        <ele>156.3515625</ele>
        <time>2010-09-19T10:07:09Z</time>
      </trkpt>
      <trkpt lat="50.14183" lon="2.71768">
        <ele>155.3902588</ele>
        <time>2010-09-19T10:07:16Z</time>
      </trkpt>
      <trkpt lat="50.14251" lon="2.71816">
        <ele>154.4289551</ele>
        <time>2010-09-19T10:07:27Z</time>
      </trkpt>
      <trkpt lat="50.1432" lon="2.71862">
        <ele>152.9869385</ele>
        <time>2010-09-19T10:07:38Z</time>
      </trkpt>
      <trkpt lat="50.14379" lon="2.71903">
        <ele>152.0257568</ele>
        <time>2010-09-19T10:07:47Z</time>
      </trkpt>
      <trkpt lat="50.14438" lon="2.71944">
        <ele>150.1030273</ele>
        <time>2010-09-19T10:07:56Z</time>
      </trkpt>
      <trkpt lat="50.14504" lon="2.71988">
        <ele>149.6223145</ele>
        <time>2010-09-19T10:08:06Z</time>
      </trkpt>
      <trkpt lat="50.14564" lon="2.7203">
        <ele>150.1030273</ele>
        <time>2010-09-19T10:08:15Z</time>
      </trkpt>
      <trkpt lat="50.14571" lon="2.72035">
        <ele>150.1030273</ele>
        <time>2010-09-19T10:08:16Z</time>
      </trkpt>
      <trkpt lat="50.14597" lon="2.72036">
        <ele>150.5836182</ele>
        <time>2010-09-19T10:08:20Z</time>
      </trkpt>
      <trkpt lat="50.14604" lon="2.72032">
        <ele>150.5836182</ele>
        <time>2010-09-19T10:08:21Z</time>
      </trkpt>
      <trkpt lat="50.14647" lon="2.72">
        <ele>150.1030273</ele>
        <time>2010-09-19T10:08:28Z</time>
      </trkpt>
      <trkpt lat="50.1469" lon="2.71969">
        <ele>148.6610107</ele>
        <time>2010-09-19T10:08:35Z</time>
      </trkpt>
      <trkpt lat="50.1472" lon="2.71947">
        <ele>148.1804199</ele>
        <time>2010-09-19T10:08:40Z</time>
      </trkpt>
      <trkpt lat="50.14747" lon="2.71908">
        <ele>149.1416016</ele>
        <time>2010-09-19T10:08:46Z</time>
      </trkpt>
      <trkpt lat="50.14751" lon="2.71901">
        <ele>149.1416016</ele>
        <time>2010-09-19T10:08:47Z</time>
      </trkpt>
      <trkpt lat="50.14792" lon="2.71863">
        <ele>149.6223145</ele>
        <time>2010-09-19T10:08:55Z</time>
      </trkpt>
      <trkpt lat="50.14824" lon="2.71838">
        <ele>149.6223145</ele>
        <time>2010-09-19T10:09:02Z</time>
      </trkpt>
      <trkpt lat="50.14827" lon="2.71835">
        <ele>149.6223145</ele>
        <time>2010-09-19T10:09:03Z</time>
      </trkpt>
      <trkpt lat="50.14832" lon="2.71816">
        <ele>148.6610107</ele>
        <time>2010-09-19T10:09:07Z</time>
      </trkpt>
      <trkpt lat="50.14827" lon="2.71806">
        <ele>148.1804199</ele>
        <time>2010-09-19T10:09:09Z</time>
      </trkpt>
      <trkpt lat="50.14801" lon="2.71771">
        <ele>147.699707</ele>
        <time>2010-09-19T10:09:15Z</time>
      </trkpt>
      <trkpt lat="50.14764" lon="2.7172">
        <ele>148.1804199</ele>
        <time>2010-09-19T10:09:22Z</time>
      </trkpt>
      <trkpt lat="50.14736" lon="2.71682">
        <ele>147.2189941</ele>
        <time>2010-09-19T10:09:27Z</time>
      </trkpt>
      <trkpt lat="50.14702" lon="2.71621">
        <ele>146.7384033</ele>
        <time>2010-09-19T10:09:34Z</time>
      </trkpt>
      <trkpt lat="50.14659" lon="2.71547">
        <ele>146.7384033</ele>
        <time>2010-09-19T10:09:43Z</time>
      </trkpt>
      <trkpt lat="50.14646" lon="2.71524">
        <ele>146.7384033</ele>
        <time>2010-09-19T10:09:46Z</time>
      </trkpt>
      <trkpt lat="50.14646" lon="2.71498">
        <ele>145.7770996</ele>
        <time>2010-09-19T10:09:50Z</time>
      </trkpt>
      <trkpt lat="50.1465" lon="2.71492">
        <ele>146.2578125</ele>
        <time>2010-09-19T10:09:51Z</time>
      </trkpt>
      <trkpt lat="50.14702" lon="2.7144">
        <ele>145.2963867</ele>
        <time>2010-09-19T10:10:02Z</time>
      </trkpt>
      <trkpt lat="50.14735" lon="2.71406">
        <ele>145.2963867</ele>
        <time>2010-09-19T10:10:09Z</time>
      </trkpt>
      <trkpt lat="50.14742" lon="2.71381">
        <ele>145.7770996</ele>
        <time>2010-09-19T10:10:13Z</time>
      </trkpt>
      <trkpt lat="50.14738" lon="2.71367">
        <ele>146.2578125</ele>
        <time>2010-09-19T10:10:15Z</time>
      </trkpt>
      <trkpt lat="50.14725" lon="2.71314">
        <ele>147.699707</ele>
        <time>2010-09-19T10:10:22Z</time>
      </trkpt>
      <trkpt lat="50.1471" lon="2.71251">
        <ele>147.699707</ele>
        <time>2010-09-19T10:10:31Z</time>
      </trkpt>
      <trkpt lat="50.14693" lon="2.71179">
        <ele>147.2189941</ele>
        <time>2010-09-19T10:10:41Z</time>
      </trkpt>
      <trkpt lat="50.14678" lon="2.71112">
        <ele>146.2578125</ele>
        <time>2010-09-19T10:10:50Z</time>
      </trkpt>
      <trkpt lat="50.14671" lon="2.71083">
        <ele>146.7384033</ele>
        <time>2010-09-19T10:10:54Z</time>
      </trkpt>
      <trkpt lat="50.14654" lon="2.71053">
        <ele>146.2578125</ele>
        <time>2010-09-19T10:11:00Z</time>
      </trkpt>
      <trkpt lat="50.14649" lon="2.71051">
        <ele>145.7770996</ele>
        <time>2010-09-19T10:11:01Z</time>
      </trkpt>
      <trkpt lat="50.14605" lon="2.71034">
        <ele>145.7770996</ele>
        <time>2010-09-19T10:11:10Z</time>
      </trkpt>
      <trkpt lat="50.14578" lon="2.71023">
        <ele>145.2963867</ele>
        <time>2010-09-19T10:11:15Z</time>
      </trkpt>
      <trkpt lat="50.14561" lon="2.71019">
        <ele>144.8157959</ele>
        <time>2010-09-19T10:11:18Z</time>
      </trkpt>
      <trkpt lat="50.14509" lon="2.71012">
        <ele>143.3736572</ele>
        <time>2010-09-19T10:11:27Z</time>
      </trkpt>
      <trkpt lat="50.14462" lon="2.7099">
        <ele>143.3736572</ele>
        <time>2010-09-19T10:11:35Z</time>
      </trkpt>
      <trkpt lat="50.14427" lon="2.70959">
        <ele>142.8930664</ele>
        <time>2010-09-19T10:11:41Z</time>
      </trkpt>
      <trkpt lat="50.14396" lon="2.70927">
        <ele>143.8543701</ele>
        <time>2010-09-19T10:11:47Z</time>
      </trkpt>
      <trkpt lat="50.1434" lon="2.70893">
        <ele>144.8157959</ele>
        <time>2010-09-19T10:11:57Z</time>
      </trkpt>
      <trkpt lat="50.14306" lon="2.70874">
        <ele>145.2963867</ele>
        <time>2010-09-19T10:12:03Z</time>
      </trkpt>
      <trkpt lat="50.14272" lon="2.70853">
        <ele>145.7770996</ele>
        <time>2010-09-19T10:12:10Z</time>
      </trkpt>
      <trkpt lat="50.14233" lon="2.70831">
        <ele>146.2578125</ele>
        <time>2010-09-19T10:12:18Z</time>
      </trkpt>
      <trkpt lat="50.14215" lon="2.70818">
        <ele>146.2578125</ele>
        <time>2010-09-19T10:12:22Z</time>
      </trkpt>
      <trkpt lat="50.14207" lon="2.70794">
        <ele>146.2578125</ele>
        <time>2010-09-19T10:12:26Z</time>
      </trkpt>
      <trkpt lat="50.14209" lon="2.70786">
        <ele>146.2578125</ele>
        <time>2010-09-19T10:12:27Z</time>
      </trkpt>
      <trkpt lat="50.14219" lon="2.70719">
        <ele>146.7384033</ele>
        <time>2010-09-19T10:12:35Z</time>
      </trkpt>
      <trkpt lat="50.14224" lon="2.70649">
        <ele>148.1804199</ele>
        <time>2010-09-19T10:12:43Z</time>
      </trkpt>
      <trkpt lat="50.14219" lon="2.70634">
        <ele>149.1416016</ele>
        <time>2010-09-19T10:12:47Z</time>
      </trkpt>
      <trkpt lat="50.14211" lon="2.70643">
        <ele>148.6610107</ele>
        <time>2010-09-19T10:12:50Z</time>
      </trkpt>
      <trkpt lat="50.14205" lon="2.70652">
        <ele>148.6610107</ele>
        <time>2010-09-19T10:12:52Z</time>
      </trkpt>
      <trkpt lat="50.14183" lon="2.7069">
        <ele>149.6223145</ele>
        <time>2010-09-19T10:12:59Z</time>
      </trkpt>
      <trkpt lat="50.14164" lon="2.70722">
        <ele>147.699707</ele>
        <time>2010-09-19T10:13:04Z</time>
      </trkpt>
      <trkpt lat="50.14137" lon="2.70765">
        <ele>146.7384033</ele>
        <time>2010-09-19T10:13:10Z</time>
      </trkpt>
      <trkpt lat="50.14128" lon="2.70778">
        <ele>145.7770996</ele>
        <time>2010-09-19T10:13:12Z</time>
      </trkpt>
      <trkpt lat="50.14104" lon="2.70784">
        <ele>143.8543701</ele>
        <time>2010-09-19T10:13:16Z</time>
      </trkpt>
      <trkpt lat="50.14091" lon="2.70778">
        <ele>143.3736572</ele>
        <time>2010-09-19T10:13:19Z</time>
      </trkpt>
      <trkpt lat="50.14084" lon="2.70773">
        <ele>144.3352051</ele>
        <time>2010-09-19T10:13:21Z</time>
      </trkpt>
      <trkpt lat="50.14078" lon="2.70768">
        <ele>144.3352051</ele>
        <time>2010-09-19T10:13:23Z</time>
      </trkpt>
      <trkpt lat="50.1406" lon="2.70751">
        <ele>145.2963867</ele>
        <time>2010-09-19T10:13:30Z</time>
      </trkpt>
      <trkpt lat="50.14055" lon="2.70746">
        <ele>144.8157959</ele>
        <time>2010-09-19T10:13:34Z</time>
      </trkpt>
    </trkseg>
  </trk>
</gpx>